[[{"header":{"parameterUnit":"m.s-1","parameterCategory":1,"la1":30.6,"la2":29.2853,"lo1":-89.7004,"lo2":-87.6739,"dy":0.0162,"dx":0.0183,"nx":112,"ny":82,"refTime":"2023-08-01T00:00:00:Z","depth":0,"parameterNumber":2,"parameterNumberName":"U-component_of_WINDS"},"data":[0.0,0.0,0.0,0.0,0.0,0.0,0.0,0.0,0.0,0.0,0.0,0.0,0.0,0.0,0.0,0.0,0.0,0.0,0.0,0.0,0.0,0.0,0.0,0.0,0.0,0.0,0.0,0.0,0.0,0.0,0.0,0.0,0.0,0.0,0.0,0.0,0.0,0.0,0.0,0.0,0.0,0.0,0.0,0.0,0.0,0.0,0.0,0.0,0.0,0.0,0.0,0.0,0.0,0.0,0.0,0.0,0.0,0.0,0.0,0.0,0.0,0.0,0.0,0.0,0.0,0.0,0.0,0.0,0.0,0.0,0.0,0.0,0.0,0.0,0.0,0.0,0.0,0.0,0.0,0.0,0.0,0.0,0.0,0.0,0.0,0.0,0.0,0.0,0.0,0.0,-1.4295,-2.1397,-2.6576,-2.963,-2.9948,-3.1631,-3.1165,-2.7563,0.0,0.0,0.0,0.0,0.0,0.0,0.0,0.0,0.0,0.0,0.0,0.0,0.0,0.0,0.0,0.0,0.0,0.0,0.0,0.0,0.0,0.0,0.0,0.0,0.0,0.0,0.0,0.0,0.0,0.0,0.0,0.0,0.0,0.0,0.0,0.0,0.0,0.0,0.0,0.0,0.0,0.0,0.0,0.0,0.0,0.0,0.0,0.0,0.0,0.0,0.0,0.0,0.0,0.0,0.0,0.0,0.0,0.0,0.0,0.0,0.0,0.0,0.0,0.0,0.0,0.0,0.0,0.0,0.0,0.0,0.0,0.0,0.0,0.0,0.0,0.0,0.0,0.0,0.0,0.0,0.0,0.0,0.0,0.0,0.0,0.0,0.0,0.0,0.0,0.0,0.0,0.0,0.0,0.0,0.0,0.0,0.0,0.0,0.0,0.0,0.0,0.0,0.0,0.0,-1.8285,-2.5676,-2.83,-3.0213,-3.1979,-3.2673,-3.1597,-2.8167,0.0,0.0,0.0,0.0,0.0,0.0,0.0,0.0,0.0,0.0,0.0,0.0,0.0,0.0,0.0,0.0,0.0,0.0,0.0,0.0,0.0,0.0,0.0,0.0,0.0,0.0,0.0,0.0,0.0,0.0,0.0,0.0,0.0,0.0,0.0,0.0,0.0,0.0,0.0,0.0,0.0,0.0,0.0,0.0,0.0,0.0,0.0,0.0,0.0,0.0,0.0,0.0,0.0,0.0,0.0,0.0,0.0,0.0,0.0,0.0,0.0,0.0,0.0,0.0,0.0,0.0,0.0,0.0,0.0,0.0,0.0,0.0,0.0,0.0,0.0,0.0,0.0,0.0,0.0,0.0,0.0,0.0,0.0,0.0,0.0,0.0,0.0,0.0,0.0,0.0,0.0,0.0,0.0,0.0,0.0,0.0,0.0,0.0,0.0,0.0,0.0,0.0,0.0,-1.8938,-2.2636,-2.7278,-3.0298,-3.2332,-3.3276,-3.3999,-3.2811,-2.9045,-2.804,0.0,0.0,0.0,0.0,0.0,0.0,0.0,0.0,0.0,0.0,0.0,0.0,0.0,0.0,0.0,0.0,0.0,0.0,0.0,0.0,0.0,0.0,0.0,0.0,0.0,0.0,0.0,0.0,0.0,0.0,0.0,0.0,0.0,0.0,0.0,0.0,0.0,0.0,0.0,0.0,0.0,0.0,0.0,0.0,0.0,0.0,0.0,0.0,0.0,0.0,0.0,0.0,0.0,0.0,0.0,0.0,0.0,0.0,0.0,0.0,0.0,0.0,0.0,0.0,0.0,0.0,0.0,0.0,0.0,0.0,0.0,0.0,0.0,0.0,0.0,0.0,0.0,0.0,0.0,0.0,0.0,0.0,0.0,0.0,0.0,0.0,0.0,0.0,0.0,0.0,0.0,0.0,0.0,0.0,0.0,0.0,0.0,0.0,0.0,0.0,0.0,0.0,-2.2829,-2.5799,-2.8492,-3.1924,-3.4095,-3.4312,-3.4623,-3.3266,-2.9638,-2.8324,0.0,0.0,0.0,0.0,0.0,0.0,0.0,0.0,0.0,0.0,0.0,0.0,0.0,0.0,0.0,0.0,0.0,0.0,0.0,0.0,0.0,0.0,0.0,0.0,0.0,0.0,0.0,0.0,0.0,0.0,0.0,0.0,0.0,0.0,0.0,0.0,0.0,0.0,0.0,0.0,0.0,0.0,0.0,0.0,0.0,0.0,0.0,0.0,0.0,0.0,0.0,0.0,0.0,0.0,0.0,0.0,0.0,0.0,0.0,0.0,0.0,0.0,0.0,0.0,0.0,0.0,0.0,0.0,0.0,0.0,0.0,0.0,0.0,0.0,0.0,0.0,0.0,0.0,0.0,0.0,0.0,0.0,0.0,0.0,0.0,0.0,0.0,0.0,0.0,0.0,0.0,0.0,0.0,0.0,0.0,0.0,0.0,0.0,0.0,0.0,0.0,0.0,-2.3306,-2.6543,-3.0388,-3.2713,-3.4394,-3.5326,-3.3768,-3.1768,-2.9551,-2.662,0.0,0.0,0.0,0.0,0.0,0.0,0.0,0.0,0.0,0.0,0.0,0.0,0.0,0.0,0.0,0.0,0.0,0.0,0.0,0.0,0.0,0.0,0.0,0.0,0.0,0.0,0.0,0.0,0.0,0.0,0.0,0.0,0.0,0.0,0.0,0.0,0.0,0.0,0.0,0.0,0.0,0.0,0.0,0.0,0.0,0.0,0.0,0.0,0.0,0.0,0.0,0.0,0.0,0.0,0.0,0.0,0.0,0.0,0.0,0.0,0.0,0.0,0.0,0.0,0.0,0.0,0.0,0.0,0.0,0.0,0.0,0.0,0.0,0.0,0.0,0.0,0.0,0.0,0.0,0.0,0.0,0.0,0.0,0.0,0.0,0.0,0.0,0.0,0.0,0.0,0.0,0.0,0.0,0.0,0.0,0.0,0.0,0.0,0.0,0.0,0.0,0.0,-2.4957,-2.7925,0.0,-3.278,-3.4394,-3.5392,-3.4412,-3.2504,-2.9527,0.0,0.0,0.0,0.0,0.0,0.0,0.0,0.0,0.0,0.0,0.0,0.0,0.0,0.0,0.0,0.0,0.0,0.0,0.0,0.0,0.0,0.0,0.0,0.0,0.0,0.0,0.0,0.0,0.0,0.0,0.0,0.0,0.0,0.0,0.0,0.0,0.0,0.0,0.0,0.0,0.0,0.0,0.0,0.0,0.0,0.0,0.0,0.0,0.0,0.0,0.0,0.0,0.0,0.0,0.0,0.0,0.0,0.0,0.0,0.0,0.0,0.0,0.0,0.0,0.0,0.0,0.0,0.0,0.0,0.0,0.0,0.0,0.0,0.0,0.0,0.0,0.0,0.0,0.0,0.0,0.0,0.0,0.0,0.0,0.0,0.0,0.0,0.0,0.0,0.0,0.0,0.0,0.0,0.0,0.0,0.0,0.0,0.0,0.0,0.0,0.0,0.0,-2.2885,-2.5741,-2.8471,0.0,-3.245,-3.3822,-3.4524,-3.3662,-3.1903,-2.9053,0.0,0.0,0.0,0.0,0.0,0.0,0.0,0.0,0.0,0.0,0.0,0.0,0.0,0.0,0.0,0.0,0.0,0.0,0.0,0.0,0.0,0.0,0.0,0.0,0.0,0.0,0.0,0.0,0.0,0.0,0.0,0.0,0.0,0.0,0.0,0.0,0.0,0.0,0.0,0.0,0.0,0.0,0.0,0.0,0.0,0.0,0.0,0.0,0.0,0.0,0.0,0.0,0.0,0.0,0.0,0.0,0.0,0.0,0.0,0.0,0.0,0.0,0.0,0.0,0.0,0.0,0.0,0.0,0.0,0.0,0.0,0.0,0.0,0.0,0.0,0.0,0.0,0.0,0.0,0.0,0.0,0.0,0.0,0.0,0.0,0.0,0.0,0.0,0.0,0.0,0.0,0.0,0.0,0.0,0.0,0.0,0.0,0.0,0.0,0.0,0.0,0.0,-2.2737,-2.5371,-2.7941,-3.0147,-3.1694,-3.2593,-3.2593,-3.1053,-2.9473,0.0,0.0,0.0,0.0,0.0,0.0,0.0,0.0,0.0,0.0,0.0,0.0,0.0,0.0,0.0,0.0,0.0,0.0,0.0,0.0,0.0,0.0,0.0,0.0,0.0,0.0,0.0,0.0,0.0,0.0,0.0,0.0,0.0,0.0,0.0,0.0,0.0,0.0,0.0,0.0,0.0,0.0,0.0,0.0,0.0,0.0,0.0,0.0,0.0,0.0,0.0,0.0,0.0,0.0,0.0,0.0,0.0,0.0,0.0,0.0,0.0,0.0,0.0,0.0,0.0,0.0,0.0,0.0,0.0,0.0,0.0,0.0,0.0,0.0,0.0,0.0,0.0,0.0,0.0,0.0,0.0,0.0,0.0,0.0,0.0,0.0,0.0,0.0,0.0,0.0,0.0,0.0,0.0,0.0,0.0,0.0,0.0,0.0,0.0,0.0,0.0,0.0,0.0,-2.3983,-2.5676,-2.764,-3.0115,-3.1129,-3.1888,-3.2522,-3.1004,-2.9426,-2.798,0.0,0.0,0.0,0.0,0.0,0.0,0.0,0.0,0.0,0.0,0.0,0.0,0.0,0.0,0.0,0.0,0.0,0.0,0.0,0.0,0.0,0.0,0.0,0.0,0.0,0.0,0.0,0.0,0.0,0.0,0.0,0.0,0.0,0.0,0.0,0.0,0.0,0.0,0.0,0.0,0.0,0.0,0.0,0.0,0.0,0.0,0.0,0.0,0.0,0.0,0.0,0.0,0.0,0.0,0.0,0.0,0.0,0.0,0.0,0.0,0.0,0.0,0.0,0.0,0.0,0.0,0.0,0.0,0.0,0.0,0.0,0.0,0.0,0.0,0.0,0.0,0.0,0.0,0.0,0.0,0.0,0.0,0.0,0.0,0.0,0.0,0.0,0.0,0.0,0.0,0.0,0.0,0.0,0.0,0.0,0.0,0.0,0.0,0.0,0.0,0.0,0.0,-2.482,-2.5946,-2.7462,-2.9897,-3.0426,-3.0871,-3.1439,-3.0414,-2.898,-2.7097,0.0,0.0,0.0,0.0,0.0,0.0,0.0,0.0,0.0,0.0,0.0,0.0,0.0,0.0,0.0,0.0,0.0,0.0,0.0,0.0,0.0,0.0,0.0,0.0,0.0,0.0,0.0,0.0,0.0,0.0,0.0,0.0,0.0,0.0,0.0,0.0,0.0,0.0,0.0,0.0,0.0,0.0,0.0,0.0,0.0,0.0,0.0,0.0,0.0,0.0,0.0,0.0,0.0,0.0,0.0,0.0,0.0,0.0,0.0,0.0,0.0,0.0,0.0,0.0,0.0,0.0,0.0,0.0,0.0,0.0,0.0,0.0,0.0,0.0,0.0,0.0,0.0,0.0,0.0,0.0,0.0,0.0,0.0,0.0,0.0,0.0,0.0,0.0,0.0,0.0,0.0,0.0,0.0,0.0,0.0,0.0,0.0,0.0,0.0,0.0,0.0,0.0,-2.5247,-2.6135,-2.7329,-2.9478,-2.9767,-2.9792,-2.9792,-2.9437,-2.8218,-2.5841,0.0,0.0,0.0,0.0,0.0,0.0,0.0,0.0,0.0,0.0,0.0,0.0,0.0,0.0,0.0,0.0,0.0,0.0,0.0,0.0,0.0,0.0,0.0,0.0,0.0,0.0,0.0,0.0,0.0,0.0,0.0,0.0,0.0,0.0,0.0,0.0,0.0,0.0,0.0,0.0,0.0,0.0,0.0,0.0,0.0,0.0,0.0,0.0,0.0,0.0,0.0,0.0,0.0,0.0,0.0,0.0,0.0,0.0,0.0,0.0,-3.5774,0.0,0.0,0.0,0.0,0.0,0.0,0.0,0.0,0.0,0.0,0.0,0.0,0.0,0.0,0.0,0.0,0.0,0.0,0.0,0.0,0.0,0.0,0.0,0.0,0.0,0.0,0.0,0.0,0.0,0.0,0.0,0.0,0.0,0.0,0.0,0.0,0.0,0.0,0.0,0.0,0.0,-2.5297,-2.6135,-2.7178,-2.8925,-2.9528,-2.9792,-2.9792,-2.8532,-2.7351,-2.6361,-2.4697,0.0,0.0,0.0,0.0,0.0,0.0,0.0,0.0,0.0,0.0,0.0,0.0,0.0,0.0,0.0,0.0,0.0,0.0,0.0,0.0,0.0,0.0,0.0,0.0,0.0,0.0,0.0,0.0,0.0,0.0,0.0,0.0,0.0,0.0,0.0,0.0,0.0,0.0,0.0,0.0,0.0,0.0,0.0,0.0,0.0,0.0,0.0,0.0,0.0,0.0,0.0,0.0,0.0,0.0,0.0,0.0,0.0,0.0,0.0,0.0,-3.7229,0.0,0.0,0.0,0.0,0.0,0.0,0.0,0.0,0.0,0.0,0.0,0.0,0.0,0.0,0.0,0.0,0.0,0.0,0.0,0.0,0.0,0.0,0.0,0.0,0.0,0.0,0.0,0.0,0.0,0.0,0.0,0.0,0.0,0.0,0.0,0.0,0.0,0.0,0.0,0.0,-2.531,-2.6135,-2.7128,-2.8712,-2.9453,-2.9792,-2.9792,-2.8737,-2.7607,-2.6562,-2.5109,0.0,0.0,0.0,0.0,0.0,0.0,0.0,0.0,0.0,0.0,0.0,0.0,0.0,0.0,0.0,0.0,0.0,0.0,0.0,0.0,0.0,0.0,0.0,0.0,0.0,0.0,0.0,0.0,0.0,0.0,0.0,0.0,0.0,0.0,0.0,0.0,0.0,0.0,0.0,0.0,0.0,0.0,0.0,0.0,0.0,0.0,0.0,0.0,0.0,0.0,0.0,0.0,0.0,-4.5241,-4.5828,-4.5968,-4.5122,-4.4594,-4.4208,-4.1388,-3.98,-3.9123,0.0,0.0,0.0,0.0,0.0,0.0,0.0,0.0,0.0,0.0,0.0,0.0,0.0,0.0,0.0,0.0,0.0,0.0,0.0,0.0,0.0,0.0,0.0,0.0,0.0,-3.1256,-3.0817,0.0,0.0,0.0,0.0,0.0,0.0,0.0,0.0,0.0,0.0,0.0,0.0,-2.5084,-2.6021,-2.7052,-2.8486,-2.9151,-2.9541,-2.9641,-2.9114,-2.8197,-2.6864,-2.6025,-2.4782,0.0,0.0,0.0,0.0,0.0,0.0,0.0,0.0,0.0,0.0,0.0,0.0,0.0,0.0,0.0,0.0,0.0,0.0,0.0,0.0,0.0,0.0,0.0,0.0,0.0,0.0,0.0,0.0,0.0,0.0,0.0,0.0,-3.8478,-4.0292,0.0,0.0,0.0,0.0,0.0,0.0,0.0,0.0,0.0,0.0,0.0,0.0,0.0,0.0,-4.4066,-4.625,-4.7094,-4.6654,-4.893,-4.872,-4.6356,-4.695,-4.6574,-4.545,-4.5027,0.0,-3.991,-3.9157,0.0,0.0,0.0,0.0,0.0,0.0,0.0,0.0,0.0,0.0,0.0,0.0,0.0,0.0,0.0,0.0,0.0,0.0,0.0,0.0,0.0,0.0,-3.2961,-3.2377,-3.2288,-3.1708,0.0,-2.833,-2.7454,-2.5773,0.0,0.0,0.0,0.0,0.0,0.0,0.0,0.0,-2.4167,-2.5556,-2.6763,-2.7419,-2.7996,-2.8524,-2.8963,-2.8536,-2.8122,-2.7896,-2.644,-2.5473,-2.5172,-2.3684,0.0,0.0,0.0,0.0,0.0,0.0,0.0,0.0,0.0,0.0,0.0,0.0,0.0,0.0,0.0,0.0,0.0,0.0,0.0,0.0,0.0,0.0,0.0,0.0,0.0,0.0,0.0,0.0,0.0,-3.6943,-3.9763,-3.9082,-3.9852,-3.9509,0.0,0.0,0.0,0.0,0.0,0.0,0.0,0.0,0.0,-4.3735,-4.458,-4.6012,-4.8122,-4.9627,-5.0435,-5.0543,-5.1646,-5.1242,-4.9603,-4.9621,-4.9065,-4.8106,-4.7708,-4.5923,-4.3149,-4.1965,-4.013,-3.8017,0.0,0.0,0.0,0.0,0.0,-3.5422,-3.6093,0.0,0.0,0.0,0.0,0.0,0.0,0.0,0.0,0.0,0.0,0.0,0.0,0.0,0.0,-3.3589,-3.3918,-3.3769,-3.2186,-3.0998,-2.9345,0.0,-2.5356,-2.482,-2.4255,0.0,0.0,0.0,0.0,-2.4217,-2.482,-2.5845,-2.6713,-2.7218,-2.777,-2.821,-2.8448,-2.8524,-2.8298,-2.7682,-2.6954,-2.6126,-2.5197,-2.4437,-2.3722,0.0,0.0,0.0,0.0,0.0,0.0,0.0,0.0,0.0,0.0,0.0,0.0,0.0,0.0,0.0,0.0,0.0,0.0,0.0,0.0,0.0,0.0,0.0,0.0,0.0,0.0,0.0,0.0,-3.8887,-4.1367,-3.9199,-4.1289,-4.1551,0.0,0.0,0.0,0.0,0.0,0.0,-4.2969,-4.4205,-4.5775,-4.7701,-4.8342,-4.9736,-5.2013,-5.2619,-5.3115,-5.3518,-5.3518,-5.3014,-5.2089,-5.1393,-5.0689,-4.9976,-4.9286,-4.7851,-4.5872,-4.435,-4.2405,-4.0299,-3.9563,-3.8614,-3.7727,-3.8259,-3.8081,-3.7641,-3.8144,-3.795,-3.7216,-3.5783,0.0,-3.3359,-3.1756,0.0,0.0,0.0,0.0,-3.1285,-3.2467,0.0,-3.3903,-3.4608,-3.513,-3.5213,-3.4211,-3.2831,-3.0774,0.0,-2.6544,-2.6311,-2.5699,0.0,0.0,0.0,0.0,-2.4644,-2.531,-2.6047,-2.665,-2.7065,-2.7444,-2.7795,-2.8084,-2.8348,-2.8285,-2.7733,-2.7444,-2.6728,-2.5498,-2.5046,-2.4199,-2.2945,0.0,0.0,0.0,0.0,0.0,0.0,0.0,0.0,0.0,0.0,0.0,0.0,0.0,0.0,0.0,0.0,0.0,0.0,0.0,0.0,0.0,0.0,0.0,0.0,0.0,0.0,0.0,0.0,0.0,-4.3496,-4.6199,0.0,0.0,0.0,0.0,-4.5037,-4.6712,-4.8064,-4.8909,-4.9822,-5.1077,-5.2787,-5.2855,-5.3683,-5.5335,-5.539,-5.506,-5.4344,-5.4344,-5.3543,-5.2089,-5.1393,-5.0689,-4.9976,-4.9286,-4.8139,-4.6616,-4.5156,-4.3183,-4.1068,-4.0333,-3.9995,-3.9952,-3.9978,-3.9943,-3.9929,-3.9962,-3.8583,-3.6923,-3.7406,-3.5722,-3.3486,-3.3395,-3.2452,0.0,0.0,-3.1869,-3.2572,-3.326,-3.3933,-3.4638,-3.5295,-3.5489,-3.5213,-3.4211,-3.2831,-3.133,0.0,-2.7781,-2.6311,-2.5699,0.0,-2.4587,-2.4117,-2.4883,-2.536,-2.4888,-2.5799,-2.6499,-2.6537,-2.6562,-2.7002,-2.8009,-2.7657,-2.7795,-2.875,-2.7858,-2.7243,-2.7168,-2.5661,-2.475,-2.4662,-2.2611,0.0,0.0,0.0,0.0,0.0,0.0,0.0,0.0,0.0,0.0,0.0,0.0,0.0,0.0,0.0,0.0,0.0,0.0,0.0,0.0,0.0,0.0,0.0,0.0,0.0,0.0,0.0,0.0,-4.6387,-4.9628,0.0,-4.7804,-4.8134,-4.8631,-4.8874,-5.0952,-5.2334,-5.2601,-5.3453,-5.3936,-5.3962,-5.4473,-5.5023,-5.5574,-5.6106,-5.6235,-5.5941,-5.5409,-5.4369,-5.2834,-5.2089,-5.1094,-4.997,-4.9263,-4.8104,-4.6718,-4.572,-4.4248,-4.2608,-4.2337,-4.1931,-4.1525,-4.1525,-4.1174,-4.0675,-4.0675,-3.9525,-3.7997,-3.7316,-3.6159,-3.4807,-3.3917,-3.3284,-3.2894,-3.2811,-3.2662,-3.2856,-3.4397,-3.4637,-3.4683,-3.534,-3.5504,-3.5392,-3.5019,-3.4037,-3.3053,-3.2484,-2.9764,-2.757,-2.772,-2.6703,-2.5971,-2.6088,-2.5812,-2.5661,-2.5883,-2.6248,-2.6499,-2.6499,-2.6499,-2.665,-2.7052,-2.7228,-2.7143,-2.6804,-2.6766,-2.6474,-2.5724,-2.4795,-2.3954,-2.3226,-2.2083,-2.1245,0.0,0.0,0.0,0.0,0.0,0.0,0.0,0.0,0.0,0.0,0.0,0.0,0.0,0.0,0.0,0.0,0.0,0.0,0.0,0.0,0.0,0.0,0.0,0.0,0.0,0.0,-5.0078,-4.8652,-5.245,-5.4103,-5.1346,-5.2259,-5.31,-5.3252,-5.5088,-5.6173,-5.6085,-5.6637,-5.6406,-5.5251,-5.5721,-5.5868,-5.5614,-5.6124,-5.6271,-5.5978,-5.5445,-5.4513,-5.3253,-5.2459,-5.1469,-5.0317,-4.959,-4.8329,-4.6752,-4.6261,-4.5179,-4.3809,-4.3809,-4.3504,-4.3031,-4.2777,-4.2316,-4.168,-4.0958,-4.0067,-3.9021,-3.76,-3.6838,-3.6318,-3.537,-3.4888,-3.4665,-3.4562,-3.3864,-3.3529,-3.51,-3.4831,-3.4322,-3.4996,-3.516,-3.516,-3.516,-3.4563,-3.3993,-3.3993,-3.136,-2.9206,-2.936,-2.8075,-2.7115,-2.7256,-2.649,-2.6059,-2.6449,-2.6499,-2.6499,-2.6499,-2.6499,-2.6562,-2.6751,-2.6939,-2.6725,-2.5971,-2.5933,-2.5498,-2.4582,-2.4004,-2.3351,-2.2569,-2.1681,-2.0955,-2.0402,0.0,0.0,0.0,0.0,0.0,0.0,0.0,0.0,0.0,0.0,0.0,0.0,0.0,0.0,0.0,0.0,0.0,0.0,0.0,0.0,0.0,0.0,0.0,-4.3906,-4.832,-5.1289,-5.0566,-5.4829,-5.6784,-5.411,-5.5966,-5.7628,-5.8322,-5.9108,-5.9517,-5.942,-5.9388,-5.8559,-5.6853,-5.6748,-5.6345,-5.5578,-5.5556,-5.517,-5.4436,-5.4418,-5.3995,-5.3222,-5.2468,-5.1783,-5.1086,-5.0282,-4.877,-4.6844,-4.6764,-4.5901,-4.4615,-4.4615,-4.4581,-4.4479,-4.369,-4.3358,-4.3023,-4.084,-4.0106,-3.9852,-3.8346,-3.7863,-3.7879,-3.7835,-3.7247,-3.6615,-3.66,-3.5583,-3.4668,-3.5325,-3.4532,-3.3709,-3.4354,-3.4503,-3.4503,-3.4474,-3.4196,-3.3989,-3.3989,-3.253,-3.1093,-3.0491,-2.9145,-2.7957,-2.7404,-2.6851,0.0,-2.6499,-2.6499,-2.6499,-2.6499,-2.6499,-2.6713,-2.7241,-2.6788,-2.6449,-2.6411,-2.5372,-2.4519,-2.3966,-2.3358,-2.3045,-2.3032,-2.1493,-2.044,-1.9849,0.0,0.0,0.0,0.0,0.0,0.0,0.0,0.0,0.0,0.0,0.0,0.0,0.0,0.0,0.0,0.0,0.0,0.0,0.0,0.0,0.0,0.0,-4.7695,-4.832,-5.2305,-5.5566,-5.6601,-5.9022,-6.0226,-5.9282,-5.9788,-6.015,-6.0134,-6.0319,-6.0291,-5.9931,-5.9027,-5.7899,-5.6467,-5.5555,-5.495,-5.473,-5.473,-5.4913,-5.5244,-5.4675,-5.4289,-5.4051,-5.3255,-5.2509,-5.1736,-4.9976,-4.8557,-4.7382,-4.5858,-4.4987,-4.4615,-4.4615,-4.4231,-4.3707,-4.3477,-4.2716,-4.1651,-4.049,-4.0101,-4.0042,-3.9599,-3.948,-3.9358,-3.8772,-3.7733,-3.6717,-3.6612,-3.5583,-3.4668,-3.5325,-3.5235,-3.4876,-3.4578,-3.4503,-3.4384,-3.3858,-3.3702,-3.3648,-3.3648,-3.3048,-3.2104,-3.0663,-2.9695,-2.8695,-2.7463,0.0,0.0,-2.6499,-2.6499,-2.6499,-2.6499,-2.6499,-2.6549,-2.6713,-2.6197,-2.5498,-2.4732,-2.396,-2.3321,-2.2799,-2.2234,-2.1757,-2.1383,-2.132,-2.1207,0.0,0.0,0.0,0.0,0.0,0.0,0.0,0.0,0.0,0.0,0.0,0.0,0.0,0.0,0.0,0.0,0.0,0.0,0.0,0.0,0.0,0.0,-4.8416,-5.1719,-5.3691,-5.6113,-5.8183,-5.9531,-6.0879,-6.1585,-6.1337,-6.1303,-6.1155,-6.0827,-6.08,-6.061,-6.0132,-5.9206,-5.7953,-5.6349,-5.5399,-5.4583,-5.3904,-5.3904,-5.4124,-5.4583,-5.4124,-5.3904,-5.3885,-5.3427,-5.2609,0.0,-5.0,-4.858,-4.7173,-4.5687,-4.4874,0.0,0.0,0.0,0.0,0.0,-4.1745,-4.0679,-4.0248,-4.0096,-4.0096,-4.0096,-4.0096,-4.002,-3.9542,-3.8601,-3.7612,-3.7196,-3.6074,-3.5031,-3.5422,-3.4876,-3.4292,-3.4474,-3.4053,-3.3619,-3.3514,-3.3499,-3.3499,-3.3499,0.0,0.0,-3.1039,-3.0561,-2.9961,-2.844,-2.7781,-2.7208,0.0,-2.6499,-2.6499,-2.6499,-2.6499,-2.6499,-2.6499,-2.5971,0.0,0.0,0.0,-2.2857,-2.2305,-2.2008,0.0,0.0,0.0,-2.1719,0.0,0.0,0.0,0.0,-2.2435,-2.2711,0.0,0.0,0.0,0.0,0.0,0.0,0.0,0.0,0.0,0.0,0.0,0.0,0.0,0.0,0.0,0.0,-5.212,-5.5586,-5.8867,-5.9414,-5.9746,-6.0469,-6.121,-6.1579,-6.1312,-6.1291,-6.1132,-6.0827,-6.08,-6.0622,-6.0189,0.0,0.0,0.0,0.0,-5.4776,-5.3225,-5.3185,-5.3185,-5.3185,-5.3185,-5.3185,-5.3185,-5.3185,-5.2397,-5.099,-5.0269,-4.8753,-4.6673,-4.5958,-4.5196,-4.4479,-4.4378,-4.3842,-4.297,-4.1593,-4.0646,0.0,0.0,0.0,0.0,-4.0096,-4.0096,-4.0096,-4.0096,-3.9439,-3.8532,-3.7878,-3.6576,-3.5338,-3.5292,-3.3963,-3.2901,-3.3993,-3.3365,-3.2647,-3.3155,-3.3275,-3.3275,-3.3275,-3.3335,-3.2957,-3.1587,-3.1565,-3.1213,-2.968,-2.9057,0.0,-2.6935,-2.6679,-2.6658,-2.6658,0.0,0.0,-2.6658,-2.6181,-2.5655,-2.5122,-2.4017,-2.3107,-2.2555,-2.2542,-2.2459,-2.2309,-2.2309,-2.2071,-2.1581,-2.2133,-2.2656,-2.3208,-2.3753,-2.4029,0.0,0.0,0.0,0.0,0.0,0.0,0.0,0.0,0.0,0.0,0.0,0.0,0.0,0.0,0.0,-5.1032,-5.4794,-5.7851,-5.9883,-6.0762,-6.1269,-6.1426,-6.1491,-6.1488,-6.1326,-6.1138,-6.0991,-6.0816,-6.08,-6.0757,-6.0678,-5.9587,0.0,-5.6905,-5.5772,-5.4546,-5.3225,-5.3185,-5.3185,-5.3185,0.0,0.0,-5.3185,-5.3185,-5.2684,-5.1715,-5.0403,-4.8942,-4.7386,-4.6083,-4.4785,-4.3589,-4.298,-4.2286,-4.1525,-4.0629,-4.0231,-4.0096,-4.0096,-4.0096,-4.0096,-4.0096,-4.0096,-4.0096,-4.0096,-3.8742,0.0,-3.7038,-3.5504,-3.3909,-3.3905,-3.3604,-3.3245,-3.2961,-3.2706,-3.2378,-3.1974,-3.1884,-3.1884,-3.1884,-3.2303,-3.2602,-3.2303,-3.1735,-3.08,-2.9302,-2.8995,-2.8839,-2.8538,-2.7887,-2.7484,-2.7484,-2.7484,-2.7484,-2.7484,-2.76,-2.7462,-2.6835,-2.5719,-2.4715,-2.4024,-2.3935,-2.3393,-2.2322,-2.2309,-2.2259,-2.2159,-2.2681,-2.3246,-2.3841,-2.3954,-2.4243,0.0,0.0,0.0,0.0,0.0,0.0,0.0,0.0,0.0,0.0,0.0,-4.0954,-4.4373,0.0,-5.05,-5.4885,-5.7548,-5.9522,-6.0859,-6.1426,-6.1699,-6.1699,-6.158,-6.1448,-6.1301,-6.1128,-6.0935,-6.0804,-6.08,-6.08,-6.08,-5.9982,-5.8718,-5.7057,-5.6143,-5.4906,-5.3225,-5.3185,-5.3185,-5.3185,-5.3185,-5.3185,-5.3206,-5.2784,-5.216,-5.1332,-4.9836,-4.8388,-4.6943,-4.5606,-4.3948,-4.232,-4.2286,-4.1847,-4.1119,-4.0383,-4.0096,-4.0096,-4.0096,-4.0096,-4.0096,-4.0096,-3.9859,-3.9554,-3.9554,-3.8267,-3.6707,-3.6344,-3.5196,-3.4014,-3.3607,-3.3245,-3.3006,-3.3006,-3.2497,-3.1989,-3.1989,-3.1735,-3.1511,-3.1511,-3.1765,-3.1989,-3.1989,-3.1649,-3.1065,-3.0222,-3.0097,-2.9684,-2.85,-2.833,-2.8182,-2.7769,-2.8084,-2.833,-2.833,-2.8263,-2.795,-2.7341,-2.6452,-2.5798,-2.5429,-2.4685,-2.3987,-2.3325,-2.2917,-2.2694,-2.2694,-2.3258,-2.3822,-2.4418,-2.4682,-2.4946,0.0,0.0,0.0,0.0,0.0,0.0,0.0,-3.6818,-3.7405,-3.9486,-4.1567,-4.4269,-4.8336,-5.1151,-5.4199,-5.8287,-5.981,-6.0746,-6.1581,-6.1699,-6.164,-6.1465,-6.1319,-6.1175,-6.1061,-6.0837,-6.0654,-6.0554,-6.0704,-6.0723,-6.055,-6.0188,-5.9106,-5.7188,-5.6512,-5.5246,-5.3355,-5.323,-5.3185,-5.3185,-5.3185,-5.3112,-5.2949,-5.2289,-5.1481,-5.0468,-4.8873,-4.741,-4.6082,-4.4866,-4.3115,-4.1271,-4.1847,-4.1644,-4.0916,-4.0333,-4.0096,-4.0096,-4.0096,-4.0096,-4.0096,-4.0096,-3.9706,-3.9208,-3.9208,-3.8079,-3.6657,-3.5937,-3.5023,-3.41,-3.3307,-3.2721,-3.2452,-3.2991,-3.2273,-3.1645,-3.2183,-3.1884,-3.1511,-3.1511,-3.1511,-3.1511,-3.1511,-3.1511,-3.1456,-3.1269,-3.1266,-3.0585,-2.8675,-2.8907,-2.8971,-2.8266,-2.8844,-2.9317,-2.9473,-2.9085,-2.8582,-2.7963,-2.7371,-2.6891,-2.6623,-2.5405,-2.4649,-2.4464,-2.3713,-2.3308,-2.3283,-2.3879,-2.4393,-2.4813,-2.5473,-2.5762,-3.2125,-3.2428,-3.433,-3.8067,-3.7344,-3.7281,0.0,-4.2852,-4.2117,-4.5356,-4.675,-4.8471,-5.1991,-5.425,-5.6507,-5.9396,-6.0707,-6.1449,-6.1679,-6.1699,-6.1406,-6.0644,-6.0324,-6.0164,-6.0149,-5.9851,-5.9661,-5.9646,-6.0358,-6.0454,-5.9685,-5.9592,-5.8936,-5.7577,-5.6378,-5.5103,-5.3739,-5.338,-5.3185,-5.3185,-5.3185,-5.2839,-5.2123,-5.2032,-5.1171,-4.9625,-4.755,-4.6182,-4.5317,-4.406,-4.2625,-4.1221,-4.1288,-4.0865,-4.0214,-4.013,-4.0096,-4.0096,-4.0096,-4.0096,-4.0096,-4.0096,-4.0045,-3.9977,-3.9977,-3.848,-3.6657,-3.5975,-3.4367,-3.2653,-3.1908,-3.1675,-3.163,-3.1705,-3.1615,-3.1525,-3.16,-3.1555,-3.1511,-3.1511,-3.1511,-3.1511,-3.1511,-3.1511,-3.1497,-3.1469,-3.1484,-3.1352,-3.1102,-3.0554,-3.0103,-3.0011,-3.0103,-3.0419,-3.1161,-3.1189,-3.0848,-3.0193,-2.957,-2.8674,-2.742,-2.6653,-2.5869,-2.5014,-2.4455,-2.4098,-2.3904,-2.4456,-2.4725,-2.4813,-2.5921,-2.6399,-3.4855,-3.5924,-3.7431,-3.8631,-3.9638,-4.0905,-4.3277,-4.3261,-4.3601,-4.6528,-4.8474,-5.0686,-5.4031,-5.6134,-5.8081,-6.0378,-6.1105,-6.1455,-6.1678,-6.1269,-6.0449,-5.9101,-5.8676,-5.8882,-5.9896,-5.9688,-5.9704,-6.0223,-6.0127,-5.9877,-5.9511,-5.9069,-5.8218,-5.6946,-5.6114,-5.5078,-5.3814,-5.3402,-5.3185,-5.3185,-5.2729,-5.2325,-5.1958,-5.1042,-4.9978,-4.8743,-4.712,-4.597,-4.5198,-4.3923,-4.2513,-4.1204,-4.1204,-4.0747,-4.0096,-4.0096,-4.0096,-4.0096,-4.0096,-4.0096,-4.0096,-4.0096,-3.9808,-3.9469,-3.9469,-3.7643,-3.5519,-3.5246,-3.3603,-3.1881,-3.1582,-3.1511,-3.1511,-3.1511,-3.1511,-3.1511,-3.1511,-3.1511,-3.1391,-3.0972,-3.1227,-3.1376,-3.0972,-3.1241,-3.1511,-3.1511,-3.1511,-3.1322,-3.0866,-3.0925,-3.0999,-3.0999,-3.0999,-3.1117,-3.1467,-3.1511,-3.1376,-3.1092,-3.0148,-2.9337,-2.8741,-2.6866,-2.5689,-2.5288,-2.4178,-2.3569,-2.3471,-2.4067,-2.4343,-2.4356,-2.5134,-2.5674,-3.6667,-3.8206,-3.951,-3.977,-4.1683,-4.3458,-4.332,-4.3684,-4.4647,-4.6722,-4.872,-5.1106,-5.4398,-5.6242,-5.8046,-6.0492,-6.0909,-6.1101,-6.157,-6.0741,-5.9629,-5.8398,-5.7545,-5.7656,-5.9137,-5.9001,-5.9069,-5.9704,-5.9396,-5.9069,-5.8819,-5.8261,-5.7516,-5.6595,-5.5883,-5.5034,-5.3995,-5.3584,-5.3316,-5.3185,-5.238,-5.1867,-5.161,-4.9996,-4.8783,-4.7918,-4.6827,-4.5706,-4.4562,-4.3493,-4.2191,-4.0899,-4.0899,-4.0561,-4.0096,-4.0096,-4.0096,-4.0096,-4.0096,-4.0096,-4.0096,-4.0096,-3.974,-3.9283,-3.9056,-3.7269,-3.5211,-3.4808,-3.3302,-3.1768,-3.1553,-3.1511,-3.1511,-3.1511,-3.1511,-3.1511,-3.1511,-3.1511,-3.1361,-3.0881,-3.1167,-3.1346,-3.0866,-3.1182,-3.1511,-3.1511,-3.1511,-3.1278,-3.0703,-3.1161,-3.1511,-3.1511,-3.1511,-3.1511,-3.1511,-3.1331,-3.1152,-3.0972,-2.9939,-2.9247,-2.9067,-2.6904,-2.5674,-2.5618,-2.4184,-2.3381,-2.3346,-2.3791,-2.4004,-2.4017,-2.4537,-2.5021,-3.639,-3.7666,-3.9178,-4.2584,-4.3335,-4.3654,-4.5395,-4.5768,-4.5962,-4.6825,-4.7733,-4.9374,-5.2666,-5.401,-5.5768,-5.9276,-5.995,-6.0375,-6.1378,-6.0204,-5.9219,-5.918,-5.7427,-5.6561,0.0,-5.7222,-5.7099,-5.7118,-5.7877,-5.7973,-5.7118,-5.706,-5.7011,-5.6992,-5.5772,-5.4914,-5.4487,-5.4032,-5.3585,-5.3185,-5.238,-5.1591,-5.0784,-4.9114,-4.7901,-4.7093,-4.649,-4.5014,-4.3014,-4.2405,-4.1342,-4.013,-4.013,-4.013,-4.0096,-4.0096,-4.0096,-4.0096,-4.0096,-4.0096,-4.0096,-4.0096,-4.0079,-3.9943,-3.9208,-3.7937,-3.645,-3.5068,-3.3655,-3.241,-3.1697,-3.1511,-3.1511,-3.1511,-3.1511,-3.1511,-3.1511,-3.1511,-3.1496,-3.1481,-3.1496,-3.1496,-3.1481,-3.1496,-3.1511,-3.1511,-3.1511,-3.1511,-3.1467,-3.1467,-3.1511,-3.1511,-3.1511,-3.1511,-3.1511,-3.0883,-3.0283,-2.9696,-2.9011,-2.8323,-2.769,-2.6893,-2.6379,-2.6168,-2.4918,-2.417,-2.3966,-2.3991,-2.4004,-2.4017,-2.4537,-2.48,-3.7436,-3.9802,-4.2102,-4.3295,-4.4376,-4.5283,-4.5894,-4.6016,-4.6234,-4.7081,-4.6972,-4.7544,-5.0294,-5.1442,-5.3138,-5.6709,-5.8325,-5.9484,-6.0497,-6.0263,-5.9375,-5.7676,-5.7193,0.0,0.0,0.0,0.0,-5.7819,-5.7588,-5.7311,-5.7022,-5.6445,-5.6137,-5.6137,-5.546,-5.4909,-5.4503,-5.4031,-5.3326,-5.238,-5.1041,-4.9958,-4.9114,-4.7993,-4.7351,-4.7039,-4.5894,-4.4988,-4.4223,-4.273,-4.1833,-4.1332,-4.0458,-4.0096,-4.0096,-4.0096,-4.0096,-4.0096,-4.0096,-4.0096,-4.0096,-4.0096,-3.9774,-3.9309,-3.9073,-3.7644,-3.5875,-3.4955,-3.3698,-3.2437,-3.1697,-3.1511,-3.1511,-3.1511,-3.1511,-3.1511,-3.1511,-3.1511,-3.1376,-3.0913,-3.1197,-3.1361,-3.0898,-3.1197,-3.1511,-3.1511,-3.1511,-3.1511,-3.1511,-3.1511,-3.1511,-3.1511,-3.1092,-3.0851,-3.0851,-3.0253,-2.9831,-2.9621,-2.8966,-2.8263,-2.7547,-2.6389,-2.5522,-2.4947,-2.3975,-2.3466,-2.3396,-2.3396,-2.3396,-2.3396,-2.3584,-2.3873,-3.9531,-4.1792,-4.3706,-4.439,-4.5342,-4.6108,-4.6108,-4.6108,-4.6152,-4.6396,-4.5718,-4.5728,-4.785,-4.8604,-5.0051,-5.3542,-5.5391,-5.7074,-5.8976,-5.8595,-5.7969,-5.7578,-5.6917,-5.6211,0.0,0.0,0.0,-5.7338,-5.6838,-5.6541,-5.6541,-5.5992,-5.5568,-5.528,-5.5013,-5.4529,-5.3815,-5.3388,-5.2475,-5.1134,-5.0088,-4.8985,-4.7846,-4.7333,-4.6782,-4.6177,-4.5291,-4.4621,-4.4095,-4.2845,-4.2209,-4.1905,-4.0807,-4.0392,-4.0368,-4.0154,-4.0096,-4.0096,-4.0096,-4.0096,-4.0062,-3.9791,-3.9402,-3.8886,-3.8362,-3.7034,-3.5555,-3.4848,-3.3813,-3.2749,-3.2028,-3.1854,-3.1795,-3.157,-3.1511,-3.1511,-3.1511,-3.1511,-3.1376,-3.0928,-3.1197,-3.1361,-3.0913,-3.1212,-3.1511,-3.1511,-3.1301,-3.1227,-3.1466,-3.1286,-3.1227,-3.1481,-3.0717,-3.0268,-3.0477,-2.9729,-2.922,-2.922,-2.8607,-2.8036,-2.7559,-2.6157,-2.5175,-2.4709,-2.3649,-2.3108,-2.3108,-2.3108,-2.3108,-2.3108,-2.3108,-2.3308,-4.2388,-4.3463,-4.3978,-4.5836,-4.6201,-4.6113,-4.6113,-4.6074,-4.5774,-4.4843,-4.3972,-4.3835,-4.5234,-4.5536,-4.6661,-5.0028,-5.1617,-5.3614,-5.7016,-5.5628,-5.5469,-5.8672,-5.6683,-5.533,-5.6114,0.0,0.0,-5.5703,0.0,-5.5703,-5.5703,-5.5703,-5.5318,-5.453,-5.4491,-5.3889,-5.2603,-5.2153,-5.1131,-4.9631,-4.9519,-4.8636,-4.7094,-4.7003,-4.614,-4.4691,-4.4672,-4.3907,-4.275,-4.2711,-4.2362,-4.1789,-4.1178,-4.0926,-4.085,-4.0336,-4.0121,-4.0096,-4.0096,-4.0096,-3.9994,-3.9276,-3.9022,-3.8717,-3.7303,-3.6339,-3.5588,-3.4774,-3.4038,-3.3347,-3.2644,-3.2437,-3.2273,-3.1645,-3.1511,-3.1511,-3.1511,-3.1511,-3.1511,-3.1511,-3.1511,-3.1511,-3.1511,-3.1511,-3.1511,-3.1511,-3.0943,-3.0791,-3.1421,-3.0883,-3.0717,-3.1376,-3.0313,-2.9774,-3.0357,-2.9265,-2.8547,-2.8547,-2.7959,-2.7575,-2.7484,-2.6135,-2.537,-2.5287,-2.3842,-2.3108,-2.3108,-2.3108,-2.3108,-2.3108,-2.3108,-2.3108,-4.3083,-4.4316,-4.5429,-4.6128,-4.6269,-4.6247,-4.6247,-4.5759,-4.5037,-4.4141,-4.2216,-4.0781,-4.1116,-4.2635,-4.4919,-4.8229,-5.1844,-5.4981,-5.7131,-5.7675,-5.7715,-5.7305,-5.6976,-5.6605,-5.623,-5.5896,0.0,0.0,-5.5703,-5.5703,-5.5703,-5.5703,-5.5318,-5.453,-5.4491,-5.3889,-5.2603,-5.1249,-5.0365,-4.9951,-4.8439,-4.7498,-4.7058,-4.5847,-4.5076,-4.4654,-4.4066,-4.361,-4.3268,-4.2864,-4.2616,-4.242,-4.181,-4.1291,-4.088,-4.075,-4.0424,-4.0096,-4.0096,-4.0096,-4.0079,-3.9893,-3.9453,-3.8819,-3.7905,-3.7118,-3.614,-3.4374,-3.3724,-3.3302,-3.2066,-3.175,-3.1705,-3.154,-3.1511,-3.1511,-3.1511,-3.1511,-3.1511,-3.1511,-3.1511,-3.1511,-3.1511,-3.1511,-3.1511,-3.1511,-3.1346,-3.1316,-3.1481,-3.0522,-3.0058,-3.0702,-2.9624,-2.8921,-2.9071,-2.8323,-2.7854,-2.7854,-2.769,-2.7111,-2.6,-2.5591,-2.4866,-2.3708,-2.3305,-2.3108,-2.3108,-2.3108,-2.3108,-2.3108,-2.3108,-2.3108,-4.5168,-4.5993,-4.652,-4.6734,-4.6541,-4.5996,-4.4844,-4.4512,-4.3867,-4.1875,-4.0251,-3.9291,-3.9546,-4.1,-4.3117,-4.6036,-4.9652,-5.2961,-5.5474,-5.6442,-5.6973,-5.7148,-5.6995,-5.6703,-5.623,-5.5896,-5.5703,0.0,-5.5703,-5.5703,-5.5703,-5.5376,-5.478,-5.3953,-5.3568,-5.251,-5.0732,-4.9777,-4.8961,-4.8233,-4.7114,-4.6379,-4.6012,-4.5095,-4.4525,-4.4158,0.0,-4.3515,-4.348,-4.3178,-4.305,-4.2995,-4.2422,-4.1832,-4.1251,-4.0995,-4.0552,-4.0096,-4.0096,-4.0096,-3.9994,-3.9326,-3.8853,-3.8311,-3.7229,-3.6603,-3.5961,-3.4464,-3.4046,-3.3704,-3.2305,-3.1929,-3.1929,-3.1929,-3.1929,-3.1929,-3.1929,-3.1929,-3.1854,-3.157,-3.1511,-3.1511,-3.1511,-3.1256,-3.1152,-3.1466,-3.0763,-3.0539,-3.1391,-3.0387,-2.9819,-3.0432,-2.9086,-2.8263,-2.8577,-2.8004,-2.76,-2.76,-2.76,-2.7214,-2.6402,-2.5755,-2.5007,-2.4134,-2.3442,-2.3108,-2.3108,-2.3108,-2.3108,-2.3108,-2.3108,-2.3108,-4.7577,-4.7841,-4.738,-4.7393,-4.6843,-4.5625,-4.3008,-4.2891,-4.2422,-3.9101,-3.8437,-3.8568,-3.901,-4.0046,-4.1573,-4.3965,-4.6688,-4.9738,-5.3291,-5.3918,-5.4922,-5.7422,-5.682,-5.6191,-5.6191,-5.5896,-5.5665,-5.5549,-5.5645,-5.5703,-5.5703,-5.4934,-5.4049,-5.3068,-5.2192,-5.0676,-4.8475,-4.8342,-4.7537,-4.6044,-4.5827,-4.5388,-4.4691,-4.4599,-4.4158,-4.3515,0.0,0.0,-4.3515,-4.3515,-4.3515,-4.3444,-4.2976,-4.2402,-4.1746,-4.1223,-4.0625,-4.0096,-4.0096,-4.0096,-3.9876,-3.8481,-3.8125,-3.7889,-3.6242,-3.5819,-3.5702,-3.4746,-3.4468,-3.4164,-3.2835,-3.2512,-3.2512,-3.2617,-3.2572,-3.2512,-3.2512,-3.2437,-3.2183,-3.1615,-3.1511,-3.1466,-3.1376,-3.0883,-3.0672,-3.1167,-2.9894,-2.9445,-3.1032,-3.0208,-2.9684,-3.0313,-2.8798,-2.7944,-2.8427,-2.7944,-2.76,-2.76,-2.7524,-2.7408,-2.7316,-2.6,-2.5203,-2.5091,-2.3783,-2.3108,-2.3108,-2.3108,-2.3108,-2.3108,-2.3108,-2.3108,-4.8033,-4.8293,-4.8124,-4.7549,-4.6843,-4.5625,-4.3008,-4.1992,-4.0859,-3.8086,-3.7539,-3.7322,-3.6659,-3.8884,-4.1401,-4.3287,-4.6342,-4.973,-5.3298,-5.3916,-5.4707,-5.6601,-5.6469,-5.6191,-5.6191,-5.5896,0.0,0.0,0.0,-5.5703,-5.5703,-5.4934,-5.378,-5.2173,-5.1337,-5.0355,-4.9227,-4.8599,-4.7801,-4.6782,-4.5514,-4.4838,-4.4673,-4.4011,-4.3643,-4.3515,0.0,0.0,-4.3515,-4.3515,-4.3515,-4.3479,-4.3392,-4.2715,-4.1789,-4.1686,-4.0984,-4.0096,-4.0096,-4.0096,-3.996,-3.9089,-3.9208,-3.9334,-3.7235,-3.7026,-3.6985,-3.4489,-3.3774,-3.3588,-3.2714,-3.2512,-3.2647,-3.32,-3.2901,-3.2512,-3.2512,-3.2049,-3.1645,-3.1525,-3.1511,-3.1316,-3.0776,-3.0582,-3.0372,-2.9983,-3.0058,-3.0118,-2.9939,-2.925,-2.9026,-2.9696,-2.8951,-2.8233,-2.7809,-2.766,-2.76,-2.76,-2.7034,-2.6416,-2.581,-2.4951,-2.4176,-2.3501,-2.3245,-2.3108,-2.3108,-2.3108,-2.3108,-2.3108,-2.3108,-2.3108,-4.9143,-4.9318,-4.9007,-4.8725,-4.7406,-4.542,-4.2441,-4.1133,-3.9648,-3.6582,-3.6309,-3.66,-3.6533,-3.8558,-4.0792,-4.2539,-4.4946,-4.7822,-5.1428,-5.2341,-5.3457,-5.5664,-5.615,-5.6093,-5.556,-5.5304,-5.4805,-5.3886,0.0,-5.4395,-5.4395,-5.3606,-5.2568,-5.1318,-5.0452,-4.9509,-4.8475,-4.765,-4.6649,-4.5438,-4.4689,-4.4234,-4.4066,-4.368,-4.3515,-4.3515,0.0,0.0,-4.3515,-4.3515,-4.3515,-4.3515,-4.3515,-4.2791,-4.181,-4.181,-4.1076,-4.0096,-4.0096,-4.0096,-3.9926,-3.8785,-3.8667,-3.8684,-3.7252,-3.6738,-3.628,-3.4198,-3.3582,-3.3351,-3.226,-3.1974,-3.2138,-3.2826,-3.2736,-3.2512,-3.2512,-3.1974,-3.1511,-3.1511,-3.1511,-3.1406,-3.1077,-3.0746,-3.0522,-3.0597,-3.0268,-3.0163,-3.0552,-3.0013,-2.946,-2.9116,-2.8786,-2.8323,-2.766,-2.7929,-2.7974,-2.7615,-2.728,-2.6733,-2.6014,-2.5259,-2.4509,-2.3738,-2.3305,-2.3108,-2.3108,-2.2819,-2.2832,-2.3095,-2.2807,-2.2832,-4.9871,-5.0162,-4.9806,-4.9551,-4.7915,-4.541,-4.1713,-4.037,-3.8906,-3.543,-3.5391,-3.6171,-3.6756,-3.8262,-3.9938,-4.1535,-4.3189,-4.5581,-4.9394,-5.0625,-5.2187,-5.4961,-5.5782,-5.5792,-5.4986,-5.4614,0.0,-5.3011,0.0,0.0,-5.2914,-5.2106,-5.1279,-5.0462,-4.9586,-4.8577,-4.7469,-4.6686,-4.5607,-4.4228,-4.4073,-4.3865,-4.3595,-4.3531,-4.3515,-4.3515,0.0,0.0,0.0,-4.3515,-4.3515,-4.3515,-4.3515,-4.2791,-4.181,-4.181,-4.1076,-4.0096,-4.0096,-3.9994,-3.9673,-3.8514,-3.8142,-3.7939,-3.6857,-3.6214,-3.5534,-3.4036,-3.3582,-3.3319,-3.2033,-3.1705,-3.1854,-3.2363,-3.2512,-3.2452,-3.2303,-3.1869,-3.1511,-3.1511,-3.1511,-3.1451,-3.1316,-3.0866,-3.0642,-3.1017,-3.0357,-3.0103,-3.0972,-3.0761,-3.0073,-2.8921,-2.8921,-2.8682,-2.7884,-2.8293,-2.8308,-2.7645,-2.7458,-2.7034,-2.6283,-2.5563,-2.4809,-2.406,-2.3424,-2.3108,-2.3108,-2.2669,-2.2681,-2.3095,-2.2656,-2.2694,-4.9355,-5.0152,-5.0405,-4.8824,-4.7859,-4.5965,-4.0972,-3.9873,-3.8906,-3.543,-3.5391,-3.6016,-3.6093,-3.7426,-3.8879,-3.9959,-4.149,-4.404,-4.8418,-4.9766,-5.1543,-5.4902,-5.5253,-5.5149,-5.4928,-5.4064,-5.3097,0.0,0.0,0.0,0.0,-5.1241,-5.0414,-4.9548,-4.8663,-4.7827,-4.6972,-4.6515,-4.5856,-4.4988,-4.4332,-4.3967,-4.394,-4.3629,-4.3515,-4.3515,0.0,0.0,0.0,-4.3515,-4.3515,-4.3515,-4.3515,-4.2791,-4.181,-4.181,-4.1076,-4.0096,-4.0096,-3.9673,-3.9073,-3.8937,-3.8886,-3.8497,-3.6343,-3.6163,-3.6269,-3.4182,-3.3582,-3.343,-3.2608,-3.2392,-3.2407,-3.2497,-3.2512,-3.2318,-3.172,-3.154,-3.1511,-3.1511,-3.1511,-3.1316,-3.0717,-3.0552,-3.0328,-2.9834,-3.0133,-3.0253,-2.9819,-3.0193,-3.0253,-2.9592,-2.9998,-2.9834,-2.8607,-2.8562,-2.8308,-2.7645,-2.6956,-2.6283,-2.5536,-2.4794,-2.4031,-2.3215,-2.3138,-2.3108,-2.3108,-2.3058,-2.3058,-2.3108,-2.3058,-2.3058,-4.8884,-5.0085,-5.0634,-5.002,-4.7745,-4.501,-4.2546,-4.0068,-3.7746,-3.5879,-3.6172,-3.6777,-3.6777,-3.7732,-3.8824,-3.9746,-3.9998,-4.1403,-4.5234,-4.6074,-4.7733,-5.1645,-5.2485,-5.2866,0.0,0.0,-5.2224,0.0,0.0,0.0,0.0,-5.0375,-4.976,-4.9413,-4.8086,-4.7471,-4.7625,-4.6455,-4.5619,-4.5096,-4.4806,-4.4561,-4.4364,-4.3974,-4.3804,-4.3788,0.0,0.0,0.0,-4.3515,-4.3515,-4.3515,-4.3515,-4.3014,-4.2302,-4.1937,-4.1011,-3.9877,-3.9542,-3.8954,-3.8261,-3.7804,-3.7692,-3.7523,-3.6586,-3.6214,-3.5725,-3.4084,-3.3582,-3.3351,-3.2184,-3.1899,-3.1795,-3.1405,-3.1585,-3.1824,-3.157,-3.1511,-3.1511,-3.1511,-3.1511,-3.1421,-3.1137,-3.1092,-3.1017,-3.0763,-3.0943,-3.1002,-3.0763,-3.0943,-3.1002,-3.0763,-3.0612,-2.9983,-2.8712,-2.8966,-2.8727,-2.766,-2.6904,-2.6176,-2.5425,-2.4681,-2.3914,-2.3108,-2.2782,-2.2782,-2.3108,-2.2443,-2.2456,-2.3095,-2.2769,-2.2782,-4.7655,-4.9086,-4.9903,-4.976,-4.7277,-4.4503,-4.3012,-4.022,-3.7551,-3.6244,-3.6464,-3.6914,-3.6914,-3.7637,-3.8418,-3.9023,-3.9043,-4.0,-4.291,-4.3769,-4.5389,-4.8885,-4.9751,-5.044,0.0,-5.1412,0.0,0.0,0.0,0.0,0.0,-4.899,-4.8779,-4.9009,-4.7644,-4.7048,-4.7355,-4.6191,-4.5485,-4.5243,-4.5159,-4.4985,-4.472,-4.4233,-4.4001,-4.3986,0.0,0.0,0.0,-4.3149,-4.3149,-4.3112,-4.2873,-4.2595,-4.2219,-4.1416,-4.0407,-3.9375,-3.885,-3.8193,-3.7483,-3.6981,-3.6643,-3.6434,-3.6434,-3.6045,-3.5362,-3.4211,-3.3608,-3.3029,-3.1832,-3.1518,-3.1331,-3.0672,-3.1002,-3.1511,-3.1511,-3.1511,-3.1511,-3.1511,-3.1511,-3.1511,-3.1511,-3.1511,-3.1511,-3.1511,-3.1511,-3.1436,-3.1227,-3.1197,-3.1137,-3.0943,-3.0522,-2.9864,-2.8966,-2.9146,-2.8722,-2.7354,-2.6774,-2.6068,-2.5119,-2.4567,-2.3914,-2.3108,-2.2732,-2.2719,-2.3108,-2.2347,-2.2343,-2.3095,-2.2706,-2.2732,-4.5402,-4.6855,-4.7952,-4.7144,-4.6368,-4.4905,-4.1492,-4.019,-3.8965,-3.6428,-3.5969,-3.6016,-3.6016,-3.6738,-3.7324,-3.7324,-3.8769,-4.0488,-4.2187,-4.3906,-4.5644,-4.7402,-4.7526,-4.8125,-4.9852,-4.9784,0.0,0.0,0.0,0.0,0.0,-4.6923,-4.7298,-4.8086,-4.7308,-4.649,-4.5633,-4.5614,-4.5594,-4.5586,-4.5253,-4.5096,-4.5074,-4.4327,-4.4001,0.0,0.0,0.0,0.0,-4.2304,-4.2304,-4.2231,-4.1425,-4.1229,-4.1265,-3.9993,-3.9122,-3.8535,-3.8084,-3.7432,-3.6812,-3.6795,-3.6265,-3.5616,-3.5616,-3.56,-3.547,-3.4783,-3.3633,-3.2458,-3.1765,-3.1548,-3.1331,-3.0672,-3.1002,-3.1511,-3.1511,-3.1511,-3.1511,-3.1511,-3.1511,-3.1511,-3.1511,-3.1511,-3.1511,-3.1511,-3.1511,-3.1256,-3.0612,-3.0507,-3.0283,-2.9696,-2.9621,-2.9606,-2.9592,-2.8981,-2.8021,-2.6606,-2.651,-2.5837,-2.4379,-2.4292,-2.3914,-2.3108,-2.3095,-2.3095,-2.3108,-2.3095,-2.3095,-2.3108,-2.3095,-2.3095,-4.2624,-4.4239,-4.5316,-4.4509,-4.3238,-4.1759,-4.0172,-3.8302,-3.6701,-3.6044,-3.6383,-3.6825,-3.6875,-3.7109,-3.7695,-3.8887,-3.9043,-3.9609,-4.1348,-4.2539,-4.4061,-4.6308,-4.8476,-4.9776,0.0,0.0,0.0,0.0,0.0,0.0,0.0,-4.7192,-4.7019,-4.7269,-4.6451,-4.6163,-4.649,-4.5893,-4.5594,-4.5594,-4.5495,-4.5438,-4.5419,-4.4732,0.0,0.0,0.0,0.0,0.0,-4.148,-4.148,-4.1444,-4.1187,-4.1141,-4.1066,-3.9916,-3.9055,-3.833,-3.7445,-3.6637,-3.591,-3.5385,-3.5047,-3.4759,-3.4252,-3.4455,-3.4711,-3.4031,-3.2928,-3.1869,-3.1668,-3.1211,-3.0748,-3.0552,-3.1002,-3.1511,-3.1511,-3.1511,-3.1511,-3.1511,-3.1511,-3.1511,-3.1511,-3.1511,-3.1511,-3.1511,-3.1511,-3.1421,-3.1212,-3.1182,-3.0913,-3.0283,-2.9834,-2.9427,-2.8951,-2.8727,-2.8006,-2.658,-2.6041,-2.5122,-2.3742,-2.3548,-2.3187,-2.2585,-2.2196,-2.2385,-2.3108,-2.2343,-2.2397,-2.3108,-2.3108,-2.3108,-4.1258,-4.2797,-4.372,-4.3239,-4.2047,-4.0693,-3.9605,-3.7903,-3.6401,-3.5925,-3.63,-3.6735,-3.6796,-3.6816,-3.7168,-3.8242,-3.8242,-3.8711,-4.0469,-4.1426,-4.2751,-4.4903,0.0,0.0,0.0,0.0,0.0,0.0,0.0,0.0,0.0,0.0,-4.6413,-4.6413,-4.6201,-4.6182,-4.6413,-4.5874,-4.5594,-4.5594,-4.5594,-4.5594,-4.5577,-4.5052,0.0,0.0,0.0,0.0,0.0,-4.0653,-4.0653,-4.0616,-4.0306,-4.0396,-4.0484,-3.9115,-3.8343,-3.78,-3.6725,-3.6028,-3.5481,-3.4742,-3.4489,-3.4303,-3.3288,-3.3491,-3.3958,-3.3309,-3.2378,-3.1497,-3.128,-3.0689,-3.0163,-3.0163,-3.0657,-3.1122,-3.1122,-3.1122,-3.1197,-3.1451,-3.1301,-3.1122,-3.1122,-3.1331,-3.1406,-3.1152,-3.1331,-3.1406,-3.1152,-3.1122,-3.0763,-2.9879,-2.9445,-2.8936,-2.8263,-2.7969,-2.721,-2.5756,-2.5231,-2.4478,-2.334,-2.3175,-2.2945,-2.2606,-2.2255,-2.2418,-2.3108,-2.2447,-2.246,-2.3108,-2.3108,-2.3108,0.0,-4.222,-4.2797,-4.2681,-4.2085,-4.1085,-3.9411,-3.844,0.0,-3.6013,-3.5802,-3.5931,-3.6074,-3.6035,-3.6035,-3.6152,-3.6855,-3.7988,-3.9668,-4.0801,-4.2049,0.0,-4.6087,0.0,0.0,0.0,0.0,0.0,0.0,0.0,0.0,0.0,-4.5516,-4.5518,-4.624,-4.6297,-4.5614,-4.5537,-4.5537,-4.5594,-4.5537,-4.5518,-4.549,-4.509,0.0,0.0,0.0,0.0,0.0,-3.9732,-3.9714,-3.9585,-3.8872,-3.9038,-3.9438,-3.7792,-3.7156,-3.6969,-3.5882,-3.5515,-3.538,-3.459,-3.4303,-3.402,-3.2649,-3.2797,-3.3351,-3.2663,-3.202,-3.139,-3.0876,-3.0162,-2.9621,-2.9666,-3.0058,-3.0447,-3.0492,-3.0477,-3.0642,-3.1301,-3.0883,-3.0447,-3.0492,-3.0972,-3.1182,-3.0657,-3.1047,-3.1197,-3.0582,-3.0507,-3.0013,-2.8742,-2.8607,-2.8323,-2.7569,-2.6878,-2.5892,-2.4452,-2.4321,-2.393,-2.3075,-2.3083,-2.307,-2.2995,-2.2995,-2.297,-2.2932,-2.3007,-2.3045,-2.3045,-2.3083,-2.3108,-3.9546,0.0,-3.9873,-3.8546,-3.8546,-3.845,0.0,-3.6246,-3.6033,-3.5764,-3.572,-3.6007,-3.6834,-3.6445,-3.6445,-3.7773,-3.8164,-3.8672,-3.9746,-4.2324,-4.4492,-4.5545,-4.7309,-4.7732,0.0,0.0,0.0,0.0,0.0,0.0,0.0,0.0,-4.4703,-4.4613,-4.4201,-4.4509,-4.5594,-4.494,-4.494,-4.5594,-4.4913,-4.4605,-4.4558,-4.3579,0.0,0.0,0.0,0.0,-3.8336,-3.8144,-3.7713,-3.7184,-3.7621,-3.7529,-3.7149,-3.7184,-3.6783,-3.6066,-3.5095,-3.4759,-3.4539,-3.3241,-3.2446,-3.1901,-3.1546,-3.2747,-3.3977,-3.2702,-3.1939,-3.1574,-3.1976,-3.084,-2.9726,-3.0178,-3.0028,-2.9924,-3.0402,-3.0133,-2.9983,-3.0612,-3.0238,-2.9953,-3.0417,-3.0253,-3.0328,-3.1137,-3.0957,-3.0687,-3.0522,-3.0507,-3.0013,-2.8742,-2.8607,-2.8099,-2.6858,-2.659,-2.6122,-2.5203,-2.4595,-2.3748,-2.2552,-2.2882,-2.2706,-2.1895,-2.1882,-2.1669,-2.1282,-2.2096,-2.2481,-2.2493,-2.2907,-2.3108,-3.8543,-3.9265,-3.9631,-3.8681,-3.8527,-3.8257,-3.6949,-3.6346,-3.5984,-3.5712,-3.5675,-3.59,-3.6548,-3.662,-3.6914,-3.7851,-3.834,-3.9043,-4.0312,-4.3105,-4.5176,-4.5644,-4.683,0.0,0.0,0.0,0.0,0.0,0.0,0.0,0.0,0.0,-4.3929,-4.3805,-4.3006,-4.32,-4.444,-4.3989,-4.3989,-4.4451,-4.397,-4.3739,-4.3739,-4.307,0.0,0.0,0.0,0.0,-3.7683,-3.7157,-3.6703,-3.634,-3.6795,-3.667,-3.6289,-3.6148,-3.581,-3.5256,-3.4326,-3.3761,-3.3359,-3.2564,-3.2039,-3.165,-3.1292,-3.2256,-3.3195,-3.1767,-3.0959,-3.0616,-3.1033,-2.991,-2.8843,-2.9475,-2.937,-2.931,-2.9939,-2.9579,-2.94,-3.0328,-2.9759,-2.9235,-2.9579,-2.9609,-2.9729,-3.0105,-3.0118,-3.0088,-3.0088,-3.0088,-2.9699,-2.8712,-2.8607,-2.8021,-2.6621,-2.6203,-2.5548,-2.4544,-2.4125,-2.3308,-2.1986,-2.2221,-2.2221,-2.187,-2.1619,-2.1496,-2.1418,-2.1769,-2.2071,-2.2322,-2.2594,-2.2857,-3.7905,-3.9219,-4.0439,-4.0189,-3.9708,-3.9034,-3.8027,-3.7238,-3.6497,-3.5753,-3.5657,-3.5775,-3.6048,-3.6748,-3.7324,-3.748,-3.834,0.0,-4.1523,-4.3633,-4.5,-4.5,-4.5762,0.0,0.0,0.0,0.0,0.0,0.0,0.0,0.0,0.0,0.0,-4.2639,-4.1826,-4.1712,-4.2317,-4.2717,-4.297,-4.3104,-4.297,-4.2893,-4.2893,-4.2643,0.0,0.0,0.0,0.0,-3.7192,-3.6415,-3.6028,-3.5936,-3.6046,-3.6028,-3.5831,-3.5159,-3.4783,-3.4481,-3.3539,-3.2747,-3.2141,-3.2141,-3.2141,-3.2022,-3.1396,-3.165,-3.1888,-3.0763,-3.0017,-2.955,-2.9526,-2.8621,-2.7899,-2.8457,-2.8517,-2.8622,-2.928,-2.8906,-2.8801,-2.9983,-2.9265,-2.8472,-2.8577,-2.8981,-2.916,-2.8801,-2.9146,-2.9457,-2.9457,-2.9457,-2.9175,-2.8517,-2.8442,-2.7902,-2.6606,-2.5933,-2.4943,-2.3505,-2.3298,-2.27,-2.1534,-2.1405,-2.1581,-2.2046,-2.1518,-2.1455,-2.1933,-2.1543,-2.1606,-2.2071,-2.2146,-2.2406,-3.7788,-3.9219,-4.0169,-3.8738,-3.8854,-3.8873,-3.7276,-3.6788,-3.6497,-3.5753,-3.5606,-3.5907,-3.6822,-3.712,-3.7485,-3.8261,-3.9746,-4.1641,0.0,0.0,-4.5,-4.5,0.0,0.0,0.0,0.0,0.0,0.0,0.0,0.0,0.0,0.0,0.0,-4.0105,-3.9178,-3.8744,-3.8876,-4.0949,-4.2374,-4.3085,-4.2354,-4.2,-4.1942,-4.0527,-3.9765,0.0,0.0,0.0,-3.6107,-3.5465,-3.4802,-3.4247,-3.4931,-3.4784,-3.4284,-3.509,-3.472,-3.3653,-3.2769,-3.2005,-3.136,-3.136,-3.136,-3.1343,-3.1224,-3.1275,-3.1343,-3.1109,-3.0673,-3.0132,-2.9635,-2.8987,-2.8472,-2.8577,-2.8184,-2.7944,-2.8607,-2.8244,-2.7989,-2.8742,-2.8289,-2.7944,-2.8502,-2.8214,-2.8259,-2.9292,-2.9041,-2.8742,-2.8742,-2.8742,-2.8487,-2.7824,-2.775,-2.7424,-2.6563,-2.6404,-2.5475,-2.3533,-2.2817,-2.2173,-2.1534,-2.1069,-2.0855,-2.0943,-2.0351,-2.01,-2.0188,-2.0616,-2.0867,-2.0955,-2.1393,-2.1656,-3.6498,-3.7526,-3.8488,-3.8661,-3.9681,-4.02,-3.8488,-3.8104,-3.774,-3.6453,-3.6248,-3.6464,-3.6991,-3.7507,-3.8456,-4.0351,0.0,-4.2969,-4.4121,-4.4297,-4.4297,0.0,0.0,0.0,0.0,0.0,0.0,0.0,0.0,0.0,0.0,0.0,0.0,0.0,-3.8487,-3.8201,-3.8098,-3.9219,-3.9988,-4.0335,-3.995,-3.9758,-3.9719,-3.895,-3.8504,-3.8259,0.0,-3.6158,-3.56,-3.4718,-3.4137,-3.3844,-3.4211,-3.4137,-3.3812,-3.3869,-3.3349,-3.2527,-3.1922,-3.1481,-3.119,-3.119,-3.119,-3.119,-3.119,-3.092,-3.054,-3.0215,-3.0227,-3.0269,-3.0,-2.9225,-2.8555,-2.8555,-2.8062,-2.7779,-2.8457,-2.8053,-2.7809,-2.8472,-2.8064,-2.7705,-2.8019,-2.7809,-2.7809,-2.8423,-2.8259,-2.8064,-2.8064,-2.8064,-2.7944,-2.763,-2.76,-2.7137,-2.6,-2.5906,-2.519,-2.3505,-2.2168,-2.1333,-2.1081,-2.0528,-2.0377,-2.0679,-2.01,-1.9962,-2.0302,-2.0251,-2.039,-2.0704,-2.0955,-2.1232,-3.5515,-3.6098,-3.6926,-3.8516,-3.9919,-4.0739,-4.0046,-3.9592,-3.8969,-3.7834,-3.752,-3.7431,-3.7319,-3.7895,-3.9217,-4.1718,-4.2812,-4.3456,-4.3672,-4.3691,0.0,0.0,0.0,0.0,0.0,0.0,0.0,0.0,0.0,0.0,0.0,0.0,0.0,0.0,-3.7817,-3.7745,-3.7589,-3.7336,-3.748,-3.8007,-3.8007,-3.8007,-3.7988,-3.7796,-3.7552,-3.7255,-3.6179,-3.5566,-3.5233,-3.4289,-3.3868,-3.3807,-3.3807,-3.3807,-3.3707,-3.2934,-3.2366,-3.1897,-3.1487,-3.1271,-3.119,-3.119,-3.119,-3.1157,-3.0987,-3.0548,-2.9996,-2.9539,-2.9818,-3.0187,-2.9903,-2.9278,-2.8724,-2.8724,-2.8247,-2.7961,-2.8464,-2.8061,-2.775,-2.8263,-2.7959,-2.76,-2.76,-2.76,-2.76,-2.76,-2.76,-2.76,-2.76,-2.76,-2.7534,-2.7357,-2.7331,-2.6701,-2.508,-2.4762,-2.4237,-2.3197,-2.1827,-2.0968,-2.0704,-2.0264,-2.015,-2.0478,-2.0024,-2.0024,-2.049,-2.0024,-2.0024,-2.049,-2.049,-2.0717,-3.5806,-3.615,-3.6321,-3.744,-3.7992,-3.8854,-4.1104,-4.0412,-3.9477,-4.0092,-3.9638,-3.8942,-3.8313,-3.8311,-3.9037,-4.0976,-4.1903,-4.2696,0.0,0.0,0.0,0.0,0.0,0.0,0.0,0.0,0.0,0.0,0.0,0.0,0.0,0.0,0.0,0.0,0.0,-3.6073,-3.6066,-3.5065,-3.5728,-3.8007,-3.8007,-3.8007,-3.7969,-3.7161,-3.6781,-3.6702,-3.5619,-3.5021,-3.4737,-3.433,-3.4018,-3.3807,-3.3807,-3.3807,-3.3748,-3.3302,-3.284,-3.2366,-3.1915,-3.1507,-3.119,-3.119,-3.119,-3.1072,-3.0395,-3.0142,-3.0089,-3.0051,-3.0085,-2.9853,-2.8715,-2.8888,-2.9339,-2.9339,-2.8873,-2.8455,-2.8517,-2.8039,-2.76,-2.766,-2.763,-2.76,-2.76,-2.76,-2.76,-2.76,-2.76,-2.76,-2.76,-2.76,-2.7331,-2.6642,-2.659,-2.576,-2.371,-2.291,-2.2492,-2.2396,-2.2263,-2.1732,-2.0729,-2.0654,-2.0402,-1.9874,-1.9823,-1.9823,-1.9861,-1.9823,-1.9823,-1.9861,-1.9861,-1.9886,-3.4617,-3.5425,-3.6198,-3.6521,-3.7034,-3.807,-4.0452,-4.0912,-4.0796,-4.0554,-4.0681,-4.0468,-3.9212,-3.9556,-4.0244,-4.0962,-4.1808,-4.2673,0.0,0.0,0.0,0.0,0.0,0.0,0.0,0.0,0.0,0.0,0.0,0.0,0.0,0.0,0.0,0.0,0.0,-3.4323,-3.4279,-3.3885,-3.4089,-3.4907,-3.54,-3.5911,-3.6423,-3.6096,-3.5661,-3.5109,-3.4365,-3.3705,-3.3118,-3.2641,-3.241,-3.2302,-3.2302,-3.2302,-3.2318,-3.2426,-3.2156,-3.1747,-3.1794,-3.1236,-3.0531,-3.0531,-3.0209,-2.9788,-2.9517,-2.9076,-2.877,-2.9279,-2.9433,-2.9507,-2.9972,-2.9687,-2.9267,-2.9267,-2.8529,-2.7829,-2.7829,-2.737,-2.6986,-2.6986,-2.6986,-2.6866,-2.6422,-2.6692,-2.6986,-2.6986,-2.6986,-2.6986,-2.6986,-2.6986,-2.6698,-2.6012,-2.5492,-2.4555,-2.3029,-2.2539,-2.2171,-2.182,-2.1794,-2.1606,-2.1219,-2.088,-2.0415,-1.9811,-1.9798,-1.9798,-1.9798,-1.9798,-1.9798,-1.9798,-1.9798,-1.9798,-3.3688,-3.4414,-3.5293,-3.5727,-3.6412,-3.7612,-4.0043,-4.0945,-4.1415,-4.1981,-4.1767,-4.1031,-3.9654,-3.9563,0.0,0.0,-4.0489,0.0,0.0,0.0,0.0,0.0,0.0,0.0,0.0,0.0,0.0,0.0,0.0,0.0,0.0,0.0,0.0,0.0,0.0,0.0,-3.2951,-3.2648,-3.2533,-3.2665,-3.291,-3.3602,-3.4673,-3.4673,-3.4353,-3.375,-3.3126,-3.2605,-3.2147,-3.1517,-3.1308,-3.1397,-3.1397,-3.1397,-3.1433,-3.1715,-3.1528,-3.116,-3.1268,-3.0697,-2.9904,-2.979,-2.9397,-2.8959,-2.8687,-2.8247,-2.7908,-2.8467,-2.8619,-2.8907,-3.0194,-3.0177,-2.9676,-2.9035,-2.8281,-2.7616,-2.7194,-2.667,-2.6273,-2.6273,-2.6273,-2.6138,-2.5689,-2.5974,-2.6273,-2.6273,-2.6273,-2.6273,-2.6273,-2.6273,-2.5964,-2.5043,-2.4245,-2.3299,-2.2086,-2.1863,-2.1631,-2.1282,-2.1257,-2.1257,-2.1257,-2.0893,-2.0415,-1.9811,-1.9798,-1.9798,-1.9798,-1.9798,-1.9798,-1.9798,-1.9798,-1.9798,-3.3233,-3.3197,-3.341,-3.5056,-3.6093,-3.7417,-4.017,-4.0439,-4.115,-4.4801,-4.2956,-4.0416,-3.9571,-3.8034,0.0,-3.698,0.0,0.0,0.0,0.0,0.0,0.0,0.0,0.0,0.0,0.0,0.0,0.0,0.0,0.0,0.0,0.0,0.0,0.0,0.0,0.0,-3.2168,-3.118,-3.1079,-3.1842,-3.0924,-3.1321,-3.2891,-3.2891,-3.2891,-3.2833,-3.2025,-3.1874,-3.21,-3.1242,-3.1078,-3.1378,-3.1378,-3.1378,-3.1378,-3.1397,-3.1136,-3.074,-3.0338,-2.9883,-2.9437,-2.9103,-2.8976,-2.8807,-2.8027,-2.779,-2.779,-2.7807,-2.7807,-2.7976,-2.879,-3.0093,-3.067,-2.8677,-2.8286,-2.803,-2.6757,-2.6016,-2.56,-2.56,-2.56,-2.56,-2.5585,-2.56,-2.56,-2.56,-2.56,-2.56,-2.56,-2.5576,-2.5057,-2.3729,-2.287,-2.1925,-2.0783,-2.0691,-2.0691,-2.0679,-2.0679,-2.0679,-2.0691,-2.0691,-2.0415,-1.9811,-1.9798,-1.9798,-1.9798,-1.9798,-1.9798,-1.9798,-1.9798,-1.9798,-3.2119,-3.2699,-3.3524,-3.3698,-3.5628,-3.8016,-4.0053,-4.0272,-4.0578,-4.2535,-4.1208,-3.9646,-3.9376,-3.8001,0.0,0.0,0.0,0.0,0.0,0.0,0.0,0.0,0.0,0.0,0.0,0.0,0.0,0.0,0.0,0.0,0.0,0.0,0.0,0.0,0.0,0.0,-2.9473,-2.9159,-2.9079,-2.9219,-2.8939,-3.0247,-3.2891,-3.2891,-3.2256,-3.1109,-3.0681,-3.0238,-2.9817,-2.9833,-2.9792,-2.9702,-2.9702,-2.9702,-2.9776,-3.0356,-3.0303,-3.0012,-3.0471,-2.9445,-2.8034,-2.8439,-2.7332,-2.598,-2.6776,-2.6674,-2.6471,-2.7519,-2.7807,-2.7858,-2.8094,-2.889,-2.9269,-2.7779,-2.7136,-2.6665,-2.5891,-2.5287,-2.4903,-2.4903,-2.4903,-2.4739,-2.4283,-2.4575,-2.4903,-2.4903,-2.4903,-2.4903,-2.4903,-2.4115,-2.3233,-2.236,-2.2011,-2.1355,-2.0178,-2.0465,-2.0515,-2.0087,-2.0062,-2.0264,-2.0679,-2.0691,-2.0415,-1.9811,-1.9798,-1.9798,-1.9798,-1.9798,-1.9798,-1.9798,-1.9798,-1.9798,-3.2338,-3.3242,-3.4319,-3.4564,-3.6594,-3.877,-3.9819,-4.0794,-4.1617,-4.2,-4.0598,-3.9092,-3.8392,-3.6935,0.0,0.0,0.0,0.0,0.0,0.0,0.0,0.0,0.0,0.0,0.0,0.0,0.0,0.0,0.0,0.0,0.0,0.0,0.0,0.0,0.0,0.0,-2.7793,-2.7773,-2.7726,-2.7621,-2.7595,-2.8768,-3.0945,-3.0933,-3.0352,-2.9398,-2.9129,-2.855,-2.783,-2.823,-2.8305,-2.8157,-2.8077,-2.8235,-2.8528,-2.8705,-2.8821,-2.8886,-2.8889,-2.7977,-2.6802,-2.6983,-2.5979,-2.4878,-2.5945,-2.5947,-2.5862,-2.7029,-2.735,-2.735,-2.735,-2.7503,-2.7483,-2.6833,-2.6395,-2.5917,-2.5171,-2.4524,-2.4111,-2.4185,-2.4201,-2.4066,-2.367,-2.3939,-2.4201,-2.4201,-2.4201,-2.4111,-2.3879,-2.3156,-2.2452,-2.1781,-2.1459,-2.0874,-1.9875,-2.0125,-2.0201,-1.9823,-1.9798,-1.9962,-2.0339,-2.0352,-2.0189,-1.9811,-1.9798,-1.9798,-1.9798,-1.9798,-1.9798,-1.9798,-1.9798,-1.9798,-3.3293,-3.4249,-3.5242,-3.6666,-3.8376,-3.9682,-3.9628,-4.1601,-4.3188,-4.2235,-4.0457,-3.8565,-3.6904,-3.5161,0.0,0.0,0.0,0.0,0.0,0.0,0.0,0.0,0.0,0.0,0.0,0.0,0.0,0.0,0.0,0.0,0.0,0.0,0.0,0.0,0.0,0.0,-2.6894,-2.6875,-2.6852,0.0,-2.6721,-2.7077,-2.7771,-2.7856,-2.7857,-2.7769,-2.7516,-2.6988,-2.6332,-2.6783,-2.6926,-2.6879,-2.67,-2.7056,-2.7603,-2.6869,-2.7053,-2.7534,-2.6444,-2.599,-2.5805,-2.5232,-2.493,-2.4882,-2.5364,-2.5456,-2.5542,-2.6285,-2.6505,-2.6505,-2.6505,-2.5998,-2.5545,-2.5808,-2.5833,-2.5528,-2.4582,-2.3805,-2.3328,-2.3541,-2.3524,-2.3458,-2.3415,-2.343,-2.343,-2.343,-2.343,-2.3221,-2.2688,-2.252,-2.2212,-2.1615,-2.0952,-2.0329,-1.9711,-1.966,-1.9673,-1.9723,-1.9736,-1.9748,-1.9798,-1.9798,-1.9798,-1.9798,-1.9798,-1.9798,-1.9798,-1.9798,-1.9798,-1.9798,-1.9798,-1.9798,-3.2179,-3.2793,-3.387,-3.5957,-3.8523,-4.0532,-4.0527,-4.0677,-4.0385,-3.8899,-3.7871,-3.6949,-3.5942,-3.3833,0.0,0.0,0.0,0.0,0.0,0.0,0.0,0.0,0.0,0.0,0.0,0.0,0.0,0.0,0.0,0.0,0.0,0.0,0.0,0.0,0.0,-2.6855,-2.5996,-2.5977,-2.5954,0.0,-2.5864,-2.5892,-2.6002,-2.7316,-2.7525,-2.689,-2.6814,-2.6584,-2.6288,-2.7056,-2.7175,-2.6898,-2.6841,-2.6833,-2.6851,-2.6657,-2.6722,-2.6822,-2.6563,-2.5888,-2.5157,-2.5343,-2.4397,-2.339,-2.4411,-2.4323,-2.4019,-2.4778,-2.4965,-2.4965,-2.4965,-2.4863,-2.4747,-2.4805,-2.4497,-2.4191,-2.418,-2.3581,-2.3129,-2.3396,-2.2985,-2.2472,-2.2159,-2.2099,-2.2099,-2.2099,-2.2099,-2.2054,-2.1919,-2.1089,-2.0456,-2.031,-1.9367,-1.8687,-1.8555,-1.8543,-1.8731,-1.9146,-1.9171,-1.9359,-1.9786,-1.9798,-1.9798,-1.9798,-1.9798,-1.9798,-1.9798,-1.9798,-1.9798,-1.9798,-1.9798,-1.9798,-3.2184,-3.2951,-3.4147,-3.6523,-3.8499,-3.973,-3.931,-3.8382,-3.7366,-3.648,-3.6216,-3.55,-3.3442,0.0,0.0,0.0,0.0,0.0,0.0,0.0,0.0,0.0,0.0,0.0,0.0,0.0,0.0,0.0,0.0,0.0,0.0,0.0,0.0,0.0,-2.6323,-2.613,-2.5703,-2.5703,-2.5683,-2.5657,-2.5628,-2.5535,-2.5421,-2.6275,-2.6409,-2.5981,-2.5981,-2.5896,-2.5782,-2.6097,-2.6076,-2.5883,-2.569,-2.5778,-2.597,-2.5585,-2.5695,-2.597,-2.5585,-2.5053,-2.4566,-2.4627,-2.3873,-2.31,-2.3938,-2.3828,-2.3545,-2.4288,-2.4491,-2.4491,-2.4491,-2.4237,-2.3966,-2.3966,-2.3767,-2.3619,-2.3858,-2.3331,-2.2816,-2.2857,-2.2566,-2.2179,-2.1774,-2.1695,-2.159,-2.1276,-2.15,-2.1496,-2.0897,-2.028,-1.9792,-1.9529,-1.8737,-1.8204,-1.8204,-1.8204,-1.8329,-1.8594,-1.8857,-1.9121,-1.9396,-1.9673,-1.9798,-1.9798,-1.9798,-1.9798,-1.9798,-1.9798,-1.9798,-1.9798,-1.9798,-1.9798,-3.219,-3.3533,-3.504,-3.7228,-3.8213,-3.8392,-3.7399,-3.6084,-3.4969,-3.4522,-3.4526,-3.3769,0.0,0.0,0.0,0.0,0.0,0.0,0.0,0.0,0.0,0.0,0.0,0.0,0.0,0.0,0.0,0.0,0.0,0.0,0.0,0.0,-2.5533,-2.5572,-2.5598,-2.5632,-2.5683,-2.5683,-2.5703,-2.5703,-2.5633,-2.5539,-2.5404,-2.5357,-2.5308,-2.5308,-2.5308,-2.5308,-2.5269,-2.5013,-2.4861,-2.4768,-2.4426,-2.468,-2.5117,-2.4456,-2.4622,-2.5099,-2.4428,-2.419,-2.4133,-2.3806,-2.3471,-2.3253,-2.3585,-2.3459,-2.3342,-2.3949,-2.4118,-2.4118,-2.4118,-2.3663,-2.3207,-2.3207,-2.3207,-2.3289,-2.3569,-2.3076,-2.2492,-2.2303,-2.2037,-2.1766,-2.1413,-2.135,-2.1171,-2.0617,-2.1006,-2.0985,-1.9982,-1.9786,-1.9519,-1.899,-1.8393,-1.8019,-1.7915,-1.7915,-1.799,-1.8191,-1.8607,-1.8945,-1.9133,-1.9572,-1.9798,-1.9798,-1.9798,-1.9798,-1.9798,-1.9798,-1.9798,-1.9798,-1.9798,-1.9798,-3.0694,-3.3083,-3.5585,-3.6622,-3.7505,-3.7694,-3.6111,-3.5592,-3.4805,0.0,-3.1578,-3.0942,0.0,0.0,0.0,0.0,0.0,0.0,0.0,0.0,0.0,0.0,0.0,0.0,0.0,0.0,0.0,0.0,0.0,0.0,0.0,-2.5474,-2.5496,-2.5503,-2.5566,-2.5603,-2.5607,-2.5662,-2.5703,-2.5703,-2.5633,-2.5559,-2.5473,-2.5415,-2.5354,-2.5308,-2.5308,-2.5308,-2.5303,-2.5248,-2.5068,-2.4797,-2.4746,-2.4568,-2.4337,-2.4245,-2.4263,-2.4337,-2.4245,-2.419,-2.4133,-2.3806,-2.3471,-2.3147,-2.2919,-2.2668,-2.2465,-2.2567,-2.2584,-2.2584,-2.2584,-2.2516,-2.2448,-2.2448,-2.2448,-2.262,-2.3302,-2.2866,-2.2312,-2.2148,-2.1011,-2.0035,-1.9977,-1.9977,-1.9947,-1.9857,-1.9917,-1.9896,-1.9752,-1.9317,-1.8814,-1.83,-1.7744,-1.7225,-1.6769,-1.6726,-1.7162,-1.8141,-1.8279,-1.8731,-1.966,-1.9761,-1.9798,-1.9798,-1.9798,-1.9798,-1.9798,-1.9798,-1.9798,-1.9798,-1.9798,-1.9798,-2.9725,-3.1274,-3.2896,-3.374,-3.4558,-3.4949,-3.4218,-3.3723,-3.2971,-3.1364,-2.9984,0.0,0.0,0.0,0.0,0.0,0.0,0.0,0.0,0.0,0.0,0.0,0.0,0.0,0.0,0.0,0.0,0.0,0.0,0.0,-2.5348,-2.5379,-2.5413,-2.5441,-2.5477,0.0,-2.5601,-2.5633,-2.5661,-2.5703,-2.5633,-2.5575,-2.5554,-2.545,-2.5367,-2.5308,-2.5308,-2.5308,-2.5284,-2.5173,-2.5041,-2.4897,-2.4704,-2.4528,-2.4348,-2.4247,-2.419,-2.419,-2.419,-2.419,-2.417,-2.4026,-2.3746,-2.3414,-2.3081,-2.2764,-2.2487,-2.2349,-2.2296,-2.2296,-2.2296,-2.2296,-2.2296,-2.2296,-2.2296,-2.2381,-2.2702,-2.253,-2.2149,-2.1585,-2.0702,-1.9965,-1.9729,-1.9708,-1.9708,-1.9708,-1.9708,-1.9584,-1.9281,-1.9043,-1.8574,-1.7747,-1.7442,-1.7076,-1.6552,-1.65,-1.6701,-1.7225,-1.7564,-1.8091,-1.8882,-1.9183,-1.9497,-1.9798,-1.9798,-1.9798,-1.9798,-1.9798,-1.9798,-1.9798,-1.9798,-1.9798,-2.8622,-2.9627,-3.0623,-3.1033,-3.2044,-3.2748,-3.2095,-3.1697,-3.1167,0.0,0.0,0.0,0.0,0.0,0.0,0.0,0.0,0.0,0.0,0.0,0.0,0.0,0.0,0.0,0.0,0.0,0.0,0.0,0.0,0.0,-2.5308,-2.5308,-2.5331,-2.5375,-2.5387,-2.5459,-2.5567,-2.5605,-2.5658,-2.5703,-2.5658,-2.5628,-2.5599,-2.5503,-2.5293,-2.5028,-2.5226,-2.5308,-2.5298,-2.5146,-2.4925,-2.4688,-2.4614,-2.4414,-2.4163,-2.4192,-2.419,-2.4171,-2.3969,-2.4025,-2.4135,-2.3712,-2.363,-2.3624,-2.316,-2.2863,-2.266,-2.245,-2.2349,-2.2296,-2.2296,-2.2296,-2.2296,-2.2296,-2.2296,-2.2296,-2.2296,-2.2209,-2.1901,-2.115,-2.0616,-2.0176,-1.9764,-1.9708,-1.9708,-1.9708,-1.9708,-1.9566,-1.9151,-1.9114,-1.8688,-1.7626,-1.7504,-1.7229,-1.6552,-1.65,-1.6563,-1.6722,-1.7137,-1.7626,-1.8179,-1.8569,-1.9045,-1.9597,-1.961,-1.9673,-1.9798,-1.9798,-1.9798,-1.9798,-1.9798,-1.9798,-2.702,-2.8768,-3.0386,-2.9554,-3.1187,-3.2343,-2.9866,-2.9955,-3.0108,-2.8468,0.0,0.0,0.0,0.0,0.0,0.0,0.0,0.0,0.0,0.0,0.0,0.0,0.0,0.0,0.0,0.0,0.0,0.0,0.0,0.0,-2.5308,-2.5308,-2.5308,-2.5317,-2.5375,-2.5438,-2.5496,-2.5633,-2.5703,-2.5703,-2.5703,-2.5661,-2.5602,-2.5598,-2.5102,-2.4298,-2.4994,-2.5308,-2.5308,-2.5298,-2.4722,-2.3926,-2.4532,-2.4159,-2.3341,-2.3971,-2.419,-2.408,-2.3318,-2.3566,-2.3951,-2.2418,-2.2737,-2.3548,-2.2767,-2.2611,-2.2695,-2.2682,-2.2487,-2.2296,-2.2296,-2.2296,-2.2296,-2.2296,-2.2296,-2.2296,-2.2296,-2.1943,-2.1506,-2.1071,-2.0616,-2.0176,-1.9764,-1.9708,-1.9708,-1.9708,-1.9708,-1.969,-1.9657,-1.9657,-1.9244,-1.8185,-1.8066,-1.7646,-1.6595,-1.65,-1.6748,-1.7322,-1.7385,-1.7626,-1.8179,-1.8229,-1.8481,-1.9033,-1.9045,-1.9284,-1.9798,-1.9798,-1.9798,-1.9798,-1.9798,-1.9798,-2.6285,-2.7165,-2.8134,-2.7747,-2.8303,-2.8848,-2.8422,-2.8668,-2.8625,-2.7476,0.0,0.0,0.0,0.0,0.0,0.0,0.0,0.0,0.0,0.0,0.0,0.0,0.0,0.0,0.0,0.0,0.0,0.0,0.0,0.0,-2.5105,-2.5224,-2.5308,-2.5308,-2.5317,-2.5391,-2.551,-2.5597,-2.566,-2.5684,-2.5137,-2.4843,-2.4801,-2.4242,-2.3809,-2.3499,-2.3686,-2.3739,-2.3697,-2.3697,-2.3477,-2.3169,-2.3286,-2.3037,-2.2644,-2.2747,-2.2736,-2.262,-2.2326,-2.2418,-2.2565,-2.1996,-2.199,-2.2231,-2.2189,-2.2084,-2.2051,-2.2367,-2.2374,-2.2296,-2.2296,-2.2296,-2.2296,-2.2296,-2.2296,-2.2296,-2.2296,-2.1928,-2.1476,-2.1071,-2.0616,-2.0176,-1.9764,-1.9708,-1.9708,-1.9708,-1.9708,-1.9708,-1.9708,-1.9708,-1.9281,-1.8224,-1.8106,-1.7666,-1.6595,-1.65,-1.6588,-1.681,-1.6823,-1.7087,-1.7652,-1.7677,-1.794,-1.8469,-1.882,-1.9259,-1.9798,-1.9798,-1.9798,-1.9798,-1.9798,-1.9798,-2.5937,-2.6306,-2.6837,-2.6459,-2.6767,-2.7148,-2.7074,-2.7365,-2.7415,-2.6578,0.0,0.0,0.0,0.0,0.0,0.0,0.0,0.0,0.0,0.0,0.0,0.0,0.0,0.0,0.0,0.0,0.0,0.0,0.0,0.0,-2.5004,-2.5135,-2.5224,-2.5303,-2.5327,-2.5387,-2.5474,-2.5556,-2.5474,-2.5212,-2.4668,-2.4258,-2.3984,-2.3373,-2.2933,-2.2669,-2.257,-2.2649,-2.2824,-2.281,-2.2624,-2.2376,-2.2462,-2.2264,-2.1935,-2.1976,-2.1938,-2.1824,-2.148,-2.1555,-2.1702,-2.1133,-2.1222,-2.1524,-2.1498,-2.1425,-2.1505,-2.2188,-2.2162,-2.2017,-2.2344,-2.236,-2.2296,-2.2296,-2.2296,-2.2268,-2.2106,-2.1943,-2.172,-2.1275,-2.083,-2.0399,-1.9965,-1.9782,-1.9708,-1.9708,-1.9708,-1.9708,-1.9708,-1.9708,-1.9281,-1.8224,-1.8106,-1.7666,-1.6595,-1.65,-1.65,-1.65,-1.65,-1.6685,-1.7074,-1.7087,-1.735,-1.7915,-1.8292,-1.8832,-1.9547,-1.971,-1.9798,-1.9798,-1.9798,-1.9798,0.0,0.0,0.0,-2.5755,-2.6773,-2.7568,-2.5808,0.0,-2.6547,-2.5767,0.0,0.0,0.0,0.0,0.0,0.0,0.0,0.0,0.0,0.0,0.0,0.0,0.0,0.0,0.0,0.0,0.0,0.0,0.0,-2.4855,-2.4992,-2.501,-2.5099,-2.5284,-2.5359,-2.5398,-2.5394,-2.5518,-2.513,-2.4292,-2.4314,-2.3926,-2.3164,-2.3066,-2.2556,-2.176,-2.1759,-2.216,-2.282,-2.2747,-2.2239,-2.153,-2.218,-2.1902,-2.12,-2.1747,-2.1923,-2.1744,-2.0804,-2.1015,-2.1464,-1.9829,-2.0399,-2.1565,-2.0733,-2.0679,-2.11,-2.2162,-2.1867,-2.1457,-2.2432,-2.2487,-2.2296,-2.2296,-2.2296,-2.2149,-2.1703,-2.1943,-2.212,-2.1658,-2.1244,-2.0813,-2.0365,-1.9947,-1.9708,-1.9708,-1.9708,-1.9708,-1.9708,-1.969,-1.9262,-1.8224,-1.8086,-1.7646,-1.6595,-1.65,-1.65,-1.65,-1.65,-1.65,-1.65,-1.65,-1.6785,-1.7373,-1.7398,-1.7903,-1.8958,-1.9522,-1.9786,-1.9798,-1.9798,-1.9798,-2.6289,0.0,0.0,0.0,0.0,0.0,0.0,0.0,0.0,0.0,0.0,0.0,0.0,0.0,0.0,0.0,0.0,0.0,0.0,0.0,0.0,0.0,0.0,0.0,0.0,0.0,0.0,0.0,-2.4469,-2.467,-2.4849,-2.5084,-2.5234,-2.5303,-2.5322,-2.5346,-2.539,-2.4862,-2.4484,-2.4292,-2.3091,-2.2437,-2.2246,-2.1582,-2.1152,-2.0936,-2.0886,-2.0986,-2.1151,-2.1047,-2.0853,-2.065,-2.0847,-2.0317,-1.9559,-2.0281,-2.0032,-1.9362,-1.9724,-1.9908,-1.9921,-1.9444,-1.9516,-1.9784,-1.9891,-2.0206,-2.0692,-2.1364,-2.1776,-2.2053,-2.2334,-2.2363,-2.2296,-2.2296,-2.2032,-2.1764,-2.1643,-2.1477,-2.1213,-2.0749,-2.033,-2.0015,-1.9892,-1.9764,-1.9708,-1.9708,-1.9708,-1.9708,-1.9708,-1.9369,-1.8855,-1.8185,-1.7747,-1.7229,-1.6552,-1.65,-1.65,-1.65,-1.65,-1.65,-1.65,-1.65,-1.6575,-1.676,-1.7184,-1.7561,-1.784,-1.8781,-1.9409,-1.9798,-1.9798,-1.9798,-2.7305,-2.7539,-2.7948,-2.6464,0.0,0.0,-2.5515,-2.5451,0.0,0.0,0.0,0.0,0.0,0.0,0.0,0.0,0.0,0.0,0.0,0.0,0.0,0.0,0.0,0.0,0.0,0.0,0.0,0.0,-2.4238,-2.4461,-2.4662,-2.4987,-2.5168,-2.5168,-2.5259,-2.5327,-2.5359,-2.4923,-2.4385,-2.3758,-2.2802,-2.2002,-2.1348,-2.082,-2.0605,-2.0605,-2.0563,-2.0321,-1.9957,-1.9873,-2.0025,-2.0268,-1.99,-1.9408,-1.8886,-1.8948,-1.8712,-1.8441,-1.8907,-1.9168,-1.9297,-1.9297,-1.923,-1.9183,-1.9444,-1.9597,-1.9802,-2.0564,-2.1155,-2.1532,-2.139,-2.135,-2.1434,-2.1769,-2.1636,-2.1412,-2.1364,-2.1166,-2.0926,-2.0649,-2.0244,-1.9947,-1.9947,-1.9803,-1.9708,-1.9708,-1.9708,-1.9621,-1.9406,-1.9095,-1.8612,-1.7847,-1.7483,-1.7076,-1.6552,-1.65,-1.65,-1.65,-1.65,-1.65,-1.65,-1.65,-1.65,-1.65,-1.6848,-1.7137,-1.741,-1.8254,-1.8933,-1.9459,-1.9698,-1.9798,-2.8555,-2.8379,-2.8202,-2.7152,-2.6867,0.0,-2.5785,-2.5551,-2.5549,0.0,0.0,0.0,0.0,0.0,0.0,0.0,0.0,0.0,0.0,0.0,0.0,0.0,0.0,0.0,0.0,0.0,-2.361,-2.3692,-2.4036,-2.4312,-2.4495,-2.4797,-2.4986,-2.5004,-2.5168,-2.5274,-2.5308,-2.5277,-2.4493,-2.2992,-2.2955,-2.2114,-2.0586,-2.0605,-2.0605,-2.0605,-2.0605,-2.0134,-1.9358,-1.9356,-1.9602,-1.9953,-1.9177,-1.8819,-1.8615,-1.7814,-1.7838,-1.8243,-1.8298,-1.87,-1.9191,-1.9286,-1.9297,-1.9289,-1.9266,-1.9036,-1.8972,-1.9946,-2.0322,-2.0401,-2.0191,-2.0082,-2.02,-2.1004,-2.1123,-2.1028,-2.0908,-2.0862,-2.0861,-2.0861,-2.0516,-2.0229,-2.0229,-1.9929,-1.969,-1.9621,-1.9603,-1.9424,-1.8874,-1.8746,-1.8361,-1.7415,-1.725,-1.7013,-1.6531,-1.65,-1.65,-1.65,-1.65,-1.65,-1.65,-1.65,-1.65,-1.65,-1.65,-1.6773,-1.731,-1.7903,-1.8455,-1.892,-1.9409,-1.966,-2.873,-2.8809,-2.8945,0.0,0.0,0.0,-2.5732,-2.5552,-2.5595,0.0,0.0,0.0,0.0,0.0,0.0,0.0,0.0,0.0,0.0,0.0,0.0,0.0,0.0,0.0,0.0,0.0,-2.3117,-2.366,-2.4173,-2.4452,-2.4503,-2.4731,-2.4884,-2.5004,-2.5034,-2.5141,-2.5303,-2.4667,-2.386,-2.2901,-2.2277,-2.1456,-2.0515,-2.0585,-2.0605,-2.0605,-2.0605,-2.0508,-2.0311,-2.0261,-1.9469,-1.8261,-1.8108,-1.7609,-1.7042,-1.7483,-1.7225,-1.6814,-1.8036,-1.8478,-1.8577,-1.9114,-1.9297,-1.9266,-1.9119,-1.9407,-1.9878,-2.025,-2.0228,-2.0238,-2.0814,-2.05,-2.02,-2.1004,-2.0659,-2.0151,-2.0112,-2.0024,-1.9945,-1.9945,-1.9874,-1.9836,-1.9836,-1.9747,-1.9548,-1.9132,-1.9062,-1.8855,-1.8341,-1.7887,-1.7524,-1.7333,-1.6909,-1.6616,-1.6522,-1.65,-1.65,-1.65,-1.65,-1.65,-1.65,-1.65,-1.65,-1.65,-1.65,-1.655,-1.6685,-1.7702,-1.8254,-1.8367,-1.8468,-1.8732,0.0,0.0,0.0,-2.8043,0.0,0.0,0.0,-2.5602,-2.5605,-2.5637,-2.5682,0.0,0.0,0.0,0.0,0.0,0.0,0.0,0.0,0.0,0.0,0.0,0.0,0.0,0.0,0.0,-2.2984,-2.366,-2.3961,-2.4183,-2.4339,-2.4545,-2.4727,-2.4897,-2.4968,-2.5094,-2.5303,-2.4909,-2.4097,-2.2898,-2.249,-2.1669,-2.0508,-2.0539,-2.0564,-2.0605,-2.0605,-2.0352,-1.9922,-1.945,-1.8448,-1.7236,-1.7634,-1.7269,-1.6506,-1.6465,-1.6352,-1.6318,-1.7046,-1.7734,-1.8339,-1.8606,-1.8967,-1.9274,-1.9182,-1.9245,-1.9354,-1.9306,-1.9104,-1.9,-1.9401,-1.9215,-1.9101,-1.9858,-1.9595,-1.9194,-1.9374,-1.9482,-1.9476,-1.9249,-1.9465,-1.9708,-1.9708,-1.9708,-1.9603,-1.935,-1.9062,-1.8708,-1.8185,-1.7626,-1.7188,-1.693,-1.6659,-1.65,-1.65,-1.65,-1.65,-1.65,-1.65,-1.65,-1.65,-1.65,-1.65,-1.65,-1.65,-1.65,-1.65,-1.7064,-1.7513,-1.7802,-1.8078,-1.8481,0.0,0.0,0.0,0.0,0.0,-2.7569,0.0,0.0,0.0,-2.5683,0.0,0.0,0.0,0.0,0.0,0.0,0.0,0.0,0.0,0.0,0.0,0.0,0.0,0.0,0.0,0.0,-2.2923,-2.3477,-2.3639,-2.3816,-2.4094,-2.4321,-2.4543,-2.479,-2.491,-2.5065,-2.5303,-2.5308,-2.4484,-2.2873,-2.2888,-2.2058,-2.048,-2.0485,-2.0539,-2.0605,-2.0605,-2.0117,-1.9258,-1.8535,-1.7611,-1.6673,-1.7132,-1.6885,-1.6157,-1.5462,-1.5539,-1.6032,-1.6294,-1.7136,-1.8136,-1.8331,-1.8805,-1.9297,-1.9297,-1.8864,-1.8372,-1.8306,-1.7937,-1.7659,-1.7946,-1.7901,-1.7986,-1.8724,-1.8622,-1.8441,-1.873,-1.8979,-1.9055,-1.8678,-1.9014,-1.9399,-1.9518,-1.9548,-1.9479,-1.9262,-1.8874,-1.84,-1.7867,-1.7415,-1.6972,-1.6552,-1.65,-1.65,-1.65,-1.65,-1.65,-1.65,-1.65,-1.65,-1.65,-1.65,-1.65,-1.65,-1.65,-1.65,-1.65,-1.65,-1.676,-1.7247,-1.7677,-1.8179,0.0,0.0,0.0,0.0,-2.7715,0.0,0.0,0.0,-2.5683,-2.5703,0.0,0.0,0.0,0.0,0.0,0.0,0.0,0.0,0.0,0.0,0.0,0.0,0.0,0.0,0.0,0.0,0.0,-2.281,-2.3369,-2.3714,-2.3746,-2.4056,-2.441,-2.479,-2.4799,-2.4968,-2.5303,-2.5308,-2.4471,-2.2814,-2.2859,-2.2034,-2.042,-2.0476,-2.0539,-2.0605,-2.0605,-2.0117,-1.9297,-1.9199,-1.8181,-1.6621,-1.587,-1.5485,-1.5346,-1.5231,-1.5241,-1.5504,-1.6871,-1.7363,-1.7645,-1.8981,-1.9375,-1.9297,-1.9297,-1.8517,-1.7755,-1.8372,-1.7723,-1.7128,-1.8448,-1.8302,-1.7986,-1.8724,-1.8597,-1.8323,-1.8356,-1.8338,-1.8331,-1.8269,-1.8166,-1.8285,-1.89,-1.8987,-1.8669,-1.7727,-1.7524,-1.7291,-1.6752,-1.6637,-1.6573,-1.6522,-1.65,-1.65,-1.65,-1.65,-1.65,-1.65,-1.65,-1.65,-1.65,-1.65,-1.65,-1.65,-1.65,-1.65,-1.65,-1.65,-1.6538,-1.66,-1.6651,-1.7024,0.0,0.0,0.0,0.0,0.0,0.0,-2.5898,0.0,-2.5703,0.0,0.0,0.0,0.0,0.0,0.0,0.0,-2.5703,0.0,0.0,0.0,0.0,0.0,0.0,0.0,0.0,0.0,0.0,0.0,0.0,-2.3482,-2.3692,-2.4016,-2.4384,-2.479,-2.4685,-2.4842,-2.5303,-2.4713,-2.3889,-2.2797,-2.2319,-2.1478,-2.034,-2.0418,-2.0468,-2.0483,-2.0564,-2.0077,-1.9212,-1.8749,-1.781,-1.6605,-1.5717,-1.5316,-1.5258,-1.5258,-1.5232,-1.5276,-1.5853,-1.6283,-1.6846,-1.8271,-1.8363,-1.7997,-1.8463,-1.783,-1.7056,-1.7719,-1.7404,-1.7093,-1.8014,-1.802,-1.7884,-1.82,-1.7988,-1.7716,-1.772,-1.7709,-1.7681,-1.7681,-1.7736,-1.7786,-1.7862,-1.818,-1.84,-1.8263,-1.7706,-1.7209,-1.6993,-1.6701,-1.65,-1.65,-1.65,-1.65,-1.65,-1.65,-1.65,-1.65,-1.65,-1.65,-1.65,-1.65,-1.65,-1.65,-1.65,-1.65,-1.65,-1.65,-1.65,-1.65,-1.65,-1.6823,-2.9949,0.0,0.0,0.0,0.0,0.0,0.0,0.0,0.0,0.0,0.0,0.0,0.0,0.0,-2.5703,-2.5703,0.0,-2.5683,0.0,0.0,0.0,0.0,0.0,0.0,0.0,0.0,0.0,0.0,-2.3057,0.0,-2.3682,-2.4016,-2.4357,-2.4708,-2.4586,-2.4734,-2.5214,-2.4484,-2.3793,-2.3144,-2.2274,-2.1421,-2.0659,-2.0461,-2.0374,-2.0414,-2.0509,-1.9909,-1.8799,-1.8216,-1.7324,-1.6286,-1.5657,-1.5379,-1.5338,-1.5311,-1.5258,-1.5222,-1.536,-1.5851,-1.6585,-1.7509,-1.7408,-1.7018,-1.7594,-1.7195,-1.6651,-1.7232,-1.7226,-1.7149,-1.7674,-1.78,-1.78,-1.78,-1.7607,-1.7403,-1.732,-1.7238,-1.7143,-1.7043,-1.7151,-1.7173,-1.7005,-1.7339,-1.7702,-1.7984,-1.7364,-1.6863,-1.6863,-1.6642,-1.65,-1.65,-1.65,-1.65,-1.65,-1.65,-1.65,-1.65,-1.65,-1.65,-1.65,-1.65,-1.65,-1.65,-1.65,-1.65,-1.65,-1.65,-1.65,-1.65,-1.65,-1.6735,0.0,0.0,0.0,-2.6923,0.0,0.0,0.0,0.0,-2.5703,0.0,0.0,0.0,0.0,-2.5703,-2.5703,-2.5703,-2.5703,0.0,0.0,0.0,0.0,0.0,0.0,0.0,0.0,0.0,0.0,-2.3159,-2.3189,0.0,-2.3682,-2.4016,-2.4294,-2.4503,-2.4503,-2.4655,-2.501,-2.4972,-2.4665,-2.4052,-2.3163,-2.2346,-2.1527,-2.0697,-2.0332,-2.0408,-2.0393,-1.9478,-1.7941,-1.7918,-1.6934,-1.5437,-1.5409,-1.5407,-1.5387,-1.5317,-1.5258,-1.5327,-1.6154,-1.6815,-1.7242,-1.716,-1.7033,-1.6908,-1.6927,-1.6779,-1.6715,-1.7249,-1.7246,-1.7208,-1.7685,-1.78,-1.78,-1.78,-1.7789,-1.7692,-1.7368,-1.7059,-1.6717,-1.64,-1.6174,-1.6194,-1.6632,-1.6513,-1.6231,-1.5873,-1.5779,-1.5739,-1.5739,-1.6183,-1.65,-1.65,-1.65,-1.65,-1.65,-1.65,-1.65,-1.65,-1.65,-1.65,-1.65,-1.65,-1.65,-1.65,-1.65,-1.65,-1.65,-1.65,-1.65,-1.65,-1.65,-1.65,0.0,0.0,-2.6807,-2.6836,0.0,0.0,0.0,0.0,0.0,0.0,0.0,0.0,0.0,-2.5703,-2.5703,-2.5703,-2.5703,-2.5703,0.0,0.0,0.0,0.0,0.0,0.0,0.0,0.0,0.0,-2.3188,-2.2899,-2.3016,0.0,-2.4016,-2.4294,-2.4495,-2.4366,-2.4524,-2.5004,-2.4334,-2.3749,-2.322,-2.235,-2.152,-2.0727,-2.044,-2.0314,-2.0334,-2.0376,-1.9414,-1.784,-1.7879,-1.6917,-1.5395,-1.5401,-1.5391,-1.5391,-1.5314,-1.5282,-1.5294,-1.5443,-1.5628,-1.5833,-1.6186,-1.5913,-1.564,-1.6593,-1.6472,-1.6226,-1.7305,-1.7444,-1.742,-1.7935,-1.7927,-1.78,-1.78,-1.78,-1.7704,-1.7368,-1.7039,-1.6699,-1.6369,-1.6078,-1.5948,-1.6188,-1.5608,-1.5322,-1.6007,-1.5576,-1.5299,-1.5643,-1.5856,-1.612,-1.645,-1.65,-1.65,-1.65,-1.65,-1.65,-1.65,-1.65,-1.65,-1.65,-1.65,-1.65,-1.65,-1.65,-1.65,-1.65,-1.65,-1.65,-1.65,-1.65,-1.65,-2.7047,-2.6668,0.0,-2.6294,-2.5912,0.0,-2.5637,0.0,0.0,0.0,0.0,0.0,0.0,0.0,-2.5703,-2.5703,-2.5703,-2.5703,0.0,-2.5703,0.0,0.0,0.0,0.0,0.0,0.0,-2.3428,-2.3648,-2.3205,-2.32,0.0,0.0,-2.4266,-2.4393,-2.4275,-2.4409,-2.4818,-2.4173,-2.3763,-2.3573,-2.2412,-2.1611,-2.1177,-2.0567,-2.029,-2.0296,-2.0359,-1.9383,-1.7768,-1.7842,-1.6875,-1.5369,-1.5388,-1.5406,-1.5388,-1.5346,-1.532,-1.5289,-1.5143,-1.5066,-1.5065,-1.5452,-1.5183,-1.4873,-1.5838,-1.5919,-1.5929,-1.6985,-1.7384,-1.7613,-1.8081,-1.8061,-1.7916,-1.7822,-1.78,-1.7704,-1.7368,-1.7039,-1.6699,-1.6369,-1.6025,-1.5831,-1.5915,-1.5129,-1.4784,-1.5601,-1.5092,-1.4815,-1.5349,-1.5567,-1.5906,-1.6437,-1.65,-1.65,-1.65,-1.65,-1.65,-1.65,-1.65,-1.65,-1.65,-1.65,-1.6588,-1.6823,-1.66,-1.66,-1.6823,-1.66,-1.65,-1.65,-1.65,-1.65]},{"header":{"parameterUnit":"m.s-1","parameterCategory":1,"la1":30.6,"la2":29.2853,"lo1":-89.7004,"lo2":-87.6739,"dy":0.0162,"dx":0.0183,"nx":112,"ny":82,"refTime":"2023-08-01T00:00:00:Z","depth":0,"parameterNumber":3,"parameterNumberName":"V-component_of_WINDS"},"data":[0.0,0.0,0.0,0.0,0.0,0.0,0.0,0.0,0.0,0.0,0.0,0.0,0.0,0.0,0.0,0.0,0.0,0.0,0.0,0.0,0.0,0.0,0.0,0.0,0.0,0.0,0.0,0.0,0.0,0.0,0.0,0.0,0.0,0.0,0.0,0.0,0.0,0.0,0.0,0.0,0.0,0.0,0.0,0.0,0.0,0.0,0.0,0.0,0.0,0.0,0.0,0.0,0.0,0.0,0.0,0.0,0.0,0.0,0.0,0.0,0.0,0.0,0.0,0.0,0.0,0.0,0.0,0.0,0.0,0.0,0.0,0.0,0.0,0.0,0.0,0.0,0.0,0.0,0.0,0.0,0.0,0.0,0.0,0.0,0.0,0.0,0.0,0.0,0.0,0.0,-3.1734,-3.3425,-3.4556,-3.5078,-3.4833,-3.3259,-3.076,-2.7264,0.0,0.0,0.0,0.0,0.0,0.0,0.0,0.0,0.0,0.0,0.0,0.0,0.0,0.0,0.0,0.0,0.0,0.0,0.0,0.0,0.0,0.0,0.0,0.0,0.0,0.0,0.0,0.0,0.0,0.0,0.0,0.0,0.0,0.0,0.0,0.0,0.0,0.0,0.0,0.0,0.0,0.0,0.0,0.0,0.0,0.0,0.0,0.0,0.0,0.0,0.0,0.0,0.0,0.0,0.0,0.0,0.0,0.0,0.0,0.0,0.0,0.0,0.0,0.0,0.0,0.0,0.0,0.0,0.0,0.0,0.0,0.0,0.0,0.0,0.0,0.0,0.0,0.0,0.0,0.0,0.0,0.0,0.0,0.0,0.0,0.0,0.0,0.0,0.0,0.0,0.0,0.0,0.0,0.0,0.0,0.0,0.0,0.0,0.0,0.0,0.0,0.0,0.0,0.0,-3.0734,-3.2135,-3.4027,-3.4604,-3.3115,-3.1621,-2.9464,-2.6555,0.0,0.0,0.0,0.0,0.0,0.0,0.0,0.0,0.0,0.0,0.0,0.0,0.0,0.0,0.0,0.0,0.0,0.0,0.0,0.0,0.0,0.0,0.0,0.0,0.0,0.0,0.0,0.0,0.0,0.0,0.0,0.0,0.0,0.0,0.0,0.0,0.0,0.0,0.0,0.0,0.0,0.0,0.0,0.0,0.0,0.0,0.0,0.0,0.0,0.0,0.0,0.0,0.0,0.0,0.0,0.0,0.0,0.0,0.0,0.0,0.0,0.0,0.0,0.0,0.0,0.0,0.0,0.0,0.0,0.0,0.0,0.0,0.0,0.0,0.0,0.0,0.0,0.0,0.0,0.0,0.0,0.0,0.0,0.0,0.0,0.0,0.0,0.0,0.0,0.0,0.0,0.0,0.0,0.0,0.0,0.0,0.0,0.0,0.0,0.0,0.0,0.0,0.0,-2.9943,-3.0872,-3.2437,-3.2848,-3.2687,-3.1924,-3.0747,-2.9028,-2.6614,-2.6148,0.0,0.0,0.0,0.0,0.0,0.0,0.0,0.0,0.0,0.0,0.0,0.0,0.0,0.0,0.0,0.0,0.0,0.0,0.0,0.0,0.0,0.0,0.0,0.0,0.0,0.0,0.0,0.0,0.0,0.0,0.0,0.0,0.0,0.0,0.0,0.0,0.0,0.0,0.0,0.0,0.0,0.0,0.0,0.0,0.0,0.0,0.0,0.0,0.0,0.0,0.0,0.0,0.0,0.0,0.0,0.0,0.0,0.0,0.0,0.0,0.0,0.0,0.0,0.0,0.0,0.0,0.0,0.0,0.0,0.0,0.0,0.0,0.0,0.0,0.0,0.0,0.0,0.0,0.0,0.0,0.0,0.0,0.0,0.0,0.0,0.0,0.0,0.0,0.0,0.0,0.0,0.0,0.0,0.0,0.0,0.0,0.0,0.0,0.0,0.0,0.0,0.0,-3.0364,-3.0746,-3.2346,-3.1715,-3.1106,-3.0895,-2.9833,-2.8475,-2.6804,-2.5897,0.0,0.0,0.0,0.0,0.0,0.0,0.0,0.0,0.0,0.0,0.0,0.0,0.0,0.0,0.0,0.0,0.0,0.0,0.0,0.0,0.0,0.0,0.0,0.0,0.0,0.0,0.0,0.0,0.0,0.0,0.0,0.0,0.0,0.0,0.0,0.0,0.0,0.0,0.0,0.0,0.0,0.0,0.0,0.0,0.0,0.0,0.0,0.0,0.0,0.0,0.0,0.0,0.0,0.0,0.0,0.0,0.0,0.0,0.0,0.0,0.0,0.0,0.0,0.0,0.0,0.0,0.0,0.0,0.0,0.0,0.0,0.0,0.0,0.0,0.0,0.0,0.0,0.0,0.0,0.0,0.0,0.0,0.0,0.0,0.0,0.0,0.0,0.0,0.0,0.0,0.0,0.0,0.0,0.0,0.0,0.0,0.0,0.0,0.0,0.0,0.0,0.0,-2.9103,-2.9479,-3.0654,-3.1043,-3.0833,-2.9972,-2.8397,-2.7252,-2.6725,-2.5206,0.0,0.0,0.0,0.0,0.0,0.0,0.0,0.0,0.0,0.0,0.0,0.0,0.0,0.0,0.0,0.0,0.0,0.0,0.0,0.0,0.0,0.0,0.0,0.0,0.0,0.0,0.0,0.0,0.0,0.0,0.0,0.0,0.0,0.0,0.0,0.0,0.0,0.0,0.0,0.0,0.0,0.0,0.0,0.0,0.0,0.0,0.0,0.0,0.0,0.0,0.0,0.0,0.0,0.0,0.0,0.0,0.0,0.0,0.0,0.0,0.0,0.0,0.0,0.0,0.0,0.0,0.0,0.0,0.0,0.0,0.0,0.0,0.0,0.0,0.0,0.0,0.0,0.0,0.0,0.0,0.0,0.0,0.0,0.0,0.0,0.0,0.0,0.0,0.0,0.0,0.0,0.0,0.0,0.0,0.0,0.0,0.0,0.0,0.0,0.0,0.0,0.0,-2.9028,-2.9881,0.0,-3.0972,-3.0833,-2.9895,-2.8875,-2.8193,-2.7959,0.0,0.0,0.0,0.0,0.0,0.0,0.0,0.0,0.0,0.0,0.0,0.0,0.0,0.0,0.0,0.0,0.0,0.0,0.0,0.0,0.0,0.0,0.0,0.0,0.0,0.0,0.0,0.0,0.0,0.0,0.0,0.0,0.0,0.0,0.0,0.0,0.0,0.0,0.0,0.0,0.0,0.0,0.0,0.0,0.0,0.0,0.0,0.0,0.0,0.0,0.0,0.0,0.0,0.0,0.0,0.0,0.0,0.0,0.0,0.0,0.0,0.0,0.0,0.0,0.0,0.0,0.0,0.0,0.0,0.0,0.0,0.0,0.0,0.0,0.0,0.0,0.0,0.0,0.0,0.0,0.0,0.0,0.0,0.0,0.0,0.0,0.0,0.0,0.0,0.0,0.0,0.0,0.0,0.0,0.0,0.0,0.0,0.0,0.0,0.0,0.0,0.0,-2.7886,-2.9095,-3.0199,0.0,-3.1542,-3.1402,-3.0746,-2.9391,-2.8726,-2.9117,0.0,0.0,0.0,0.0,0.0,0.0,0.0,0.0,0.0,0.0,0.0,0.0,0.0,0.0,0.0,0.0,0.0,0.0,0.0,0.0,0.0,0.0,0.0,0.0,0.0,0.0,0.0,0.0,0.0,0.0,0.0,0.0,0.0,0.0,0.0,0.0,0.0,0.0,0.0,0.0,0.0,0.0,0.0,0.0,0.0,0.0,0.0,0.0,0.0,0.0,0.0,0.0,0.0,0.0,0.0,0.0,0.0,0.0,0.0,0.0,0.0,0.0,0.0,0.0,0.0,0.0,0.0,0.0,0.0,0.0,0.0,0.0,0.0,0.0,0.0,0.0,0.0,0.0,0.0,0.0,0.0,0.0,0.0,0.0,0.0,0.0,0.0,0.0,0.0,0.0,0.0,0.0,0.0,0.0,0.0,0.0,0.0,0.0,0.0,0.0,0.0,0.0,-2.8907,-2.9186,-3.016,-3.2828,-3.282,-3.2593,-3.2593,-2.9727,-2.8524,0.0,0.0,0.0,0.0,0.0,0.0,0.0,0.0,0.0,0.0,0.0,0.0,0.0,0.0,0.0,0.0,0.0,0.0,0.0,0.0,0.0,0.0,0.0,0.0,0.0,0.0,0.0,0.0,0.0,0.0,0.0,0.0,0.0,0.0,0.0,0.0,0.0,0.0,0.0,0.0,0.0,0.0,0.0,0.0,0.0,0.0,0.0,0.0,0.0,0.0,0.0,0.0,0.0,0.0,0.0,0.0,0.0,0.0,0.0,0.0,0.0,0.0,0.0,0.0,0.0,0.0,0.0,0.0,0.0,0.0,0.0,0.0,0.0,0.0,0.0,0.0,0.0,0.0,0.0,0.0,0.0,0.0,0.0,0.0,0.0,0.0,0.0,0.0,0.0,0.0,0.0,0.0,0.0,0.0,0.0,0.0,0.0,0.0,0.0,0.0,0.0,0.0,0.0,-2.9158,-3.0263,-3.1379,-3.2937,-3.3382,-3.331,-3.2664,-3.0534,-2.949,-3.007,0.0,0.0,0.0,0.0,0.0,0.0,0.0,0.0,0.0,0.0,0.0,0.0,0.0,0.0,0.0,0.0,0.0,0.0,0.0,0.0,0.0,0.0,0.0,0.0,0.0,0.0,0.0,0.0,0.0,0.0,0.0,0.0,0.0,0.0,0.0,0.0,0.0,0.0,0.0,0.0,0.0,0.0,0.0,0.0,0.0,0.0,0.0,0.0,0.0,0.0,0.0,0.0,0.0,0.0,0.0,0.0,0.0,0.0,0.0,0.0,0.0,0.0,0.0,0.0,0.0,0.0,0.0,0.0,0.0,0.0,0.0,0.0,0.0,0.0,0.0,0.0,0.0,0.0,0.0,0.0,0.0,0.0,0.0,0.0,0.0,0.0,0.0,0.0,0.0,0.0,0.0,0.0,0.0,0.0,0.0,0.0,0.0,0.0,0.0,0.0,0.0,0.0,-2.9579,-3.0853,-3.2154,-3.3867,-3.439,-3.4361,-3.3788,-3.191,-3.0605,-3.0294,0.0,0.0,0.0,0.0,0.0,0.0,0.0,0.0,0.0,0.0,0.0,0.0,0.0,0.0,0.0,0.0,0.0,0.0,0.0,0.0,0.0,0.0,0.0,0.0,0.0,0.0,0.0,0.0,0.0,0.0,0.0,0.0,0.0,0.0,0.0,0.0,0.0,0.0,0.0,0.0,0.0,0.0,0.0,0.0,0.0,0.0,0.0,0.0,0.0,0.0,0.0,0.0,0.0,0.0,0.0,0.0,0.0,0.0,0.0,0.0,0.0,0.0,0.0,0.0,0.0,0.0,0.0,0.0,0.0,0.0,0.0,0.0,0.0,0.0,0.0,0.0,0.0,0.0,0.0,0.0,0.0,0.0,0.0,0.0,0.0,0.0,0.0,0.0,0.0,0.0,0.0,0.0,0.0,0.0,0.0,0.0,0.0,0.0,0.0,0.0,0.0,0.0,-3.0088,-3.1077,-3.2497,-3.513,-3.5474,-3.5504,-3.5504,-3.3492,-3.1754,-3.066,0.0,0.0,0.0,0.0,0.0,0.0,0.0,0.0,0.0,0.0,0.0,0.0,0.0,0.0,0.0,0.0,0.0,0.0,0.0,0.0,0.0,0.0,0.0,0.0,0.0,0.0,0.0,0.0,0.0,0.0,0.0,0.0,0.0,0.0,0.0,0.0,0.0,0.0,0.0,0.0,0.0,0.0,0.0,0.0,0.0,0.0,0.0,0.0,0.0,0.0,0.0,0.0,0.0,0.0,0.0,0.0,0.0,0.0,0.0,0.0,-2.0654,0.0,0.0,0.0,0.0,0.0,0.0,0.0,0.0,0.0,0.0,0.0,0.0,0.0,0.0,0.0,0.0,0.0,0.0,0.0,0.0,0.0,0.0,0.0,0.0,0.0,0.0,0.0,0.0,0.0,0.0,0.0,0.0,0.0,0.0,0.0,0.0,0.0,0.0,0.0,0.0,0.0,-3.0148,-3.1077,-3.2318,-3.4472,-3.519,-3.5504,-3.5504,-3.3629,-3.2095,-3.1346,-2.9044,0.0,0.0,0.0,0.0,0.0,0.0,0.0,0.0,0.0,0.0,0.0,0.0,0.0,0.0,0.0,0.0,0.0,0.0,0.0,0.0,0.0,0.0,0.0,0.0,0.0,0.0,0.0,0.0,0.0,0.0,0.0,0.0,0.0,0.0,0.0,0.0,0.0,0.0,0.0,0.0,0.0,0.0,0.0,0.0,0.0,0.0,0.0,0.0,0.0,0.0,0.0,0.0,0.0,0.0,0.0,0.0,0.0,0.0,0.0,0.0,-2.1494,0.0,0.0,0.0,0.0,0.0,0.0,0.0,0.0,0.0,0.0,0.0,0.0,0.0,0.0,0.0,0.0,0.0,0.0,0.0,0.0,0.0,0.0,0.0,0.0,0.0,0.0,0.0,0.0,0.0,0.0,0.0,0.0,0.0,0.0,0.0,0.0,0.0,0.0,0.0,0.0,-3.0163,-3.1077,-3.2258,-3.4294,-3.51,-3.5504,-3.5504,-3.4247,-3.2901,-3.1585,-2.9924,0.0,0.0,0.0,0.0,0.0,0.0,0.0,0.0,0.0,0.0,0.0,0.0,0.0,0.0,0.0,0.0,0.0,0.0,0.0,0.0,0.0,0.0,0.0,0.0,0.0,0.0,0.0,0.0,0.0,0.0,0.0,0.0,0.0,0.0,0.0,0.0,0.0,0.0,0.0,0.0,0.0,0.0,0.0,0.0,0.0,0.0,0.0,0.0,0.0,0.0,0.0,0.0,0.0,-1.6466,-1.7021,-1.7645,-1.9854,-2.1151,-2.1681,-2.2706,-2.2978,-2.2588,0.0,0.0,0.0,0.0,0.0,0.0,0.0,0.0,0.0,0.0,0.0,0.0,0.0,0.0,0.0,0.0,0.0,0.0,0.0,0.0,0.0,0.0,0.0,0.0,0.0,-2.6285,-2.632,0.0,0.0,0.0,0.0,0.0,0.0,0.0,0.0,0.0,0.0,0.0,0.0,-2.9894,-3.0943,-3.2168,-3.3948,-3.4741,-3.5205,-3.5325,-3.4696,-3.3604,-3.1944,-3.1016,-2.9535,0.0,0.0,0.0,0.0,0.0,0.0,0.0,0.0,0.0,0.0,0.0,0.0,0.0,0.0,0.0,0.0,0.0,0.0,0.0,0.0,0.0,0.0,0.0,0.0,0.0,0.0,0.0,0.0,0.0,0.0,0.0,0.0,0.1176,0.0308,0.0,0.0,0.0,0.0,0.0,0.0,0.0,0.0,0.0,0.0,0.0,0.0,0.0,0.0,-1.6039,-1.6834,-1.7199,-1.7038,-1.7809,-1.9191,-2.1065,-2.1644,-2.3284,-2.5649,-2.58,0.0,-2.2984,-2.2607,0.0,0.0,0.0,0.0,0.0,0.0,0.0,0.0,0.0,0.0,0.0,0.0,0.0,0.0,0.0,0.0,0.0,0.0,0.0,0.0,0.0,0.0,-2.7657,-2.7168,-2.7153,-2.7382,0.0,-2.7961,-2.7815,-2.7881,0.0,0.0,0.0,0.0,0.0,0.0,0.0,0.0,-2.8801,-3.0389,-3.1824,-3.2677,-3.3365,-3.3993,-3.4593,-3.4008,-3.3514,-3.3245,-3.1509,-3.0357,-2.9998,-2.8289,0.0,0.0,0.0,0.0,0.0,0.0,0.0,0.0,0.0,0.0,0.0,0.0,0.0,0.0,0.0,0.0,0.0,0.0,0.0,0.0,0.0,0.0,0.0,0.0,0.0,0.0,0.0,0.0,0.0,0.0846,0.0434,0.0043,-0.0957,-0.1811,0.0,0.0,0.0,0.0,0.0,0.0,0.0,0.0,0.0,-1.5864,-1.6226,-1.6747,-1.7515,-1.8063,-1.8357,-1.8459,-1.8798,-1.9927,-2.1697,-2.2614,-2.4196,-2.6255,-2.713,-2.6514,-2.4912,-2.4228,-2.3227,-2.2004,0.0,0.0,0.0,0.0,0.0,-2.4803,-2.469,0.0,0.0,0.0,0.0,0.0,0.0,0.0,0.0,0.0,0.0,0.0,0.0,0.0,0.0,-2.8185,-2.8461,-2.8969,-2.9949,-3.0065,-2.9927,0.0,-2.9688,-2.9579,-2.8906,0.0,0.0,0.0,0.0,-2.8861,-2.9579,-3.0733,-3.1765,-3.2437,-3.3095,-3.3619,-3.3903,-3.3993,-3.3724,-3.2991,-3.2123,-3.1135,-3.0028,-2.9187,-2.8334,0.0,0.0,0.0,0.0,0.0,0.0,0.0,0.0,0.0,0.0,0.0,0.0,0.0,0.0,0.0,0.0,0.0,0.0,0.0,0.0,0.0,0.0,0.0,0.0,0.0,0.0,0.0,0.0,0.0,0.0,0.0,-0.1262,-0.2405,0.0,0.0,0.0,0.0,0.0,0.0,-1.1765,-1.278,-1.4598,-1.7303,-1.7655,-1.8164,-1.8931,-1.9152,-1.9332,-1.9479,-1.9479,-2.0218,-2.1643,-2.3151,-2.4654,-2.6155,-2.7672,-2.7627,-2.6484,-2.5605,-2.4482,-2.3325,-2.2842,-2.2916,-2.3176,-2.248,-2.368,-2.5749,-2.6155,-2.6573,-2.7163,-2.8463,0.0,-2.6239,-2.6236,0.0,0.0,0.0,0.0,-2.6251,-2.7243,0.0,-2.8448,-2.8976,-2.9478,-3.0075,-3.1007,-3.1429,-3.1453,0.0,-3.1217,-3.1286,-3.0627,0.0,0.0,0.0,0.0,-2.937,-3.0163,-3.0972,-3.169,-3.2183,-3.2706,-3.3125,-3.3469,-3.3784,-3.3709,-3.3051,-3.2706,-3.1854,-3.0387,-2.9849,-2.8903,-2.7405,0.0,0.0,0.0,0.0,0.0,0.0,0.0,0.0,0.0,0.0,0.0,0.0,0.0,0.0,0.0,0.0,0.0,0.0,0.0,0.0,0.0,0.0,0.0,0.0,0.0,0.0,0.0,0.0,0.0,0.0,-0.2169,0.0,0.0,0.0,0.0,-0.7891,-0.8289,-0.9943,-1.322,-1.3583,-1.5372,-1.9148,-1.9303,-1.9539,-2.014,-2.016,-2.004,-1.978,-1.978,-2.0419,-2.1643,-2.3151,-2.4654,-2.6155,-2.7672,-2.7793,-2.6914,-2.6005,-2.4932,-2.3711,-2.3227,-2.3149,-2.3183,-2.3139,-2.4119,-2.5438,-2.5459,-2.6517,-2.795,-2.8573,-2.8414,-2.7974,-2.796,-2.7231,0.0,0.0,-2.6801,-2.7331,-2.7908,-2.8473,-2.9001,-2.9616,-2.9779,-3.0075,-3.1007,-3.1429,-3.1673,0.0,-3.1748,-3.1286,-3.0627,0.0,-2.9367,-2.8742,-2.9654,-3.0223,-2.9726,-3.0746,-3.1511,-3.1555,-3.1585,-3.2108,-3.338,-3.2961,-3.3125,-3.4339,-3.32,-3.2467,-3.2377,-3.0582,-2.9562,-2.9457,-2.6946,0.0,0.0,0.0,0.0,0.0,0.0,0.0,0.0,0.0,0.0,0.0,0.0,0.0,0.0,0.0,0.0,0.0,0.0,0.0,0.0,0.0,0.0,0.0,0.0,0.0,0.0,0.0,0.0,0.0,-0.1408,0.0,-0.3972,-0.575,-0.7322,-0.8508,-0.8984,-1.0707,-1.4156,-1.4448,-1.6105,-1.9574,-1.9826,-2.0027,-2.0227,-2.0421,-2.0468,-2.0361,-2.0167,-2.0666,-2.1885,-2.2245,-2.3758,-2.6082,-2.6332,-2.6664,-2.6973,-2.6396,-2.5547,-2.46,-2.4443,-2.4209,-2.3975,-2.3975,-2.4801,-2.5975,-2.5975,-2.666,-2.7417,-2.6925,-2.6391,-2.6051,-2.638,-2.6239,-2.6165,-2.7228,-2.7406,-2.757,-2.8863,-2.9063,-2.9038,-2.9654,-2.9792,-2.9895,-3.0241,-3.085,-3.1366,-3.1507,-3.2198,-3.2856,-3.3036,-3.1824,-3.0883,-3.1091,-3.0761,-3.0582,-3.0778,-3.1212,-3.1511,-3.1511,-3.1511,-3.169,-3.2168,-3.2378,-3.2347,-3.1943,-3.1898,-3.1481,-3.0657,-2.9549,-2.8547,-2.7679,-2.6318,-2.5262,0.0,0.0,0.0,0.0,0.0,0.0,0.0,0.0,0.0,0.0,0.0,0.0,0.0,0.0,0.0,0.0,0.0,0.0,0.0,0.0,0.0,0.0,0.0,0.0,0.0,0.0,0.0,0.0,-0.1087,-0.248,-0.4267,-0.5781,-0.7404,-0.921,-0.9713,-1.1429,-1.4962,-1.5242,-1.6775,-1.9973,-2.0281,-2.0334,-2.0173,-2.0428,-2.0481,-2.0374,-2.018,-2.0449,-2.1111,-2.1462,-2.2983,-2.5362,-2.5541,-2.6172,-2.6992,-2.6709,-2.6084,-2.5293,-2.5293,-2.5117,-2.4844,-2.4697,-2.5175,-2.5919,-2.5968,-2.6269,-2.6568,-2.6084,-2.5675,-2.543,-2.5816,-2.6171,-2.6659,-2.7801,-2.7977,-2.8134,-2.9453,-2.9227,-2.88,-2.9365,-2.9503,-2.9503,-2.9503,-3.0378,-3.1217,-3.1217,-3.2545,-3.3746,-3.3999,-3.3017,-3.2243,-3.2482,-3.1569,-3.0987,-3.1451,-3.1511,-3.1511,-3.1511,-3.1511,-3.1585,-3.1809,-3.2034,-3.178,-3.0883,-3.0838,-3.0387,-2.9295,-2.8607,-2.7829,-2.6956,-2.5839,-2.4918,-2.4261,0.0,0.0,0.0,0.0,0.0,0.0,0.0,0.0,0.0,0.0,0.0,0.0,0.0,0.0,0.0,0.0,0.0,0.0,0.0,0.0,0.0,0.0,0.0,0.0,0.0,0.0,0.0,-0.1256,-0.2852,-0.4734,-0.6377,-0.8163,-1.0153,-1.0422,-1.2041,-1.5644,-1.5843,-1.7346,-2.0482,-2.0655,-2.0508,-2.016,-2.0221,-2.008,-1.9813,-1.9806,-1.9653,-1.9437,-2.0866,-2.2315,-2.3822,-2.5344,-2.6342,-2.691,-2.6931,-2.6434,-2.5693,-2.5693,-2.5674,-2.5615,-2.5225,-2.5096,-2.509,-2.5273,-2.5305,-2.545,-2.617,-2.6389,-2.64,-2.6431,-2.7186,-2.8032,-2.8084,-2.8494,-2.9026,-2.9641,-2.8976,-2.8285,-2.8762,-2.8888,-2.8888,-2.8863,-3.0056,-3.1077,-3.1077,-3.2601,-3.3709,-3.3202,-3.3307,-3.3245,-3.2587,-3.1929,0.0,-3.1511,-3.1511,-3.1511,-3.1511,-3.1511,-3.1765,-3.2392,-3.1854,-3.1451,-3.1406,-3.0238,-2.922,-2.8562,-2.7899,-2.7525,-2.751,-2.5615,-2.4306,-2.3655,0.0,0.0,0.0,0.0,0.0,0.0,0.0,0.0,0.0,0.0,0.0,0.0,0.0,0.0,0.0,0.0,0.0,0.0,0.0,0.0,0.0,0.0,0.0,0.0,0.0,0.0,0.0,-0.0386,-0.184,-0.4991,-0.5691,-0.7252,-1.0333,-1.0636,-1.1651,-1.3905,-1.506,-1.6466,-1.8415,-1.9469,-2.0,-1.992,-1.992,-1.9987,-2.0107,-1.99,-1.976,-1.9673,-1.9911,-2.0816,-2.2227,-2.3105,-2.421,-2.5459,-2.5879,-2.5908,-2.5693,-2.5693,-2.5537,-2.5234,-2.5165,-2.4724,-2.4108,-2.385,-2.374,-2.3763,-2.397,-2.4016,-2.4178,-2.4999,-2.5752,-2.6554,-2.7778,-2.8494,-2.9026,-2.9641,-2.9566,-2.9264,-2.895,-2.8888,-2.8787,-2.8411,-2.8657,-2.8929,-2.8929,-3.0283,-3.1756,-3.2882,-3.2764,-3.2505,-3.2512,0.0,0.0,-3.1511,-3.1511,-3.1511,-3.1511,-3.1511,-3.157,-3.1765,-3.1152,-3.0387,-2.9475,-2.8618,-2.7854,-2.7171,-2.6497,-2.5929,-2.5427,-2.5352,-2.5217,0.0,0.0,0.0,0.0,0.0,0.0,0.0,0.0,0.0,0.0,0.0,0.0,0.0,0.0,0.0,0.0,0.0,0.0,0.0,0.0,0.0,0.0,0.0423,0.0,0.0,0.0,0.0,0.0,0.0,-0.1411,-0.5029,-0.5431,-0.69,-1.0452,-1.0721,-1.1439,-1.3193,-1.483,-1.6276,-1.7564,-1.9143,-1.9867,-1.9619,-1.9619,-1.97,-1.9867,-1.97,-1.9619,-1.9613,-1.9446,-2.0129,0.0,-2.2392,-2.3498,-2.4687,-2.5586,-2.5908,0.0,0.0,0.0,0.0,0.0,-2.4102,-2.3486,-2.3179,-2.3091,-2.3091,-2.3091,-2.3091,-2.3222,-2.3877,-2.4651,-2.5549,-2.7024,-2.7806,-2.8494,-2.9525,-2.9264,-2.8775,-2.8863,-2.8574,-2.821,-2.8122,-2.8109,-2.8109,-2.8109,0.0,0.0,-3.0971,-3.1578,-3.1989,-3.2288,-3.1748,-3.1368,0.0,-3.1511,-3.1511,-3.1511,-3.1511,-3.1511,-3.1511,-3.0883,0.0,0.0,0.0,-2.73,-2.6641,-2.6228,0.0,0.0,0.0,-2.5884,0.0,0.0,0.0,0.0,-2.6737,-2.7066,0.0,0.0,0.0,0.0,0.0,0.0,0.0,0.0,0.0,0.0,0.0,0.0,0.0,0.0,0.0,0.0,0.0967,0.0,0.0,0.0,0.0,0.0,-0.02,-0.168,-0.5095,-0.5564,-0.71,-1.0452,-1.0721,-1.1372,-1.2931,0.0,0.0,0.0,0.0,-1.9734,-1.9372,-1.9424,-1.9424,-1.9424,-1.9424,-1.9424,-1.9424,-1.9424,-1.9917,-2.0926,-2.2316,-2.3319,-2.4167,-2.554,-2.5897,-2.5615,-2.5557,-2.5312,-2.4871,-2.4014,-2.3467,0.0,0.0,0.0,0.0,-2.3091,-2.3091,-2.3091,-2.3091,-2.3932,-2.5083,-2.6094,-2.688,-2.7734,-2.9222,-2.8499,-2.7607,-2.8524,-2.7996,-2.7394,-2.7821,-2.7921,-2.7921,-2.7921,-2.7971,-2.8086,-2.8317,-2.9954,-3.1349,-3.1689,-3.1228,0.0,-3.1191,-3.1307,-3.1351,-3.1351,0.0,0.0,-3.1351,-3.0654,-2.9972,-2.9349,-2.8058,-2.7115,-2.6584,-2.6569,-2.6589,-2.6587,-2.6587,-2.6303,-2.5719,-2.6378,-2.7061,-2.772,-2.8308,-2.8637,0.0,0.0,0.0,0.0,0.0,0.0,0.0,0.0,0.0,0.0,0.0,0.0,0.0,0.0,0.0,0.2507,0.1076,0.0,0.0,0.0,0.0,0.0,-0.1275,-0.3021,-0.5163,-0.6696,-0.8368,-1.0518,-1.0721,-1.085,-1.1178,-1.2666,0.0,-1.5447,-1.6985,-1.8317,-1.9372,-1.9424,-1.9424,-1.9424,0.0,0.0,-1.9424,-1.9424,-1.9371,-1.94,-2.0556,-2.1599,-2.2602,-2.3734,-2.4634,-2.5166,-2.4814,-2.4414,-2.3975,-2.3457,-2.3169,-2.3091,-2.3091,-2.3091,-2.3091,-2.3091,-2.3091,-2.3091,-2.3091,-2.4209,0.0,-2.5694,-2.6815,-2.8014,-2.8324,-2.8197,-2.7896,-2.7657,-2.7444,-2.7228,-2.6889,-2.6813,-2.6813,-2.6813,-2.7165,-2.7477,-2.7528,-2.8387,-2.9228,-2.9559,-2.9505,-2.9411,-2.9487,-3.0103,-3.0524,-3.0524,-3.0524,-3.0524,-3.0524,-2.9275,-2.819,-2.7547,-2.6344,-2.5874,-2.6332,-2.6466,-2.6557,-2.6602,-2.6587,-2.6527,-2.6408,-2.7091,-2.7764,-2.8412,-2.8547,-2.8891,0.0,0.0,0.0,0.0,0.0,0.0,0.0,0.0,0.0,0.0,0.0,0.7083,0.7127,0.0,0.4751,0.3838,0.2387,0.1039,0.0133,0.0,0.0,0.0,-0.1613,-0.3422,-0.5228,-0.6965,-0.8767,-1.0585,-1.0721,-1.0721,-1.0721,-1.2203,-1.3691,-1.4955,-1.6564,-1.8039,-1.9372,-1.9424,-1.9424,-1.9424,-1.9424,-1.9424,-1.9366,-1.9212,-1.8985,-1.8747,-1.982,-2.0914,-2.2077,-2.3931,-2.4612,-2.4434,-2.4414,-2.416,-2.374,-2.3257,-2.3091,-2.3091,-2.3091,-2.3091,-2.3091,-2.3091,-2.2955,-2.2779,-2.2779,-2.3565,-2.4585,-2.5154,-2.6282,-2.7422,-2.795,-2.7896,-2.7695,-2.7695,-2.7268,-2.6901,-2.6901,-2.6688,-2.6499,-2.6499,-2.6713,-2.6901,-2.6901,-2.721,-2.7788,-2.8617,-2.8749,-2.898,-2.9577,-2.9659,-2.9827,-3.0238,-2.9919,-2.9659,-2.9659,-2.8636,-2.7707,-2.7044,-2.6165,-2.5854,-2.6217,-2.6413,-2.6524,-2.6539,-2.6892,-2.7106,-2.7106,-2.7779,-2.8453,-2.9101,-2.9415,-2.9729,0.0,0.0,0.0,0.0,0.0,0.0,0.0,0.2655,0.4344,0.5023,0.6491,0.7856,0.8523,0.7644,0.6355,0.5164,0.3658,0.2055,0.0269,0.0,0.0,0.0,-0.1873,-0.3742,-0.5275,-0.7268,-0.9065,-1.0541,-1.0704,-1.0707,-1.0677,-1.1972,-1.3307,-1.4524,-1.6204,-1.7684,-1.8894,-1.9243,-1.9424,-1.9424,-1.9424,-1.9397,-1.9272,-1.9032,-1.8738,-1.8494,-1.9808,-2.0861,-2.1795,-2.4487,-2.4893,-2.3828,-2.416,-2.4043,-2.3623,-2.3227,-2.3091,-2.3091,-2.3091,-2.3091,-2.3091,-2.3091,-2.2867,-2.2637,-2.2637,-2.2937,-2.3522,-2.4641,-2.5562,-2.6463,-2.7517,-2.7457,-2.7231,-2.7682,-2.714,-2.6612,-2.7065,-2.6813,-2.6499,-2.6499,-2.6499,-2.6499,-2.6499,-2.6499,-2.6866,-2.797,-2.809,-2.8459,-2.9435,-2.9097,-2.9034,-2.9721,-2.916,-2.8684,-2.8524,-2.8026,-2.7422,-2.6769,-2.6202,-2.5968,-2.5992,-2.6022,-2.626,-2.6697,-2.7159,-2.7533,-2.7809,-2.8457,-2.9071,-2.9636,-3.0357,-3.0702,0.5412,0.1451,-0.1311,-0.1704,-0.2407,-0.2484,0.0,0.1262,0.3037,0.5619,0.7352,0.8547,0.9167,0.8047,0.6626,0.5262,0.3713,0.2079,0.0269,0.0,0.0,0.0,-0.2832,-0.4999,-0.5395,-0.8345,-1.0319,-1.0517,-1.0643,-1.066,-1.0524,-1.0709,-1.1456,-1.2896,-1.4384,-1.5801,-1.7267,-1.8706,-1.9424,-1.9424,-1.9424,-1.9232,-1.8971,-1.8938,-1.8562,-1.8185,-2.0491,-2.1351,-2.1312,-2.4047,-2.4609,-2.3799,-2.3838,-2.3594,-2.3159,-2.311,-2.3091,-2.3091,-2.3091,-2.3091,-2.3091,-2.3091,-2.3062,-2.3023,-2.3023,-2.3178,-2.3522,-2.4552,-2.4969,-2.5397,-2.642,-2.6637,-2.66,-2.6663,-2.6587,-2.6512,-2.6575,-2.6537,-2.6499,-2.6499,-2.6499,-2.6499,-2.6499,-2.6499,-2.6546,-2.67,-2.6712,-2.6777,-2.6918,-2.7451,-2.7887,-2.7986,-2.7887,-2.7571,-2.685,-2.6697,-2.6405,-2.5788,-2.5255,-2.5036,-2.5236,-2.48,-2.5422,-2.7358,-2.6864,-2.7237,-2.8487,-2.9146,-2.9532,-2.9636,-3.0823,-3.1391,0.5287,0.1529,-0.0898,-0.1771,-0.2338,-0.2412,-0.1417,-0.0142,0.1665,0.4634,0.6489,0.7971,0.9406,0.9268,0.8163,0.5681,0.4742,0.3288,0.0404,0.0,0.0,0.0,-0.2947,-0.5087,-0.5372,-0.8521,-1.0527,-1.0619,-1.0602,-1.0558,-1.0493,-1.0415,-1.1053,-1.2494,-1.3991,-1.5534,-1.6968,-1.8583,-1.9424,-1.9424,-1.9192,-1.9045,-1.8911,-1.8515,-1.8129,-1.7922,-2.055,-2.1436,-2.1197,-2.3972,-2.4607,-2.3789,-2.3789,-2.3525,-2.3091,-2.3091,-2.3091,-2.3091,-2.3091,-2.3091,-2.3091,-2.3091,-2.2925,-2.273,-2.273,-2.3238,-2.3902,-2.4337,-2.515,-2.599,-2.6383,-2.6499,-2.6499,-2.6499,-2.6499,-2.6499,-2.6499,-2.6499,-2.6399,-2.6047,-2.626,-2.6386,-2.6047,-2.6273,-2.6499,-2.6499,-2.6499,-2.6692,-2.7129,-2.7061,-2.7007,-2.7007,-2.7007,-2.6871,-2.6521,-2.6499,-2.6386,-2.6147,-2.5297,-2.4835,-2.493,-2.4944,-2.5354,-2.6244,-2.6852,-2.7413,-2.8034,-2.8682,-2.9011,-2.9026,-2.9953,-3.0597,0.4746,0.1668,-0.0302,-0.1649,-0.2504,-0.2896,-0.2602,-0.1525,0.0292,0.3267,0.5443,0.741,0.9347,0.9917,0.9194,0.6491,0.5664,0.4273,0.1209,0.0331,0.0,0.0,-0.289,-0.4981,-0.5304,-0.8358,-1.0415,-1.0527,-1.0473,-1.0415,-1.0371,-1.0273,-1.066,-1.1707,-1.3288,-1.4811,-1.6315,-1.7929,-1.8946,-1.9424,-1.9065,-1.8878,-1.8784,-1.8135,-1.7756,-1.7619,-1.9997,-2.089,-2.0898,-2.3248,-2.3992,-2.3613,-2.3613,-2.3418,-2.3091,-2.3091,-2.3091,-2.3091,-2.3091,-2.3091,-2.3091,-2.3091,-2.2886,-2.2623,-2.2549,-2.3175,-2.3974,-2.4147,-2.5095,-2.6129,-2.6418,-2.6499,-2.6499,-2.6499,-2.6499,-2.6499,-2.6499,-2.6499,-2.6373,-2.5912,-2.621,-2.6361,-2.59,-2.6223,-2.6499,-2.6499,-2.6499,-2.6714,-2.7284,-2.685,-2.6499,-2.6499,-2.6499,-2.6499,-2.6499,-2.6348,-2.6197,-2.6047,-2.5121,-2.4487,-2.4336,-2.4816,-2.5285,-2.5674,-2.6741,-2.7497,-2.7884,-2.8353,-2.8607,-2.8622,-2.9307,-2.9819,0.3744,0.148,-0.0342,-0.1673,-0.3744,-0.5215,-0.4171,-0.2899,-0.1153,0.1686,0.4544,0.7104,0.905,0.9523,0.9207,0.7935,0.6235,0.4553,0.2881,0.1117,0.0,0.0,-0.2884,-0.4948,0.0,-0.8106,-1.0004,-1.0007,-1.0205,-1.0222,-1.0007,-0.9997,-1.0053,-1.0049,-1.1537,-1.3057,-1.4663,-1.6262,-1.7864,-1.9424,-1.9065,-1.8778,-1.8484,-1.7876,-1.7494,-1.7315,-1.8665,-1.9514,-2.0058,-2.149,-2.2505,-2.311,-2.311,-2.311,-2.3091,-2.3091,-2.3091,-2.3091,-2.3091,-2.3091,-2.3091,-2.3091,-2.3081,-2.3003,-2.2637,-2.2907,-2.3446,-2.4045,-2.462,-2.5264,-2.6245,-2.6499,-2.6499,-2.6499,-2.6499,-2.6499,-2.6499,-2.6499,-2.6487,-2.6474,-2.6487,-2.6487,-2.6474,-2.6487,-2.6499,-2.6499,-2.6499,-2.6499,-2.6521,-2.6521,-2.6499,-2.6499,-2.6499,-2.6499,-2.6499,-2.5971,-2.541,-2.4863,-2.4343,-2.3766,-2.3183,-2.3897,-2.4978,-2.634,-2.6489,-2.7199,-2.8562,-2.8592,-2.8607,-2.8622,-2.9307,-2.9621,0.3687,0.2217,0.0781,-0.1465,-0.2617,-0.3117,-0.2757,-0.2311,-0.1211,0.1644,0.3594,0.5417,0.7292,0.8435,0.8714,0.7529,0.6002,0.442,0.2906,0.1118,0.0,0.0,-0.2872,0.0,0.0,0.0,0.0,-1.0195,-1.0154,-1.0041,-0.999,-0.9889,-0.9835,-0.9835,-1.1409,-1.2993,-1.4604,-1.6197,-1.7713,-1.9065,-1.8577,-1.8183,-1.7876,-1.7527,-1.7293,-1.7237,-1.8368,-1.8981,-1.9229,-2.1188,-2.2126,-2.2441,-2.289,-2.3091,-2.3091,-2.3091,-2.3091,-2.3091,-2.3091,-2.3091,-2.3091,-2.3091,-2.2906,-2.2695,-2.2559,-2.2675,-2.3076,-2.3968,-2.4595,-2.5229,-2.6245,-2.6499,-2.6499,-2.6499,-2.6499,-2.6499,-2.6499,-2.6499,-2.6386,-2.5996,-2.6235,-2.6373,-2.5984,-2.6235,-2.6499,-2.6499,-2.6499,-2.6499,-2.6499,-2.6499,-2.6499,-2.6499,-2.6147,-2.5887,-2.5887,-2.5385,-2.4976,-2.48,-2.4305,-2.4139,-2.4425,-2.4824,-2.5467,-2.6462,-2.698,-2.7476,-2.7944,-2.7944,-2.7944,-2.7944,-2.8169,-2.8513,0.3937,0.2922,0.1956,-0.063,-0.1633,-0.2013,-0.2013,-0.2013,-0.136,0.0962,0.2396,0.395,0.614,0.7372,0.7983,0.7763,0.6066,0.4429,0.3543,0.147,0.0,0.0,-0.2921,-0.4918,0.0,0.0,0.0,-1.011,-1.0022,-0.9906,-0.9906,-0.9873,-0.9798,-0.9747,-1.0756,-1.2026,-1.3605,-1.512,-1.6797,-1.8548,-1.8169,-1.7829,-1.7474,-1.7286,-1.7085,-1.6921,-1.7556,-1.8028,-1.8434,-1.9865,-2.0701,-2.1179,-2.2099,-2.2448,-2.2492,-2.295,-2.3091,-2.3091,-2.3091,-2.3091,-2.3071,-2.2916,-2.2691,-2.2451,-2.2148,-2.2362,-2.2924,-2.3951,-2.4736,-2.5529,-2.6519,-2.6788,-2.6738,-2.6549,-2.6499,-2.6499,-2.6499,-2.6499,-2.6386,-2.6009,-2.6235,-2.6373,-2.5996,-2.6248,-2.6499,-2.6499,-2.6323,-2.626,-2.6461,-2.6311,-2.626,-2.6474,-2.5774,-2.5398,-2.5573,-2.4946,-2.4519,-2.4519,-2.4004,-2.3892,-2.4382,-2.504,-2.5618,-2.6095,-2.7086,-2.76,-2.76,-2.76,-2.76,-2.76,-2.76,-2.7839,0.4408,0.3612,0.3027,0.06,-0.0958,-0.1913,-0.1913,-0.1911,-0.1548,-0.0245,0.1055,0.2825,0.5654,0.6349,0.7026,0.8596,0.6395,0.4573,0.4675,0.2003,0.0,0.0,-0.2909,-0.4902,-0.4909,0.0,0.0,-0.9822,0.0,-0.9822,-0.9822,-0.9822,-0.9754,-0.9615,-0.9608,-1.0292,-1.1782,-1.3245,-1.5328,-1.7881,-1.7962,-1.7702,-1.7199,-1.7166,-1.6851,-1.6321,-1.6259,-1.68,-1.7598,-1.7692,-1.8365,-1.9542,-2.0755,-2.1248,-2.1436,-2.2589,-2.3047,-2.3091,-2.3091,-2.3091,-2.3033,-2.2676,-2.2529,-2.2353,-2.1483,-2.1888,-2.2836,-2.3955,-2.4957,-2.5937,-2.697,-2.7278,-2.714,-2.6612,-2.6499,-2.6499,-2.6499,-2.6499,-2.6499,-2.6499,-2.6499,-2.6499,-2.6499,-2.6499,-2.6499,-2.6499,-2.6021,-2.5837,-2.6424,-2.5971,-2.5774,-2.6386,-2.5435,-2.4983,-2.5473,-2.4556,-2.3954,-2.3954,-2.3409,-2.3138,-2.3215,-2.4639,-2.5425,-2.5508,-2.689,-2.76,-2.76,-2.76,-2.76,-2.76,-2.76,-2.76,0.4338,0.3731,0.3276,0.0654,-0.0252,-0.0504,-0.0504,-0.0499,-0.0393,-0.0048,0.0921,0.2182,0.3778,0.5188,0.6663,0.8341,0.6308,0.4629,0.4936,0.214,0.0,0.0,-0.2924,-0.489,-0.492,-0.7856,0.0,0.0,-0.9822,-0.9822,-0.9822,-0.9822,-0.9754,-0.9615,-0.9608,-1.0292,-1.1782,-1.4213,-1.5759,-1.6411,-1.7094,-1.7347,-1.7186,-1.6744,-1.6462,-1.6308,-1.6039,-1.6035,-1.6339,-1.7318,-1.787,-1.828,-1.9497,-2.0531,-2.1337,-2.1667,-2.235,-2.3091,-2.3091,-2.3091,-2.3081,-2.2974,-2.2721,-2.2412,-2.1885,-2.1646,-2.1877,-2.3295,-2.3889,-2.4474,-2.6258,-2.67,-2.6663,-2.6524,-2.6499,-2.6499,-2.6499,-2.6499,-2.6499,-2.6499,-2.6499,-2.6499,-2.6499,-2.6499,-2.6499,-2.6499,-2.6361,-2.6336,-2.6474,-2.5611,-2.5222,-2.5762,-2.4858,-2.4268,-2.4393,-2.3766,-2.3321,-2.3321,-2.3183,-2.3619,-2.4781,-2.5203,-2.5919,-2.7034,-2.7408,-2.76,-2.76,-2.76,-2.76,-2.76,-2.76,-2.76,0.5546,0.4479,0.361,0.1479,0.0457,0.0,0.0,0.0,0.0,0.0,0.0483,0.1415,0.3112,0.4354,0.5581,0.6983,0.5547,0.4168,0.3818,0.1601,0.0,0.0,-0.2925,-0.4899,-0.492,-0.7856,-0.9822,0.0,-0.9822,-0.9822,-0.9822,-0.9764,-0.9659,-0.9513,-0.9445,-1.0326,-1.2238,-1.3746,-1.5144,-1.6256,-1.6742,-1.6938,-1.6804,-1.6469,-1.6206,-1.6072,0.0,-1.5784,-1.5879,-1.6574,-1.685,-1.699,-1.8226,-1.9451,-2.0567,-2.1114,-2.2076,-2.3091,-2.3091,-2.3091,-2.3033,-2.2705,-2.2432,-2.2119,-2.1494,-2.1133,-2.1341,-2.3301,-2.3839,-2.432,-2.6336,-2.6851,-2.6851,-2.6851,-2.6851,-2.6851,-2.6851,-2.6851,-2.6788,-2.6549,-2.6499,-2.6499,-2.6499,-2.6285,-2.6197,-2.6461,-2.5871,-2.5682,-2.6399,-2.5498,-2.5021,-2.5536,-2.4406,-2.3715,-2.3979,-2.3446,-2.3108,-2.3108,-2.3108,-2.3501,-2.4352,-2.5035,-2.5783,-2.6628,-2.7265,-2.76,-2.76,-2.76,-2.76,-2.76,-2.76,-2.76,0.711,0.5398,0.3885,0.2536,0.1073,0.0,0.0,0.0,0.0,0.0,0.0,0.0673,0.2942,0.368,0.4324,0.5252,0.4598,0.3533,0.2269,0.0882,0.0,0.0,-0.2916,-0.4916,-0.4916,-0.7856,-0.9815,-0.9795,-0.9812,-0.9822,-0.9822,-0.9686,-0.953,-0.9357,-0.9262,-1.0137,-1.2255,-1.2615,-1.3912,-1.6135,-1.651,-1.652,-1.6321,-1.6233,-1.6072,-1.5784,0.0,0.0,-1.5784,-1.5784,-1.5784,-1.592,-1.7037,-1.8272,-1.9633,-2.0666,-2.1943,-2.3091,-2.3091,-2.3091,-2.2964,-2.2217,-2.2012,-2.1875,-2.0977,-2.0732,-2.1241,-2.3547,-2.4191,-2.4651,-2.6768,-2.7281,-2.7341,-2.7369,-2.7331,-2.7281,-2.7281,-2.7218,-2.7065,-2.6587,-2.6499,-2.6461,-2.6386,-2.5971,-2.5737,-2.621,-2.5084,-2.4707,-2.6097,-2.5347,-2.4908,-2.5435,-2.4111,-2.3396,-2.3853,-2.3396,-2.3108,-2.3108,-2.3198,-2.3305,-2.3382,-2.4781,-2.5591,-2.5701,-2.6941,-2.76,-2.76,-2.76,-2.76,-2.76,-2.76,-2.76,0.7232,0.5396,0.3893,0.2544,0.1073,0.0,0.0,0.0,0.0,0.0,0.0,0.0407,0.1721,0.306,0.4078,0.4263,0.4105,0.3641,0.256,0.1,0.0,0.0,-0.2898,-0.4916,-0.4916,-0.7856,0.0,0.0,0.0,-0.9822,-0.9822,-0.9686,-0.9483,-0.9258,-0.9052,-0.9106,-0.9402,-1.1668,-1.2976,-1.3359,-1.5394,-1.6375,-1.6315,-1.6019,-1.5831,-1.5784,0.0,0.0,-1.5784,-1.5784,-1.5784,-1.5825,-1.6062,-1.7529,-1.9542,-1.9716,-2.1221,-2.3091,-2.3091,-2.3091,-2.3013,-2.2568,-2.2637,-2.2652,-2.1444,-2.1377,-2.1949,-2.3263,-2.3649,-2.418,-2.6669,-2.7281,-2.7394,-2.7858,-2.7607,-2.7281,-2.7281,-2.6952,-2.6612,-2.6512,-2.6499,-2.6336,-2.5824,-2.5661,-2.5485,-2.5159,-2.5222,-2.5272,-2.5121,-2.4544,-2.4356,-2.4863,-2.4293,-2.369,-2.3283,-2.3158,-2.3108,-2.3108,-2.3708,-2.4366,-2.4979,-2.5837,-2.6616,-2.7214,-2.7458,-2.76,-2.76,-2.76,-2.76,-2.76,-2.76,-2.76,0.8444,0.6657,0.5151,0.3728,0.2277,0.0941,0.0185,0.0,0.0,0.0,0.0,0.0359,0.1475,0.2401,0.2942,0.2881,0.2897,0.2559,0.1347,0.0514,0.0,0.0,-0.2145,-0.3922,-0.4739,-0.6974,-0.868,-0.9441,0.0,-0.9591,-0.9591,-0.9452,-0.9269,-0.9049,-0.8896,-0.9064,-0.9587,-1.0837,-1.2064,-1.3298,-1.4467,-1.5393,-1.6039,-1.5844,-1.5784,-1.5784,0.0,0.0,-1.5784,-1.5784,-1.5784,-1.5784,-1.5784,-1.7343,-1.9497,-1.9497,-2.1042,-2.3091,-2.3091,-2.3091,-2.2994,-2.2393,-2.2324,-2.2334,-2.1453,-2.1211,-2.1531,-2.3067,-2.3514,-2.4009,-2.6299,-2.6889,-2.7027,-2.7544,-2.7469,-2.7281,-2.7281,-2.6889,-2.6499,-2.6499,-2.6499,-2.6411,-2.6135,-2.5799,-2.5611,-2.5674,-2.5398,-2.531,-2.5636,-2.5184,-2.472,-2.4431,-2.4155,-2.3766,-2.3158,-2.3384,-2.3421,-2.312,-2.3454,-2.4018,-2.4794,-2.5536,-2.6283,-2.7008,-2.7408,-2.76,-2.76,-2.7255,-2.727,-2.7585,-2.724,-2.727,0.9468,0.7777,0.6391,0.5208,0.3561,0.1883,0.0683,0.022,0.0,0.0,0.0,0.0276,0.1243,0.1712,0.1831,0.1496,0.1697,0.1492,0.0162,0.0,0.0,0.0,-0.1461,-0.3107,-0.4569,-0.6162,0.0,-0.9228,0.0,0.0,-0.933,-0.9188,-0.9042,-0.8841,-0.8743,-0.9058,-0.9928,-1.0136,-1.116,-1.3049,-1.3632,-1.4411,-1.5384,-1.5683,-1.5784,-1.5784,0.0,0.0,0.0,-1.5784,-1.5784,-1.5784,-1.5784,-1.7343,-1.9497,-1.9497,-2.1042,-2.3091,-2.3091,-2.3033,-2.2847,-2.2236,-2.2021,-2.1904,-2.1279,-2.0908,-2.1141,-2.2957,-2.3514,-2.3986,-2.6114,-2.6663,-2.6788,-2.7216,-2.7281,-2.7291,-2.7165,-2.6801,-2.6499,-2.6499,-2.6499,-2.6449,-2.6336,-2.59,-2.5711,-2.6084,-2.5473,-2.5259,-2.6047,-2.5812,-2.5234,-2.4268,-2.4268,-2.4067,-2.3346,-2.374,-2.3753,-2.3145,-2.3245,-2.3708,-2.4509,-2.5231,-2.5973,-2.6721,-2.7306,-2.76,-2.76,-2.7076,-2.7091,-2.7585,-2.7061,-2.7106,0.9147,0.7719,0.6636,0.6374,0.424,0.2158,0.1878,0.087,0.0,0.0,0.0,0.0039,0.0157,0.1062,0.1443,0.0349,0.1086,0.1394,0.0158,0.0,0.0,0.0,-0.1507,-0.3071,-0.4564,-0.616,-0.7699,0.0,0.0,0.0,0.0,-0.9035,-0.8889,-0.8737,-0.8581,-0.8487,-0.8494,-0.9622,-1.0271,-1.0386,-1.2764,-1.3968,-1.4118,-1.5289,-1.5784,-1.5784,0.0,0.0,0.0,-1.5784,-1.5784,-1.5784,-1.5784,-1.7343,-1.9497,-1.9497,-2.1042,-2.3091,-2.3091,-2.2847,-2.2559,-2.248,-2.2451,-2.2227,-2.1036,-2.0879,-2.1471,-2.3056,-2.3514,-2.4066,-2.6582,-2.7241,-2.7253,-2.7268,-2.7281,-2.7178,-2.6675,-2.6524,-2.6499,-2.6499,-2.6499,-2.6336,-2.5774,-2.5636,-2.5448,-2.5034,-2.5285,-2.5385,-2.5021,-2.5335,-2.5385,-2.4775,-2.5172,-2.5034,-2.4004,-2.3966,-2.3753,-2.3145,-2.3796,-2.4509,-2.5259,-2.6014,-2.6747,-2.7484,-2.7575,-2.76,-2.76,-2.754,-2.754,-2.76,-2.754,-2.754,0.9005,0.8381,0.7793,0.6863,0.5545,0.4086,0.2462,0.1531,0.0782,0.0117,0.0,0.0,0.0,0.0412,0.0551,0.0087,0.0393,0.0542,0.0049,0.0,-0.0312,-0.124,-0.189,-0.3291,0.0,0.0,-0.7456,0.0,0.0,0.0,0.0,-0.8882,-0.8774,-0.8713,-0.8479,-0.837,-0.8397,-0.8715,-0.9229,-0.9998,-1.1068,-1.194,-1.2721,-1.4076,-1.4657,-1.4704,0.0,0.0,0.0,-1.5784,-1.5784,-1.5784,-1.5784,-1.6889,-1.8503,-1.9222,-2.0391,-2.1764,-2.2486,-2.249,-2.209,-2.1826,-2.1707,-2.1609,-2.1123,-2.0908,-2.1202,-2.299,-2.3514,-2.4009,-2.6237,-2.6826,-2.6738,-2.6352,-2.6562,-2.6763,-2.6549,-2.6499,-2.6499,-2.6499,-2.6499,-2.6424,-2.6185,-2.6147,-2.6084,-2.5871,-2.6021,-2.6072,-2.5871,-2.6021,-2.6072,-2.5871,-2.5686,-2.5159,-2.4092,-2.4305,-2.4104,-2.3158,-2.3855,-2.4624,-2.537,-2.6122,-2.6852,-2.76,-2.721,-2.721,-2.76,-2.6806,-2.6821,-2.7585,-2.7195,-2.721,0.8671,0.8655,0.8519,0.7437,0.6592,0.5514,0.3621,0.2416,0.1434,0.0633,0.0239,0.0,0.0,0.0,0.0,0.0,0.0,0.0,0.0,0.0,-0.0396,-0.144,-0.1846,-0.2975,0.0,-0.6142,0.0,0.0,0.0,0.0,0.0,-0.8638,-0.8601,-0.8642,-0.8401,-0.8296,-0.835,-0.8093,-0.8482,-0.941,-0.9805,-1.0489,-1.1409,-1.3102,-1.3926,-1.3974,0.0,0.0,0.0,-1.5705,-1.5705,-1.5691,-1.5605,-1.6404,-1.7704,-1.8765,-1.9762,-2.0716,-2.1924,-2.2051,-2.1641,-2.1298,-2.1103,-2.1035,-2.1035,-2.081,-2.0934,-2.259,-2.3478,-2.4218,-2.5491,-2.6155,-2.6348,-2.5737,-2.6072,-2.6499,-2.6499,-2.6499,-2.6499,-2.6499,-2.6499,-2.6499,-2.6499,-2.6499,-2.6499,-2.6499,-2.6499,-2.6436,-2.626,-2.6235,-2.6185,-2.6021,-2.5611,-2.5059,-2.4305,-2.4456,-2.4261,-2.3518,-2.4002,-2.4738,-2.5673,-2.6229,-2.6852,-2.76,-2.7151,-2.7136,-2.76,-2.6632,-2.6686,-2.7585,-2.7121,-2.7151,0.7955,0.8262,0.8455,0.8313,0.7137,0.5912,0.5647,0.3605,0.1744,0.163,0.0746,0.0,0.0,0.0,0.0,0.0,0.0,0.0,0.0,0.0,0.0,0.0,-0.1089,-0.1943,-0.2231,-0.4848,0.0,0.0,0.0,0.0,0.0,-0.8327,-0.834,-0.8479,-0.8395,-0.8197,-0.7995,-0.7992,-0.7988,-0.8038,-0.9361,-0.9998,-1.0096,-1.2711,-1.3926,0.0,0.0,0.0,0.0,-1.5398,-1.5398,-1.5371,-1.5129,-1.593,-1.7304,-1.812,-1.9187,-2.0382,-2.1492,-2.1611,-2.12,-2.119,-2.0937,-2.0615,-2.0615,-2.0605,-2.0789,-2.1735,-2.3441,-2.485,-2.4374,-2.5377,-2.6348,-2.5737,-2.6072,-2.6499,-2.6499,-2.6499,-2.6499,-2.6499,-2.6499,-2.6499,-2.6499,-2.6499,-2.6499,-2.6499,-2.6499,-2.6285,-2.5686,-2.5598,-2.541,-2.4863,-2.48,-2.4788,-2.4775,-2.4318,-2.4091,-2.4274,-2.4292,-2.4951,-2.6431,-2.651,-2.6852,-2.76,-2.7585,-2.7585,-2.76,-2.7585,-2.7585,-2.76,-2.7585,-2.7585,0.7516,0.7801,0.7991,0.7848,0.7284,0.6521,0.5646,0.4576,0.3372,0.1889,0.131,0.0884,0.0121,0.0,0.0,0.0,0.0,0.0,0.0,0.0,-0.0385,-0.1364,-0.3656,-0.5122,0.0,0.0,0.0,0.0,0.0,0.0,0.0,-0.8374,-0.8344,-0.8388,-0.8191,-0.814,-0.8197,-0.8092,-0.7988,-0.7988,-0.8432,-0.8627,-0.8726,-1.1361,0.0,0.0,0.0,0.0,0.0,-1.5149,-1.5149,-1.5135,-1.5042,-1.528,-1.5918,-1.7719,-1.8472,-1.885,-2.0756,-2.1152,-2.0732,-2.043,-2.0234,-2.0068,-1.9775,-1.9893,-2.0345,-2.1317,-2.295,-2.4399,-2.4245,-2.5049,-2.5858,-2.5636,-2.6072,-2.6499,-2.6499,-2.6499,-2.6499,-2.6499,-2.6499,-2.6499,-2.6499,-2.6499,-2.6499,-2.6499,-2.6499,-2.6424,-2.6248,-2.6223,-2.5996,-2.541,-2.5034,-2.4637,-2.4293,-2.4104,-2.4078,-2.4303,-2.4766,-2.5287,-2.5796,-2.6733,-2.7149,-2.6916,-2.6452,-2.6677,-2.76,-2.6686,-2.6692,-2.76,-2.76,-2.76,0.7275,0.7546,0.7709,0.7624,0.7414,0.6992,0.614,0.5369,0.4349,0.2552,0.1863,0.1283,0.0201,0.0,0.0,0.0,0.0,0.0,0.0,0.0,-0.0513,-0.1862,0.0,0.0,0.0,0.0,0.0,0.0,0.0,0.0,0.0,0.0,-0.8184,-0.8184,-0.8147,-0.8143,-0.8184,-0.8089,-0.7988,-0.7988,-0.7988,-0.7988,-0.8088,-1.0194,0.0,0.0,0.0,0.0,0.0,-1.4796,-1.4796,-1.4783,-1.472,-1.4703,-1.5086,-1.7211,-1.7829,-1.7928,-2.02,-2.0801,-2.0537,-2.0059,-1.9912,-1.9805,-1.9219,-1.9336,-1.9853,-2.0814,-2.2201,-2.3466,-2.3786,-2.4576,-2.531,-2.531,-2.5724,-2.6172,-2.6172,-2.6172,-2.6235,-2.6449,-2.6323,-2.6172,-2.6172,-2.6348,-2.6411,-2.6197,-2.6348,-2.6411,-2.6197,-2.6172,-2.5871,-2.5071,-2.4707,-2.428,-2.3715,-2.3941,-2.4393,-2.509,-2.5563,-2.5964,-2.6265,-2.7134,-2.7405,-2.7001,-2.6581,-2.6776,-2.76,-2.6752,-2.6767,-2.76,-2.76,-2.76,0.0,0.7444,0.7546,0.7526,0.7421,0.7244,0.6949,0.6002,0.0,0.3388,0.2347,0.1372,0.0197,0.0,0.0,0.0,0.0,0.0,0.0,0.0,-0.0413,0.0,-0.0754,0.0,0.0,0.0,0.0,0.0,0.0,0.0,0.0,0.0,-0.7872,-0.7975,-0.8153,-0.8163,-0.7992,-0.7978,-0.7978,-0.7988,-0.7978,-0.7975,-0.8021,-0.9379,0.0,0.0,0.0,0.0,0.0,-1.4412,-1.4406,-1.4359,-1.4148,-1.4208,-1.4647,-1.658,-1.7277,-1.7584,-1.9788,-2.0556,-2.0478,-1.9971,-1.9805,-1.9592,-1.8802,-1.8936,-1.9499,-2.0262,-2.1193,-2.2184,-2.3056,-2.4046,-2.48,-2.4838,-2.5222,-2.5548,-2.5586,-2.5573,-2.5711,-2.6323,-2.5971,-2.5548,-2.5586,-2.6047,-2.6223,-2.5724,-2.6109,-2.6235,-2.5661,-2.5598,-2.5184,-2.4117,-2.4004,-2.3766,-2.3236,-2.3884,-2.4894,-2.6336,-2.6484,-2.6811,-2.75,-2.757,-2.7555,-2.7465,-2.7465,-2.7435,-2.739,-2.748,-2.7525,-2.7525,-2.757,-2.76,0.6973,0.0,0.7031,0.6797,0.6797,0.678,0.0,0.6228,0.5466,0.3522,0.2929,0.2202,0.0321,0.0,0.0,0.0,0.0,0.0,0.0,0.0,-0.0097,-0.0397,-0.1187,-0.198,0.0,0.0,0.0,0.0,0.0,0.0,0.0,0.0,-0.6781,-0.7816,-0.7794,-0.7848,-0.7988,-0.7874,-0.7874,-0.7988,-0.7919,-0.7865,-0.7907,-0.9064,0.0,0.0,0.0,0.0,-1.2595,-1.3461,-1.368,-1.3534,-1.3646,-1.3613,-1.3797,-1.6362,-1.7152,-1.7299,-1.9354,-2.0068,-1.9941,-1.9143,-1.8685,-1.8418,-1.8213,-1.8906,-1.9666,-1.9215,-2.0495,-2.216,-2.2808,-2.3879,-2.4888,-2.5322,-2.5197,-2.5109,-2.5511,-2.5285,-2.5159,-2.5686,-2.5372,-2.5134,-2.5523,-2.5385,-2.5448,-2.6185,-2.6034,-2.5749,-2.5611,-2.5598,-2.5184,-2.4117,-2.4004,-2.3999,-2.4024,-2.4205,-2.4681,-2.5591,-2.6203,-2.6607,-2.6817,-2.733,-2.7121,-2.6093,-2.6078,-2.5824,-2.5307,-2.6333,-2.6851,-2.6866,-2.736,-2.76,0.6926,0.6879,0.6943,0.682,0.6793,0.6746,0.6515,0.645,0.5901,0.4187,0.3435,0.2628,0.1037,0.032,0.0,0.0,0.0,0.0,0.0,0.0,0.0,0.0,-0.0715,0.0,0.0,0.0,0.0,0.0,0.0,0.0,0.0,0.0,-0.554,-0.684,-0.6763,-0.7036,-0.7786,-0.7756,-0.7756,-0.7838,-0.7753,-0.7712,-0.7712,-0.8323,0.0,0.0,0.0,0.0,-1.27,-1.3204,-1.3313,-1.3227,-1.3347,-1.3347,-1.3478,-1.5905,-1.6698,-1.6864,-1.8929,-1.9492,-1.9212,-1.8754,-1.8451,-1.8227,-1.8066,-1.8623,-1.9262,-1.8993,-2.0105,-2.1587,-2.2547,-2.3421,-2.4148,-2.4732,-2.4644,-2.4594,-2.5121,-2.482,-2.4669,-2.5448,-2.4971,-2.4531,-2.482,-2.4845,-2.4946,-2.5317,-2.5272,-2.5247,-2.5247,-2.5247,-2.4921,-2.4092,-2.4004,-2.4091,-2.4287,-2.4595,-2.4996,-2.5416,-2.5814,-2.6057,-2.6144,-2.6482,-2.6482,-2.6063,-2.5764,-2.5561,-2.5525,-2.5944,-2.6303,-2.6602,-2.6986,-2.73,0.694,0.6915,0.7085,0.7041,0.6957,0.6839,0.6705,0.6566,0.6148,0.4945,0.3984,0.2973,0.181,0.0842,0.0204,0.0041,0.0,0.0,0.0,0.0,0.0,0.0,0.0,0.0,0.0,0.0,0.0,0.0,0.0,0.0,0.0,0.0,0.0,-0.5472,-0.5507,-0.6048,-0.7224,-0.7436,-0.7577,-0.76,-0.7577,-0.7563,-0.7563,-0.7519,0.0,0.0,0.0,0.0,-1.2988,-1.3074,-1.3113,-1.308,-1.312,-1.3113,-1.3308,-1.5242,-1.6035,-1.6447,-1.8495,-1.8906,-1.851,-1.851,-1.851,-1.8442,-1.8081,-1.8227,-1.8596,-1.899,-1.9868,-2.103,-2.235,-2.2971,-2.3358,-2.3879,-2.3929,-2.4017,-2.4569,-2.4255,-2.4167,-2.5159,-2.4556,-2.3891,-2.3979,-2.4318,-2.4469,-2.4167,-2.4456,-2.4662,-2.4662,-2.4662,-2.4481,-2.3929,-2.3866,-2.3989,-2.4274,-2.4879,-2.5327,-2.5483,-2.5593,-2.5658,-2.5606,-2.551,-2.5719,-2.6273,-2.5644,-2.557,-2.6138,-2.5674,-2.5749,-2.6303,-2.6393,-2.6761,0.6706,0.6915,0.7038,0.6831,0.6851,0.6854,0.6573,0.6528,0.6148,0.4945,0.4569,0.3853,0.197,0.1458,0.1063,0.0167,0.0,0.0,0.0,0.0,0.0,0.0,0.0,0.0,0.0,0.0,0.0,0.0,0.0,0.0,0.0,0.0,0.0,-0.4083,-0.481,-0.5273,-0.5464,-0.6761,-0.7472,-0.7597,-0.7468,-0.7453,-0.7443,-0.7146,-0.7191,0.0,0.0,0.0,-1.0268,-1.2125,-1.271,-1.2465,-1.2757,-1.2703,-1.2648,-1.44,-1.5368,-1.6142,-1.8071,-1.8432,-1.8105,-1.8105,-1.8105,-1.8096,-1.8027,-1.8057,-1.8096,-1.8187,-1.9682,-2.1493,-2.2433,-2.3264,-2.3891,-2.3979,-2.3597,-2.3396,-2.4004,-2.3647,-2.3434,-2.4117,-2.3684,-2.3396,-2.3916,-2.3622,-2.3659,-2.4525,-2.4368,-2.4117,-2.4117,-2.4117,-2.3904,-2.3296,-2.3233,-2.3526,-2.4234,-2.4408,-2.4763,-2.5457,-2.6075,-2.6191,-2.5606,-2.5053,-2.4799,-2.4903,-2.4253,-2.3954,-2.4059,-2.4515,-2.4814,-2.4918,-2.5495,-2.5809,0.66,0.6617,0.6787,0.6817,0.6997,0.7088,0.6787,0.6719,0.6527,0.5814,0.5215,0.4316,0.2708,0.1966,0.1259,0.0176,0.0,0.0,0.0,0.0,0.0,0.0,0.0,0.0,0.0,0.0,0.0,0.0,0.0,0.0,0.0,0.0,0.0,0.0,-0.3114,-0.3889,-0.51,-0.5818,-0.6468,-0.7112,-0.7044,-0.701,-0.7004,-0.6868,-0.7136,-0.7784,0.0,-0.9943,-1.0545,-1.1954,-1.2425,-1.2318,-1.2452,-1.2425,-1.2516,-1.4333,-1.5551,-1.6439,-1.7786,-1.813,-1.8008,-1.8008,-1.8008,-1.8008,-1.8008,-1.7852,-1.7766,-1.82,-1.9257,-2.0369,-2.0763,-2.1873,-2.2866,-2.2866,-2.2978,-2.3258,-2.3879,-2.354,-2.3283,-2.3891,-2.3496,-2.3195,-2.3459,-2.3283,-2.3283,-2.3797,-2.3659,-2.3496,-2.3496,-2.3496,-2.3396,-2.3133,-2.3108,-2.359,-2.4781,-2.4908,-2.508,-2.5483,-2.5501,-2.5367,-2.5068,-2.441,-2.4231,-2.459,-2.3954,-2.3789,-2.4141,-2.4081,-2.4246,-2.4619,-2.4918,-2.5247,0.6863,0.6935,0.7178,0.7182,0.7219,0.7183,0.7061,0.6937,0.6871,0.6671,0.5943,0.4928,0.347,0.2359,0.1284,0.0182,0.0234,0.0332,0.0048,0.0,0.0,0.0,0.0,0.0,0.0,0.0,0.0,0.0,0.0,0.0,0.0,0.0,0.0,0.0,-0.161,-0.2557,-0.4283,-0.475,-0.556,-0.6702,-0.6702,-0.6702,-0.6698,-0.6664,-0.7129,-0.8004,-0.8769,-0.9738,-1.0814,-1.164,-1.2077,-1.2305,-1.2305,-1.2305,-1.2519,-1.4235,-1.5438,-1.6428,-1.7364,-1.7828,-1.8008,-1.8008,-1.8008,-1.7988,-1.7891,-1.7637,-1.7537,-1.8146,-1.8587,-1.8955,-1.9327,-2.0501,-2.1596,-2.1596,-2.2218,-2.2947,-2.3412,-2.3286,-2.3233,-2.3715,-2.3409,-2.3108,-2.3108,-2.3108,-2.3108,-2.3108,-2.3108,-2.3108,-2.3108,-2.3108,-2.3155,-2.3365,-2.3395,-2.3936,-2.53,-2.5585,-2.5708,-2.5763,-2.5331,-2.4933,-2.4619,-2.4096,-2.4014,-2.435,-2.3864,-2.3864,-2.4365,-2.3864,-2.3864,-2.4365,-2.4365,-2.4634,0.7774,0.8471,0.893,0.8257,0.7428,0.6851,0.7248,0.7126,0.6916,0.7024,0.69,0.6081,0.3942,0.2595,0.1406,0.0179,0.096,0.1258,0.0,0.0,0.0,0.0,0.0,0.0,0.0,0.0,0.0,0.0,0.0,0.0,0.0,0.0,0.0,0.0,0.0,-0.1693,-0.1851,-0.3647,-0.526,-0.6702,-0.6702,-0.6702,-0.6695,-0.6552,-0.6568,-0.6678,-0.753,-0.8489,-0.9511,-1.0496,-1.1465,-1.2305,-1.2305,-1.2305,-1.2409,-1.3455,-1.445,-1.5438,-1.6393,-1.7285,-1.8008,-1.8008,-1.8008,-1.7939,-1.7549,-1.7402,-1.7416,-1.7481,-1.7501,-1.7893,-1.946,-2.0275,-2.0687,-2.0687,-2.1365,-2.1982,-2.203,-2.2604,-2.3108,-2.3158,-2.3133,-2.3108,-2.3108,-2.3108,-2.3108,-2.3108,-2.3108,-2.3108,-2.3108,-2.3108,-2.3395,-2.4147,-2.4205,-2.4552,-2.5426,-2.6123,-2.651,-2.6514,-2.6473,-2.5899,-2.4649,-2.456,-2.4261,-2.3684,-2.3625,-2.3625,-2.367,-2.3625,-2.3625,-2.367,-2.367,-2.3699,0.7358,0.8138,0.8774,0.8852,0.8891,0.8571,0.7452,0.7214,0.7193,0.7105,0.7173,0.6681,0.4858,0.2983,0.1537,0.1073,0.0821,0.0512,0.0,0.0,0.0,0.0,0.0,0.0,0.0,0.0,0.0,0.0,0.0,0.0,0.0,0.0,0.0,0.0,0.0,-0.0936,-0.1609,-0.2332,-0.3583,-0.5334,-0.5964,-0.6332,-0.6463,-0.6405,-0.6288,-0.627,-0.7776,-0.8599,-0.899,-1.0527,-1.1397,-1.1757,-1.1757,-1.1757,-1.1883,-1.3019,-1.4065,-1.5057,-1.62,-1.7048,-1.7627,-1.7627,-1.7441,-1.7155,-1.6999,-1.6787,-1.6652,-1.6904,-1.695,-1.7251,-1.8412,-1.905,-1.9372,-1.9372,-2.0444,-2.1451,-2.1451,-2.2065,-2.2594,-2.2594,-2.2594,-2.2493,-2.2171,-2.2397,-2.2594,-2.2594,-2.2594,-2.2594,-2.2594,-2.2594,-2.2602,-2.2562,-2.3668,-2.4555,-2.4859,-2.5928,-2.6422,-2.6004,-2.5974,-2.5749,-2.5232,-2.4829,-2.4276,-2.361,-2.3595,-2.3595,-2.3595,-2.3595,-2.3595,-2.3595,-2.3595,-2.3595,0.7584,0.8421,0.9169,0.974,1.0269,1.0254,0.8694,0.8098,0.7723,0.745,0.7083,0.6499,0.5397,0.3809,0.0,0.0,0.1768,0.0,0.0,0.0,0.0,0.0,0.0,0.0,0.0,0.0,0.0,0.0,0.0,0.0,0.0,0.0,0.0,0.0,0.0,0.0,-0.1079,-0.1354,-0.2346,-0.4011,-0.4955,-0.5698,-0.6153,-0.6153,-0.6057,-0.5989,-0.723,-0.8091,-0.8689,-0.9937,-1.0819,-1.1389,-1.1389,-1.1389,-1.1518,-1.2373,-1.3302,-1.4283,-1.542,-1.6236,-1.6833,-1.7113,-1.6973,-1.6677,-1.6562,-1.6309,-1.6153,-1.6436,-1.6523,-1.6689,-1.7389,-1.7998,-1.8409,-1.8364,-1.9574,-2.0763,-2.0867,-2.1501,-2.2046,-2.2046,-2.2046,-2.1933,-2.1556,-2.1794,-2.2046,-2.2046,-2.2046,-2.2046,-2.2046,-2.2046,-2.2078,-2.2156,-2.3619,-2.4552,-2.453,-2.5429,-2.5779,-2.5307,-2.5277,-2.5277,-2.5277,-2.4844,-2.4276,-2.361,-2.3595,-2.3595,-2.3595,-2.3595,-2.3595,-2.3595,-2.3595,-2.3595,0.8711,0.9715,1.0494,1.1053,1.1467,1.1618,1.1187,0.9849,0.8559,0.8101,0.6708,0.559,0.5429,0.5134,0.0,0.3317,0.0,0.0,0.0,0.0,0.0,0.0,0.0,0.0,0.0,0.0,0.0,0.0,0.0,0.0,0.0,0.0,0.0,0.0,0.0,0.0,0.0,-0.0851,-0.1833,-0.2891,-0.3763,-0.4751,-0.58,-0.58,-0.58,-0.5789,-0.5647,-0.6739,-0.8564,-0.8444,-0.9576,-1.1382,-1.1382,-1.1382,-1.1382,-1.1389,-1.203,-1.3009,-1.3826,-1.4696,-1.5611,-1.6424,-1.6687,-1.659,-1.6222,-1.6085,-1.6085,-1.6095,-1.6095,-1.6193,-1.658,-1.733,-1.7931,-1.7833,-1.8766,-1.9764,-2.0117,-2.088,-2.1481,-2.1481,-2.1481,-2.1481,-2.1468,-2.1481,-2.1481,-2.1481,-2.1481,-2.1481,-2.1481,-2.1509,-2.2023,-2.342,-2.4259,-2.4674,-2.4604,-2.4605,-2.4605,-2.459,-2.459,-2.459,-2.4605,-2.4605,-2.4276,-2.361,-2.3595,-2.3595,-2.3595,-2.3595,-2.3595,-2.3595,-2.3595,-2.3595,0.7084,0.8115,0.9061,1.0423,1.1447,1.2123,1.215,1.0509,0.8718,0.7787,0.6988,0.6501,0.6457,0.551,0.0,0.0,0.0,0.0,0.0,0.0,0.0,0.0,0.0,0.0,0.0,0.0,0.0,0.0,0.0,0.0,0.0,0.0,0.0,0.0,0.0,0.0,0.0,-0.0254,-0.1143,-0.2621,-0.2882,-0.3982,-0.58,-0.58,-0.5688,-0.5555,-0.6138,-0.6634,-0.7158,-0.8484,-0.9752,-1.0847,-1.0847,-1.0847,-1.0874,-1.1049,-1.1746,-1.2623,-1.3091,-1.3848,-1.4671,-1.5241,-1.519,-1.4962,-1.5459,-1.54,-1.5322,-1.5928,-1.6095,-1.6124,-1.6261,-1.668,-1.7155,-1.7316,-1.8132,-1.902,-1.9644,-2.0385,-2.0943,-2.0943,-2.0943,-2.0805,-2.0376,-2.0666,-2.0943,-2.0943,-2.0943,-2.0943,-2.0943,-2.0963,-2.1335,-2.2165,-2.3297,-2.3979,-2.3888,-2.4335,-2.4395,-2.3939,-2.3909,-2.4096,-2.459,-2.4605,-2.4276,-2.361,-2.3595,-2.3595,-2.3595,-2.3595,-2.3595,-2.3595,-2.3595,-2.3595,0.6616,0.7522,0.8318,0.9911,1.097,1.1669,1.1842,1.0598,0.9179,0.8402,0.7524,0.6849,0.677,0.5891,0.0,0.0,0.0,0.0,0.0,0.0,0.0,0.0,0.0,0.0,0.0,0.0,0.0,0.0,0.0,0.0,0.0,0.0,0.0,0.0,0.0,0.0,0.0,0.0,-0.0696,-0.2022,-0.2354,-0.3373,-0.5005,-0.5315,-0.5352,-0.525,-0.6125,-0.6395,-0.6393,-0.8262,-0.9334,-0.9833,-1.0115,-1.0311,-1.0419,-1.0448,-1.0919,-1.1561,-1.1966,-1.2456,-1.3036,-1.3897,-1.3959,-1.3897,-1.4866,-1.498,-1.4932,-1.5645,-1.5831,-1.5831,-1.5831,-1.5879,-1.6108,-1.6767,-1.7305,-1.7979,-1.901,-1.9463,-1.9788,-2.0249,-2.0352,-2.0239,-1.9861,-2.0087,-2.0352,-2.0352,-2.0352,-2.0277,-2.0037,-2.0487,-2.1028,-2.1639,-2.2663,-2.3387,-2.3581,-2.3984,-2.4022,-2.3625,-2.3595,-2.3789,-2.4186,-2.4201,-2.4007,-2.361,-2.3595,-2.3595,-2.3595,-2.3595,-2.3595,-2.3595,-2.3595,-2.3595,0.6622,0.7397,0.7974,0.9397,1.0193,1.0679,1.0804,1.0276,0.9673,0.946,0.8047,0.68,0.6549,0.62,0.0,0.0,0.0,0.0,0.0,0.0,0.0,0.0,0.0,0.0,0.0,0.0,0.0,0.0,0.0,0.0,0.0,0.0,0.0,0.0,0.0,0.0,0.0,0.0,-0.0439,0.0,-0.2015,-0.2846,-0.378,-0.4537,-0.4881,-0.4928,-0.5723,-0.6045,-0.6109,-0.7712,-0.8457,-0.8669,-0.9324,-0.9781,-1.0047,-0.978,-0.9846,-1.0124,-1.0617,-1.0799,-1.1087,-1.2512,-1.2978,-1.3195,-1.4387,-1.4697,-1.4784,-1.5176,-1.5264,-1.5264,-1.5264,-1.501,-1.501,-1.6048,-1.6339,-1.6776,-1.8232,-1.8225,-1.8267,-1.9405,-1.9608,-1.9597,-1.9648,-1.966,-1.966,-1.966,-1.966,-1.9484,-1.8995,-1.9968,-2.0941,-2.1474,-2.2175,-2.2826,-2.3387,-2.343,-2.3445,-2.3505,-2.352,-2.3535,-2.3595,-2.3595,-2.3595,-2.3595,-2.3595,-2.3595,-2.3595,-2.3595,-2.3595,-2.3595,-2.3595,-2.3595,0.4558,0.5561,0.6622,0.8177,0.9784,1.105,1.1144,1.0189,0.9138,0.8713,0.7533,0.6515,0.6378,0.5966,0.0,0.0,0.0,0.0,0.0,0.0,0.0,0.0,0.0,0.0,0.0,0.0,0.0,0.0,0.0,0.0,0.0,0.0,0.0,0.0,0.0,0.0,0.0,0.0,-0.0396,0.0,-0.1327,-0.2095,-0.3452,-0.4449,-0.4853,-0.4741,-0.494,-0.5409,-0.6039,-0.6527,-0.7472,-0.861,-0.8786,-0.9239,-0.9773,-0.9735,-0.9726,-0.9796,-0.9932,-1.0165,-1.0614,-1.1784,-1.2131,-1.2339,-1.3811,-1.4043,-1.3867,-1.427,-1.4377,-1.4377,-1.4377,-1.4319,-1.4324,-1.4575,-1.5049,-1.5823,-1.7089,-1.7054,-1.7076,-1.8115,-1.8039,-1.7995,-1.847,-1.8543,-1.8543,-1.8543,-1.8543,-1.8505,-1.8392,-1.9367,-2.0146,-2.0266,-2.1275,-2.1977,-2.2113,-2.2099,-2.2323,-2.2868,-2.2897,-2.3122,-2.358,-2.3595,-2.3595,-2.3595,-2.3595,-2.3595,-2.3595,-2.3595,-2.3595,-2.3595,-2.3595,-2.3595,0.3916,0.4814,0.5638,0.7099,0.8711,0.9952,0.9938,0.9215,0.8498,0.8255,0.7245,0.63,0.5934,0.0,0.0,0.0,0.0,0.0,0.0,0.0,0.0,0.0,0.0,0.0,0.0,0.0,0.0,0.0,0.0,0.0,0.0,0.0,0.0,0.0,0.0517,0.0371,0.0,0.0,-0.0196,-0.0588,-0.0923,-0.1898,-0.3375,-0.4279,-0.4657,-0.461,-0.461,-0.4858,-0.5333,-0.6085,-0.6896,-0.7728,-0.8409,-0.9002,-0.9452,-0.9312,-0.9352,-0.9452,-0.9312,-0.9398,-0.9739,-1.0612,-1.1101,-1.158,-1.293,-1.3413,-1.3594,-1.3987,-1.4104,-1.4104,-1.4104,-1.3958,-1.3802,-1.3802,-1.4105,-1.4723,-1.5866,-1.5811,-1.5939,-1.7342,-1.7433,-1.7485,-1.8109,-1.8204,-1.8116,-1.7852,-1.8041,-1.8197,-1.8205,-1.9203,-2.0009,-2.0267,-2.1132,-2.1695,-2.1695,-2.1695,-2.1844,-2.2209,-2.2523,-2.2838,-2.3167,-2.3445,-2.3595,-2.3595,-2.3595,-2.3595,-2.3595,-2.3595,-2.3595,-2.3595,-2.3595,-2.3595,0.3703,0.4601,0.5237,0.6397,0.7514,0.8292,0.8077,0.7876,0.7672,0.7614,0.6829,0.5992,0.0,0.0,0.0,0.0,0.0,0.0,0.0,0.0,0.0,0.0,0.0,0.0,0.0,0.0,0.0,0.0,0.0,0.0,0.0,0.0,0.1925,0.1312,0.1174,0.0811,0.0196,0.0056,0.0,0.0,-0.0755,-0.1842,-0.3204,-0.3959,-0.4377,-0.4491,-0.4491,-0.4491,-0.4598,-0.5746,-0.6372,-0.6723,-0.7937,-0.8709,-0.9111,-0.8871,-0.8931,-0.9104,-0.8891,-0.8804,-0.8903,-0.9588,-1.0236,-1.0998,-1.2049,-1.287,-1.3477,-1.3792,-1.389,-1.389,-1.389,-1.3662,-1.3398,-1.3398,-1.3398,-1.3684,-1.4692,-1.4595,-1.4817,-1.6617,-1.7063,-1.7314,-1.7809,-1.7915,-1.7765,-1.73,-1.7626,-1.7923,-1.7913,-1.8817,-1.9647,-2.0187,-2.0836,-2.1238,-2.135,-2.135,-2.144,-2.168,-2.2224,-2.2628,-2.2853,-2.3325,-2.3595,-2.3595,-2.3595,-2.3595,-2.3595,-2.3595,-2.3595,-2.3595,-2.3595,-2.3595,0.2787,0.4576,0.6155,0.6458,0.674,0.6901,0.6652,0.6557,0.6411,0.0,0.571,0.5491,0.0,0.0,0.0,0.0,0.0,0.0,0.0,0.0,0.0,0.0,0.0,0.0,0.0,0.0,0.0,0.0,0.0,0.0,0.0,0.2593,0.2147,0.2063,0.1424,0.1062,0.095,0.0308,0.0,0.0,-0.0755,-0.1535,-0.2397,-0.3121,-0.3846,-0.4491,-0.4491,-0.4491,-0.4519,-0.4708,-0.55,-0.6615,-0.6804,-0.7687,-0.8858,-0.8824,-0.8831,-0.8858,-0.8824,-0.8804,-0.8903,-0.9588,-1.0236,-1.0948,-1.1678,-1.2404,-1.3003,-1.3062,-1.3071,-1.3071,-1.3071,-1.3032,-1.2993,-1.2993,-1.2993,-1.3126,-1.3623,-1.3402,-1.3606,-1.5257,-1.6123,-1.6626,-1.6726,-1.6726,-1.6701,-1.6626,-1.6676,-1.6732,-1.6721,-1.7279,-1.7854,-1.8381,-1.8945,-1.947,-1.9941,-1.9977,-2.0453,-2.162,-2.1784,-2.2323,-2.343,-2.355,-2.3595,-2.3595,-2.3595,-2.3595,-2.3595,-2.3595,-2.3595,-2.3595,-2.3595,-2.3595,0.1883,0.3632,0.5173,0.5344,0.5783,0.6162,0.6034,0.5568,0.5075,0.4862,0.4581,0.0,0.0,0.0,0.0,0.0,0.0,0.0,0.0,0.0,0.0,0.0,0.0,0.0,0.0,0.0,0.0,0.0,0.0,0.0,0.4015,0.368,0.3289,0.2899,0.2565,0.0,0.1118,0.0783,0.042,0.0,-0.0755,-0.1256,-0.1619,-0.2815,-0.3763,-0.4491,-0.4491,-0.4491,-0.4515,-0.4893,-0.5437,-0.6064,-0.688,-0.7616,-0.8235,-0.8646,-0.8804,-0.8804,-0.8804,-0.8804,-0.8857,-0.9133,-0.9684,-1.0364,-1.104,-1.1724,-1.2369,-1.2774,-1.2905,-1.2905,-1.2905,-1.2905,-1.2905,-1.2905,-1.2905,-1.2954,-1.314,-1.3008,-1.3308,-1.4697,-1.5529,-1.6095,-1.6445,-1.65,-1.65,-1.65,-1.65,-1.6616,-1.6909,-1.7146,-1.7626,-1.8458,-1.8746,-1.9132,-1.9639,-1.9708,-1.9947,-2.0528,-2.0932,-2.156,-2.2503,-2.2912,-2.3236,-2.3595,-2.3595,-2.3595,-2.3595,-2.3595,-2.3595,-2.3595,-2.3595,-2.3595,0.1312,0.2657,0.3964,0.4292,0.4932,0.548,0.5587,0.4879,0.4172,0.0,0.0,0.0,0.0,0.0,0.0,0.0,0.0,0.0,0.0,0.0,0.0,0.0,0.0,0.0,0.0,0.0,0.0,0.0,0.0,0.0,0.4491,0.4491,0.4239,0.3707,0.3483,0.2732,0.1396,0.1006,0.0532,0.0,-0.056,-0.0923,-0.1146,-0.2287,-0.3302,-0.416,-0.4391,-0.4491,-0.4546,-0.503,-0.5326,-0.5586,-0.6913,-0.7522,-0.7735,-0.8508,-0.8804,-0.8798,-0.8724,-0.8744,-0.8784,-0.8631,-0.913,-0.9876,-1.0311,-1.1089,-1.1922,-1.2476,-1.2774,-1.2905,-1.2905,-1.2905,-1.2905,-1.2905,-1.2905,-1.2905,-1.2905,-1.3017,-1.3454,-1.4502,-1.5186,-1.5798,-1.6402,-1.65,-1.65,-1.65,-1.65,-1.6637,-1.7055,-1.7097,-1.7504,-1.8574,-1.8688,-1.8968,-1.9639,-1.9708,-1.9783,-1.9929,-2.0423,-2.1006,-2.1665,-2.2179,-2.2748,-2.3355,-2.337,-2.3445,-2.3595,-2.3595,-2.3595,-2.3595,-2.3595,-2.3595,0.1298,0.2138,0.3127,0.3858,0.4314,0.4653,0.5065,0.4644,0.4131,0.3874,0.0,0.0,0.0,0.0,0.0,0.0,0.0,0.0,0.0,0.0,0.0,0.0,0.0,0.0,0.0,0.0,0.0,0.0,0.0,0.0,0.4491,0.4491,0.4491,0.4436,0.3707,0.2926,0.2147,0.0755,0.0028,0.0,-0.0028,-0.042,-0.109,-0.1174,-0.1921,-0.3226,-0.4126,-0.4491,-0.4491,-0.4546,-0.4861,-0.5414,-0.6316,-0.7013,-0.7612,-0.8489,-0.8804,-0.8764,-0.8516,-0.8577,-0.8717,-0.8132,-0.8785,-0.9754,-0.9547,-1.0574,-1.1814,-1.1839,-1.2369,-1.2905,-1.2905,-1.2905,-1.2905,-1.2905,-1.2905,-1.2905,-1.2905,-1.3348,-1.3933,-1.4583,-1.5186,-1.5798,-1.6402,-1.65,-1.65,-1.65,-1.65,-1.6522,-1.6531,-1.6531,-1.6951,-1.8027,-1.8145,-1.8554,-1.9603,-1.9708,-1.9959,-2.0598,-2.0673,-2.1006,-2.1665,-2.1724,-2.2074,-2.2733,-2.2748,-2.3032,-2.3595,-2.3595,-2.3595,-2.3595,-2.3595,-2.3595,0.0459,0.1097,0.1967,0.2825,0.3475,0.4119,0.482,0.3997,0.3072,0.2979,0.0,0.0,0.0,0.0,0.0,0.0,0.0,0.0,0.0,0.0,0.0,0.0,0.0,0.0,0.0,0.0,0.0,0.0,0.0,0.0,0.5136,0.4732,0.4491,0.4491,0.4208,0.3456,0.2204,0.1202,0.0476,0.0,0.0,-0.0136,-0.0406,-0.0873,-0.1352,-0.1875,-0.3092,-0.3813,-0.4178,-0.4178,-0.4298,-0.4556,-0.5323,-0.6011,-0.6627,-0.7418,-0.794,-0.8205,-0.8099,-0.8132,-0.8185,-0.7979,-0.8441,-0.9208,-0.985,-1.0682,-1.1571,-1.2303,-1.2691,-1.2905,-1.2905,-1.2905,-1.2905,-1.2905,-1.2905,-1.2905,-1.2905,-1.3372,-1.398,-1.4583,-1.5186,-1.5798,-1.6402,-1.65,-1.65,-1.65,-1.65,-1.65,-1.65,-1.65,-1.6909,-1.7987,-1.8106,-1.8535,-1.9603,-1.9708,-1.9813,-2.0034,-2.0049,-2.0363,-2.1036,-2.1066,-2.138,-2.2059,-2.2478,-2.3002,-2.3595,-2.3595,-2.3595,-2.3595,-2.3595,-2.3595,0.0,0.0344,0.0996,0.2111,0.2813,0.3424,0.4228,0.3421,0.2398,0.2092,0.0,0.0,0.0,0.0,0.0,0.0,0.0,0.0,0.0,0.0,0.0,0.0,0.0,0.0,0.0,0.0,0.0,0.0,0.0,0.0,0.5515,0.5085,0.4732,0.4519,0.4267,0.3624,0.2593,0.1591,0.0862,0.0358,0.0108,0.0,-0.0026,-0.051,-0.0851,-0.1089,-0.1975,-0.2881,-0.3717,-0.392,-0.3964,-0.4021,-0.48,-0.5319,-0.5749,-0.6745,-0.7314,-0.7648,-0.7739,-0.7819,-0.7872,-0.7666,-0.7988,-0.856,-0.9236,-1.0019,-1.0839,-1.1519,-1.219,-1.2647,-1.2545,-1.2715,-1.2905,-1.2905,-1.2905,-1.2954,-1.3152,-1.3348,-1.3671,-1.4283,-1.4892,-1.5477,-1.6095,-1.638,-1.65,-1.65,-1.65,-1.65,-1.65,-1.65,-1.6909,-1.7987,-1.8106,-1.8535,-1.9603,-1.9708,-1.9708,-1.9708,-1.9708,-1.9884,-2.0348,-2.0363,-2.0677,-2.135,-2.1799,-2.2443,-2.3295,-2.349,-2.3595,-2.3595,-2.3595,-2.3595,0.0,0.0,0.0,0.1829,0.2342,0.2654,0.3283,0.0,0.2235,0.1322,0.0,0.0,0.0,0.0,0.0,0.0,0.0,0.0,0.0,0.0,0.0,0.0,0.0,0.0,0.0,0.0,0.0,0.0,0.0,0.6312,0.5569,0.5487,0.5164,0.4515,0.3818,0.34,0.3287,0.1868,0.1152,0.1087,0.0371,0.0026,0.0,0.0,-0.032,-0.0879,-0.0902,-0.172,-0.308,-0.3705,-0.3896,-0.3869,-0.4715,-0.4981,-0.5065,-0.6493,-0.7044,-0.7091,-0.7367,-0.7649,-0.7786,-0.7193,-0.7399,-0.7849,-0.7623,-0.8566,-0.9699,-0.9522,-1.0813,-1.217,-1.1896,-1.2369,-1.2905,-1.2905,-1.2905,-1.3079,-1.3661,-1.3348,-1.3128,-1.3732,-1.4329,-1.4949,-1.5521,-1.6117,-1.65,-1.65,-1.65,-1.65,-1.65,-1.6522,-1.693,-1.7987,-1.8125,-1.8554,-1.9603,-1.9708,-1.9708,-1.9708,-1.9708,-1.9708,-1.9708,-1.9708,-2.0004,-2.0658,-2.0688,-2.1335,-2.2643,-2.3266,-2.358,-2.3595,-2.3595,-2.3595,0.0,0.0,0.0,0.0,0.0,0.0,0.0,0.0,0.0,0.0,0.0,0.0,0.0,0.0,0.0,0.0,0.0,0.0,0.0,0.0,0.0,0.0,0.0,0.0,0.0,0.0,0.0,0.0,0.7803,0.7074,0.634,0.5332,0.4677,0.4519,0.4294,0.3901,0.3314,0.2805,0.2061,0.1087,0.0806,0.0416,0.0,0.0,-0.0092,-0.0274,-0.0707,-0.1123,-0.1595,-0.2631,-0.3303,-0.3688,-0.3911,-0.418,-0.4448,-0.4963,-0.5602,-0.6268,-0.648,-0.6855,-0.7226,-0.7053,-0.7418,-0.8019,-0.8623,-0.9584,-1.0628,-1.124,-1.204,-1.2701,-1.2604,-1.2749,-1.2905,-1.2905,-1.3238,-1.36,-1.3755,-1.4014,-1.4376,-1.4971,-1.5599,-1.6064,-1.6216,-1.6402,-1.65,-1.65,-1.65,-1.65,-1.65,-1.6837,-1.7353,-1.8027,-1.8458,-1.8968,-1.9639,-1.9708,-1.9708,-1.9708,-1.9708,-1.9708,-1.9708,-1.9708,-1.9798,-1.9974,-2.0434,-2.0882,-2.1261,-2.2383,-2.3182,-2.3595,-2.3595,-2.3595,0.0,0.0,0.0274,0.1445,0.0,0.0,0.2935,0.2619,0.0,0.0,0.0,0.0,0.0,0.0,0.0,0.0,0.0,0.0,0.0,0.0,0.0,0.0,0.0,0.0,0.0,0.0,0.0,0.0,0.8553,0.783,0.7101,0.5683,0.4921,0.4921,0.4653,0.4267,0.3818,0.342,0.2671,0.1557,0.117,0.0648,0.0,0.0,0.0,-0.0022,-0.0381,-0.0665,-0.0959,-0.1651,-0.2459,-0.3255,-0.3442,-0.3641,-0.3864,-0.4136,-0.4796,-0.5616,-0.5961,-0.6483,-0.7,-0.7,-0.7238,-0.7629,-0.8178,-0.9086,-1.0008,-1.0449,-1.1219,-1.1997,-1.2287,-1.2357,-1.2406,-1.2568,-1.2872,-1.3315,-1.4007,-1.4445,-1.4789,-1.5175,-1.571,-1.6117,-1.6117,-1.6324,-1.65,-1.65,-1.65,-1.6573,-1.6795,-1.7118,-1.7585,-1.8361,-1.8708,-1.9132,-1.9639,-1.9708,-1.9708,-1.9708,-1.9708,-1.9708,-1.9708,-1.9708,-1.9708,-1.9708,-2.0079,-2.0423,-2.0703,-2.1754,-2.2613,-2.3242,-2.3475,-2.3595,0.0,0.0,0.0185,0.0919,0.1584,0.0,0.1351,0.1675,0.1703,0.0,0.0,0.0,0.0,0.0,0.0,0.0,0.0,0.0,0.0,0.0,0.0,0.0,0.0,0.0,0.0,0.0,0.9961,0.9814,0.9106,0.8401,0.7723,0.6384,0.5597,0.5515,0.4921,0.457,0.4491,0.3834,0.3089,0.229,0.1555,0.0821,0.009,0.0022,0.0,0.0,0.0,-0.0308,-0.0803,-0.0866,-0.1607,-0.2715,-0.3145,-0.3276,-0.3303,-0.3746,-0.4344,-0.5038,-0.5616,-0.628,-0.689,-0.6972,-0.7,-0.7021,-0.7084,-0.7836,-0.8671,-0.8595,-0.9612,-1.0847,-1.1511,-1.1623,-1.1692,-1.2096,-1.2319,-1.2823,-1.4303,-1.4778,-1.4915,-1.4915,-1.532,-1.5698,-1.5698,-1.6139,-1.6522,-1.6573,-1.6595,-1.6774,-1.7333,-1.7442,-1.7847,-1.8798,-1.8949,-1.9188,-1.9657,-1.9708,-1.9708,-1.9708,-1.9708,-1.9708,-1.9708,-1.9708,-1.9708,-1.9708,-1.9708,-1.9989,-2.0583,-2.1335,-2.1994,-2.2598,-2.3131,-2.343,0.0,0.0,0.0189,0.0,0.0,0.0,0.1884,0.1647,0.1229,0.0,0.0,0.0,0.0,0.0,0.0,0.0,0.0,0.0,0.0,0.0,0.0,0.0,0.0,0.0,0.0,0.0,1.0965,0.9891,0.862,0.7857,0.7696,0.6858,0.6118,0.5515,0.5378,0.5058,0.4519,0.4183,0.3672,0.2913,0.217,0.143,0.0716,0.0225,0.0,0.0,0.0,-0.0067,-0.0222,-0.0708,-0.1554,-0.2546,-0.2646,-0.2809,-0.3005,-0.3201,-0.3602,-0.4173,-0.4981,-0.5627,-0.6216,-0.6816,-0.7,-0.7084,-0.7579,-0.8113,-0.8798,-0.9986,-1.084,-1.1508,-1.1957,-1.1836,-1.1692,-1.2096,-1.2972,-1.3817,-1.4148,-1.5227,-1.6151,-1.6151,-1.6238,-1.6315,-1.6315,-1.6423,-1.6659,-1.7076,-1.7126,-1.7353,-1.7867,-1.8322,-1.8669,-1.8874,-1.9281,-1.9584,-1.969,-1.9708,-1.9708,-1.9708,-1.9708,-1.9708,-1.9708,-1.9708,-1.9708,-1.9708,-1.9708,-1.9768,-1.9884,-2.1096,-2.1754,-2.1889,-2.2009,-2.2373,0.0,0.0,0.0,0.0459,0.0,0.0,0.0,0.109,0.1006,0.0615,0.0252,0.0,0.0,0.0,0.0,0.0,0.0,0.0,0.0,0.0,0.0,0.0,0.0,0.0,0.0,0.0,1.1241,0.9891,0.9138,0.8593,0.8262,0.7563,0.6799,0.6064,0.5678,0.5191,0.4519,0.4392,0.3924,0.3091,0.2737,0.1967,0.0895,0.0583,0.0292,0.0,0.0,0.0,-0.0022,-0.0318,-0.1027,-0.1926,-0.2224,-0.2581,-0.2892,-0.2903,-0.329,-0.3899,-0.4528,-0.5253,-0.6003,-0.6612,-0.688,-0.7063,-0.7363,-0.7996,-0.882,-0.9863,-1.0535,-1.0997,-1.1201,-1.1094,-1.1056,-1.1465,-1.2244,-1.3038,-1.3534,-1.4714,-1.5736,-1.6044,-1.6333,-1.65,-1.65,-1.65,-1.6595,-1.6858,-1.7126,-1.7483,-1.8027,-1.8574,-1.9006,-1.9262,-1.9548,-1.9708,-1.9708,-1.9708,-1.9708,-1.9708,-1.9708,-1.9708,-1.9708,-1.9708,-1.9708,-1.9708,-1.9708,-1.9708,-1.9708,-2.0382,-2.0872,-2.1216,-2.1545,-2.2074,0.0,0.0,0.0,0.0,0.0,0.0722,0.0,0.0,0.0,0.0112,0.0,0.0,0.0,0.0,0.0,0.0,0.0,0.0,0.0,0.0,0.0,0.0,0.0,0.0,0.0,0.0,1.1366,1.0269,0.9943,0.9562,0.9008,0.8315,0.7503,0.6642,0.6009,0.5328,0.4519,0.4491,0.4097,0.3266,0.3166,0.2391,0.1073,0.0962,0.056,0.0,0.0,0.0,0.0,0.0,-0.0461,-0.1239,-0.1801,-0.2373,-0.2849,-0.2744,-0.3073,-0.3664,-0.4157,-0.4934,-0.5806,-0.6334,-0.6752,-0.7,-0.7,-0.7741,-0.8665,-0.9202,-0.9739,-1.0195,-1.0361,-1.0361,-1.041,-1.0811,-1.1328,-1.1947,-1.2782,-1.3852,-1.4821,-1.5294,-1.599,-1.6532,-1.6633,-1.6659,-1.671,-1.693,-1.7333,-1.7807,-1.8341,-1.8798,-1.9225,-1.9639,-1.9708,-1.9708,-1.9708,-1.9708,-1.9708,-1.9708,-1.9708,-1.9708,-1.9708,-1.9708,-1.9708,-1.9708,-1.9708,-1.9708,-1.9708,-1.9708,-1.9974,-2.0509,-2.1066,-2.1665,0.0,0.0,0.0,0.0,0.006,0.0,0.0,0.0,0.0112,0.0028,0.0,0.0,0.0,0.0,0.0,0.0,0.0,0.0,0.0,0.0,0.0,0.0,0.0,0.0,0.0,0.0,0.0,1.1591,1.0466,0.9762,0.9684,0.9054,0.8049,0.6642,0.6529,0.585,0.4519,0.4491,0.4287,0.3895,0.3365,0.2608,0.1674,0.114,0.056,0.0,0.0,0.0,0.0,0.0,-0.0298,-0.0817,-0.1232,-0.1936,-0.2723,-0.2703,-0.2756,-0.2944,-0.376,-0.447,-0.5143,-0.5985,-0.6601,-0.7,-0.7,-0.7505,-0.8185,-0.8665,-0.9226,-0.9864,-1.0624,-1.0566,-1.041,-1.0811,-1.1369,-1.1842,-1.2006,-1.3171,-1.4193,-1.4273,-1.5481,-1.6645,-1.713,-1.7209,-1.7524,-1.8477,-1.8669,-1.8912,-1.9442,-1.9566,-1.9621,-1.969,-1.9708,-1.9708,-1.9708,-1.9708,-1.9708,-1.9708,-1.9708,-1.9708,-1.9708,-1.9708,-1.9708,-1.9708,-1.9708,-1.9708,-1.9708,-1.9708,-1.9753,-1.9828,-1.9887,-2.0288,0.0,0.0,0.0,0.0,0.0,0.0,0.0,0.0,0.0,0.0,0.0,0.0,0.0,0.0,0.0,0.0,0.0,0.0,0.0,0.0,0.0,0.0,0.0,0.0,0.0,0.0,0.0,0.0,0.0,1.021,0.9814,0.9159,0.8129,0.6642,0.702,0.6367,0.4519,0.4804,0.4644,0.3994,0.366,0.309,0.2295,0.1697,0.1274,0.1006,0.0314,0.0197,0.0503,0.0143,-0.0272,-0.0725,-0.0892,-0.1509,-0.2297,-0.2297,-0.2464,-0.278,-0.3388,-0.4041,-0.4811,-0.6025,-0.648,-0.6573,-0.672,-0.7068,-0.7549,-0.8216,-0.882,-0.945,-1.0322,-1.043,-1.0352,-1.0508,-1.0942,-1.1341,-1.1371,-1.2574,-1.3629,-1.3629,-1.4686,-1.5945,-1.7099,-1.7556,-1.7807,-1.7947,-1.8496,-1.8987,-1.9207,-1.9512,-1.9708,-1.9708,-1.9708,-1.9708,-1.9708,-1.9708,-1.9708,-1.9708,-1.9708,-1.9708,-1.9708,-1.9708,-1.9708,-1.9708,-1.9708,-1.9708,-1.9708,-1.9708,-1.9708,-1.9708,-1.9708,-2.0049,0.1373,0.0,0.0,0.0,0.0,0.0,0.0,0.0,0.0,0.0,0.0,0.0,0.0,0.0,0.0,0.0,0.0,0.0196,0.0,0.0,0.0,0.0,0.0,0.0,0.0,0.0,0.0,0.0,1.1091,0.0,0.984,0.9159,0.8209,0.6939,0.7429,0.6772,0.4787,0.5148,0.4922,0.4055,0.3927,0.3465,0.2743,0.2263,0.1962,0.1741,0.0873,0.0717,0.1047,0.0477,0.0019,-0.0338,-0.0461,-0.0974,-0.168,-0.1914,-0.2297,-0.2753,-0.3073,-0.3751,-0.4658,-0.5901,-0.625,-0.6236,-0.6425,-0.6708,-0.7111,-0.7967,-0.8565,-0.9142,-1.0051,-1.0303,-1.0303,-1.0303,-1.0553,-1.0848,-1.0981,-1.1986,-1.2918,-1.3048,-1.4044,-1.5194,-1.6243,-1.7076,-1.7625,-1.7673,-1.8337,-1.8852,-1.8852,-1.9357,-1.9708,-1.9708,-1.9708,-1.9708,-1.9708,-1.9708,-1.9708,-1.9708,-1.9708,-1.9708,-1.9708,-1.9708,-1.9708,-1.9708,-1.9708,-1.9708,-1.9708,-1.9708,-1.9708,-1.9708,-1.9708,-1.9944,0.0,0.0,0.0,0.1264,0.0,0.0,0.0,0.0,0.0,0.0,0.0,0.0,0.0,0.0,0.0,0.0,0.0,0.0,0.0,0.0,0.0,0.0,0.0,0.0,0.0,0.0,0.0,1.083,1.0813,0.0,0.984,0.9159,0.8454,0.7696,0.7696,0.6983,0.5487,0.5479,0.5046,0.4187,0.4058,0.3614,0.2882,0.2748,0.2361,0.1808,0.1762,0.1683,0.155,0.1057,0.0795,0.0607,0.0151,-0.0319,-0.084,-0.1694,-0.2297,-0.272,-0.2867,-0.3651,-0.4701,-0.5328,-0.5844,-0.6196,-0.6203,-0.6483,-0.7009,-0.7929,-0.8481,-0.903,-1.0031,-1.0303,-1.0303,-1.0303,-1.0322,-1.0448,-1.0905,-1.1452,-1.1979,-1.2443,-1.3753,-1.4677,-1.4268,-1.5398,-1.6881,-1.8421,-1.8681,-1.8715,-1.8715,-1.9286,-1.9708,-1.9708,-1.9708,-1.9708,-1.9708,-1.9708,-1.9708,-1.9708,-1.9708,-1.9708,-1.9708,-1.9708,-1.9708,-1.9708,-1.9708,-1.9708,-1.9708,-1.9708,-1.9708,-1.9708,-1.9708,-1.9708,0.0,0.0,0.2169,0.2053,0.0,0.0,0.0,0.0,0.0,0.0,0.0,0.0,0.0,0.0,0.0,0.0,0.0,0.0,0.0,0.0,0.0,0.0,0.0,0.0,0.0,0.0,0.0,1.0721,1.0225,0.9859,0.0,0.9159,0.8454,0.7723,0.8182,0.7498,0.5515,0.5898,0.5401,0.4068,0.3941,0.3698,0.3352,0.2895,0.281,0.2948,0.2142,0.1955,0.2151,0.1584,0.1109,0.0689,0.0521,-0.0017,-0.0773,-0.1323,-0.1826,-0.232,-0.2949,-0.3411,-0.3911,-0.491,-0.519,-0.5271,-0.5978,-0.6138,-0.629,-0.7368,-0.8019,-0.8614,-0.9536,-1.004,-1.0303,-1.0303,-1.0303,-1.0428,-1.0905,-1.1412,-1.1938,-1.2419,-1.3166,-1.3925,-1.448,-1.4877,-1.5558,-1.6905,-1.7644,-1.8192,-1.8642,-1.8897,-1.9211,-1.9648,-1.9708,-1.9708,-1.9708,-1.9708,-1.9708,-1.9708,-1.9708,-1.9708,-1.9708,-1.9708,-1.9708,-1.9708,-1.9708,-1.9708,-1.9708,-1.9708,-1.9708,-1.9708,-1.9708,-1.9708,0.3741,0.3481,0.0,0.2822,0.2324,0.0,0.0615,0.0,0.0,0.0,0.0,0.0,0.0,0.0,0.0,0.0,0.0,0.0,0.0,0.0,0.0,0.0,0.0,0.0,0.0,0.0,0.8498,0.9614,0.9612,0.9521,0.0,0.0,0.8593,0.8103,0.8566,0.799,0.6303,0.6675,0.609,0.4529,0.4357,0.4078,0.3734,0.3235,0.3236,0.3556,0.2771,0.2552,0.2675,0.2131,0.1625,0.1125,0.0823,0.0336,-0.0269,-0.0871,-0.1475,-0.2081,-0.2636,-0.3048,-0.3426,-0.4213,-0.4515,-0.4725,-0.5415,-0.5657,-0.5916,-0.697,-0.7581,-0.8166,-0.9213,-0.9755,-1.0059,-1.0264,-1.0303,-1.0428,-1.0905,-1.1412,-1.1938,-1.2419,-1.289,-1.3432,-1.4111,-1.4389,-1.4881,-1.605,-1.6872,-1.7578,-1.8252,-1.8553,-1.8957,-1.9633,-1.9708,-1.9708,-1.9708,-1.9708,-1.9708,-1.9708,-1.9708,-1.9708,-1.9708,-1.9708,-1.9813,-2.0049,-1.9828,-1.9828,-2.0049,-1.9828,-1.9708,-1.9708,-1.9708,-1.9708]}]]